Date StartTime U_cm/s V_cm/s W_cm/s Ustd_cm/s Vstd_cm/s Wstd_cm/s Uvar_(cm/s)^2 Vvar_(cm/s)^2 Wvar_(cm/s)^2 KE_(m/s)^2 TurbulentKE_(m/s)^2 HorizWindSpeed_cm/s FrictionSpeec_cm/s DragCoef SpeedOfSound_m/s SonicTemperature_C Pressure_mb 
05/17/2014  00:00:00       13.103       25.299        3.492       22.704       35.253       14.833      515.450     1242.758      220.024        0.140        0.099       28.491        5.759        0.041      342.684       18.267      861.604
05/17/2014  00:01:00       90.495      -20.377       19.318       34.936       36.623       25.262     1220.528     1341.213      638.147        0.609        0.160       92.761       14.939        0.026      342.210       17.461      861.602
05/17/2014  00:02:00       64.862      -11.342       17.454       48.791       24.951       24.793     2380.588      622.535      614.684        0.413        0.181       65.847       26.626        0.164      341.887       16.914      861.598
05/17/2014  00:03:00       24.523        8.218       -6.289       30.835       23.045       19.909      950.782      531.080      396.358        0.129        0.094       25.863        9.392        0.132      341.906       16.944      861.600
05/17/2014  00:04:00       20.251       15.433        2.718       25.446       14.495       17.965      647.477      210.112      322.730        0.092        0.059       25.461       16.417        0.416      342.376       17.742      861.617
05/17/2014  00:05:00       29.051       20.090       33.182       29.468       23.843       20.432      868.334      568.465      417.478        0.210        0.093       35.321       18.524        0.275      341.564       16.364      861.630
05/17/2014  00:06:00       12.530       -9.195        8.722       14.963       20.931       13.168      223.896      438.098      173.403        0.058        0.042       15.542       12.161        0.612      341.471       16.207      861.628
05/17/2014  00:07:00        1.366      -23.449       -9.869       15.226       23.250       16.678      231.826      540.569      278.159        0.085        0.053       23.488        7.975        0.115      341.070       15.528      861.631
05/17/2014  00:08:00        8.584       17.693       18.622       20.857       19.910       16.313      434.995      396.420      266.109        0.092        0.055       19.665        4.276        0.047      341.229       15.797      861.646
05/17/2014  00:09:00       60.881       52.694       42.653       44.369       33.499       31.157     1968.627     1122.151      970.782        0.618        0.203       80.518       24.526        0.093      341.783       16.736      861.669
05/17/2014  00:10:00       45.611       54.455       25.122       55.734       29.138       27.546     3106.238      849.049      758.773        0.519        0.236       71.033       23.901        0.113      341.509       16.271      861.680
05/17/2014  00:11:00       37.820      -37.704        8.351       42.590       40.987       31.753     1813.894     1679.965     1008.254        0.371        0.225       53.404       33.766        0.400      341.380       16.053      861.676
05/17/2014  00:12:00       16.733       26.292       41.428       29.522       28.172       27.057      871.530      793.671      732.077        0.254        0.120       31.165       15.544        0.249      341.297       15.911      861.667
05/17/2014  00:13:00        5.757       32.587       55.793       25.503       42.774       21.265      650.414     1829.608      452.206        0.357        0.147       33.091       16.981        0.263      341.211       15.765      861.668
05/17/2014  00:14:00       43.048      -22.302       25.864       55.723       52.869       42.448     3105.073     2795.168     1801.824        0.536        0.385       48.482       38.319        0.625      341.318       15.949      861.687
05/17/2014  00:15:00       36.570        1.562       22.514       36.201       51.960       33.447     1310.486     2699.807     1118.727        0.349        0.256       36.603       33.284        0.827      341.373       16.041      861.702
05/17/2014  00:16:00       51.523      -39.218       13.879       32.094       25.440       24.591     1030.005      647.210      604.714        0.333        0.114       64.750       18.402        0.081      341.050       15.496      861.719
05/17/2014  00:17:00       40.990      -70.273       -0.566       20.207       25.242       17.311      408.307      637.166      299.673        0.398        0.067       81.354       12.899        0.025      341.303       15.924      861.746
05/17/2014  00:18:00       37.996      -78.763       -1.635       26.645       35.576       19.402      709.969     1265.676      376.442        0.500        0.118       87.449       14.149        0.026      341.621       16.461      861.775
05/17/2014  00:19:00      -45.428       -7.444        4.217       48.489       20.103       14.050     2351.158      404.135      197.395        0.254        0.148       46.034       20.755        0.203      341.604       16.432      861.792
05/17/2014  00:20:00      -83.655      -54.104       -0.847       40.192       38.057       21.298     1615.399     1448.328      453.626        0.672        0.176       99.626       19.826        0.040      341.876       16.892      861.789
05/17/2014  00:21:00      -52.434      -56.936        6.444       42.126       43.941       24.760     1774.639     1930.841      613.054        0.517        0.216       77.401       24.548        0.101      341.862       16.869      861.777
05/17/2014  00:22:00      -25.982      -18.709       11.081       36.075       37.138       19.868     1301.425     1379.200      394.729        0.211        0.154       32.017       16.621        0.270      341.612       16.446      861.749
05/17/2014  00:23:00      -57.099      -34.228        9.476       43.690       34.940       17.315     1908.856     1220.804      299.800        0.397        0.171       66.572       20.524        0.095      341.898       16.931      861.730
05/17/2014  00:24:00        6.380       -1.759       10.730       31.328       28.634       17.847      981.433      819.895      318.509        0.114        0.106        6.618       14.725        4.951      341.149       15.661      861.710
05/17/2014  00:25:00      -11.585      -32.819       16.288       18.808       28.249       17.326      353.732      797.981      300.178        0.146        0.073       34.804       15.262        0.192      341.744       16.668      861.706
05/17/2014  00:26:00      -25.302       -1.447        7.924       26.092       23.995       23.559      680.801      575.781      555.024        0.126        0.091       25.343       17.106        0.456      341.726       16.638      861.729
05/17/2014  00:27:00       22.113       -8.756       10.039       36.980       27.324       25.885     1367.534      746.602      670.033        0.172        0.139       23.783       17.230        0.525      341.645       16.501      861.735
05/17/2014  00:28:00       47.455        6.698       12.312       47.566       45.372       37.586     2262.487     2058.652     1412.677        0.409        0.287       47.926       39.032        0.663      341.304       15.924      861.720
05/17/2014  00:29:00       46.956      -63.193        3.676       42.954       59.148       29.982     1845.051     3498.486      898.902        0.623        0.312       78.729       26.149        0.110      341.662       16.531      861.738
05/17/2014  00:30:00      -19.555       -7.787       19.029       27.930       38.803       25.691      780.085     1505.672      660.046        0.187        0.147       21.049       23.948        1.294      341.710       16.610      861.773
05/17/2014  00:31:00        4.649      -17.931       20.470       36.079       34.589       22.221     1301.714     1196.385      493.759        0.188        0.150       18.524       10.583        0.326      341.481       16.224      861.761
05/17/2014  00:32:00       39.231      -23.106       18.665       46.771       45.243       34.498     2187.510     2046.919     1190.146        0.392        0.271       45.530       33.742        0.549      341.352       16.005      861.741
05/17/2014  00:33:00       31.075        1.842       38.344       42.042       39.462       28.648     1767.547     1557.271      820.692        0.329        0.207       31.129       27.914        0.804      340.815       15.097      861.734
05/17/2014  00:34:00       65.889       14.040       20.308       51.845       35.279       35.642     2687.884     1244.599     1270.372        0.508        0.260       67.368       35.535        0.278      340.565       14.674      861.715
05/17/2014  00:35:00       41.129       50.474       65.165       39.603       50.835       26.825     1568.402     2584.161      719.588        0.668        0.244       65.109       21.609        0.110      340.952       15.328      861.689
05/17/2014  00:36:00       16.088      -24.625       13.462       34.918       30.745       31.529     1219.296      945.256      994.093        0.210        0.158       29.414       26.340        0.802      340.906       15.251      861.697
05/17/2014  00:37:00       32.598      -70.039      -12.614       29.189       29.032       19.706      851.991      842.854      388.313        0.410        0.104       77.253       12.069        0.024      341.318       15.947      861.731
05/17/2014  00:38:00        2.284      -12.385       -2.018       19.634       21.992       17.845      385.495      483.648      318.457        0.067        0.059       12.594       19.838        2.481      341.376       16.046      861.730
05/17/2014  00:39:00       50.942       26.636       15.866       30.046       30.620       20.086      902.773      937.587      403.446        0.290        0.112       57.486       16.314        0.081      341.065       15.520      861.710
05/17/2014  00:40:00      123.614       66.741       14.440       34.217       31.856       23.276     1170.821     1014.803      541.764        1.133        0.136      140.481       14.177        0.010      341.385       16.060      861.685
05/17/2014  00:41:00      108.456       54.477       -1.111       51.023       39.206       36.838     2603.304     1537.129     1357.037        1.011        0.275      121.370       22.815        0.035      341.509       16.270      861.653
05/17/2014  00:42:00       95.445       71.448        5.992       50.733       43.229       35.163     2573.813     1868.718     1236.455        0.996        0.284      119.225       21.860        0.034      341.544       16.330      861.630
05/17/2014  00:43:00       46.552       30.302       22.447       43.207       30.361       26.639     1866.844      921.813      709.612        0.354        0.175       55.545       15.582        0.079      341.470       16.206      861.637
05/17/2014  00:44:00      -13.133       -1.232       -0.426       16.815       27.626       15.095      282.733      763.171      227.852        0.072        0.064       13.190       18.482        1.963      341.571       16.376      861.632
05/17/2014  00:45:00      -72.197      -43.024       -4.179       38.162       22.534       16.456     1456.315      507.763      270.799        0.466        0.112       84.045       15.431        0.034      341.317       15.945      861.628
05/17/2014  00:46:00     -101.223      -79.855       -1.643       37.041       30.665       18.552     1372.050      940.326      344.165        0.964        0.133      128.930       18.809        0.021      341.438       16.151      861.629
05/17/2014  00:47:00     -106.525      -41.921        1.303       40.710       33.543       23.905     1657.270     1125.149      571.456        0.823        0.168      114.477       20.636        0.032      341.558       16.354      861.637
05/17/2014  00:48:00      -54.929       -5.037        2.196       26.157       18.014       17.480      684.173      324.516      305.540        0.218        0.066       55.160       14.729        0.071      341.583       16.397      861.630
05/17/2014  00:49:00      -96.655        8.670      -13.061       17.647       11.153       12.198      311.420      124.399      148.781        0.509        0.029       97.043        9.197        0.009      341.595       16.416      861.607
05/17/2014  00:50:00      -76.466       -0.544       -6.322       17.299       10.479       12.491      299.265      109.803      156.022        0.323        0.028       76.468       13.582        0.032      341.675       16.552      861.591
05/17/2014  00:51:00      -15.422       16.568       22.465       21.225       19.769       20.681      450.505      390.794      427.713        0.114        0.063       22.635       17.856        0.622      340.839       15.138      861.583
05/17/2014  00:52:00       13.048      -20.014        3.987       12.761       18.295       13.050      162.846      334.693      170.296        0.063        0.033       23.891        8.491        0.126      340.997       15.405      861.560
05/17/2014  00:53:00        6.951      -18.238        5.609       14.142       14.318       10.336      200.004      205.001      106.841        0.046        0.026       19.518        9.911        0.258      341.156       15.673      861.546
05/17/2014  00:54:00      -42.474      -58.643       -2.787       31.945       24.814       18.105     1020.511      615.755      327.777        0.361        0.098       72.409       16.184        0.050      341.643       16.497      861.543
05/17/2014  00:55:00      -66.164      -49.966        1.574       37.456       31.540       25.114     1402.986      994.766      630.692        0.495        0.151       82.911       16.266        0.038      341.425       16.129      861.550
05/17/2014  00:56:00      -68.300     -109.117        2.509       53.845       61.503       26.128     2899.255     3782.644      682.666        1.197        0.368      128.730       23.269        0.033      341.518       16.285      861.578
05/17/2014  00:57:00      -80.965     -117.062       -0.765       27.062       54.431       23.299      732.356     2962.705      542.842        1.225        0.212      142.334       19.604        0.019      341.567       16.370      861.601
05/17/2014  00:58:00      -42.889      -28.070        9.948       38.356       54.877       23.511     1471.214     3011.531      552.787        0.388        0.252       51.258       20.495        0.160      341.444       16.160      861.610
05/17/2014  00:59:00       -6.751        0.990      -16.847       26.805       23.544       19.368      718.519      554.339      375.125        0.099        0.082        6.823        8.231        1.455      341.240       15.816      861.582
05/17/2014  01:00:00      -36.794       12.400        6.758       24.291       24.589       14.247      590.057      604.617      202.970        0.148        0.070       38.827       12.578        0.105      341.329       15.967      861.550
05/17/2014  01:01:00     -117.912        2.488      -11.353       35.385       30.645       20.542     1252.117      939.129      421.980        0.833        0.131      117.939       17.195        0.021      341.185       15.724      861.527
05/17/2014  01:02:00      -83.493       24.454       -6.443       35.993       29.470       23.301     1295.531      868.455      542.914        0.516        0.135       87.000       19.782        0.052      340.995       15.400      861.529
05/17/2014  01:03:00      -65.582       58.707      -13.933       23.770       21.974       11.514      565.036      482.870      132.579        0.456        0.059       88.020        6.430        0.005      341.121       15.614      861.503
05/17/2014  01:04:00      -20.755       87.361        0.245       27.382       18.922       13.680      749.793      358.046      187.149        0.468        0.065       89.793        8.517        0.009      341.330       15.968      861.462
05/17/2014  01:05:00       -9.907       84.905       -8.380       15.475       12.892        9.049      239.479      166.198       81.893        0.393        0.024       85.481        6.532        0.006      341.486       16.234      861.432
05/17/2014  01:06:00      -12.172       24.317        1.216       11.278       20.928        8.231      127.186      437.989       67.754        0.069        0.032       27.193        9.488        0.122      341.186       15.724      861.430
05/17/2014  01:07:00      -24.207      -22.196        0.648       25.439       25.679       12.255      647.153      659.397      150.182        0.127        0.073       32.842       11.193        0.116      341.101       15.581      861.437
05/17/2014  01:08:00        0.714      -10.783       13.342       15.644       13.541        7.797      244.750      183.350       60.787        0.039        0.024       10.806        7.582        0.492      340.835       15.130      861.428
05/17/2014  01:09:00      -12.151       -3.055        2.230       17.095       13.565       12.866      292.230      184.007      165.528        0.040        0.032       12.529       11.906        0.903      340.810       15.090      861.423
05/17/2014  01:10:00        4.829       13.609       12.787       16.287       13.452       10.857      265.258      180.948      117.877        0.047        0.028       14.440       11.473        0.631      340.781       15.039      861.413
05/17/2014  01:11:00       12.542       16.648        3.278       11.363        7.912       10.926      129.110       62.599      119.377        0.038        0.016       20.844        6.407        0.094      340.963       15.348      861.417
05/17/2014  01:12:00      -28.659       -0.279       -1.612       12.746       15.186        5.743      162.459      230.619       32.978        0.062        0.021       28.660        2.413        0.007      341.425       16.128      861.418
05/17/2014  01:13:00      -81.597      -35.184       -3.656       29.602       16.788        9.676      876.251      281.833       93.623        0.458        0.063       88.859        8.861        0.010      341.239       15.814      861.410
05/17/2014  01:14:00      -78.027      -56.041        6.048       48.893       41.331       28.394     2390.571     1708.252      806.213        0.708        0.245       96.066       20.836        0.047      340.930       15.291      861.409
05/17/2014  01:15:00     -138.570      -64.790       -2.924       41.417       37.838       28.093     1715.394     1431.707      789.216        1.367        0.197      152.968       22.015        0.021      341.093       15.567      861.423
05/17/2014  01:16:00      -92.378      -37.192        3.607       64.643       27.422       22.137     4178.718      751.969      490.053        0.767        0.271       99.584       28.490        0.082      341.009       15.424      861.432
05/17/2014  01:17:00      -50.746      -27.885       10.591       43.669       36.165       21.585     1907.019     1307.908      465.908        0.357        0.184       57.902       21.747        0.141      341.025       15.451      861.413
05/17/2014  01:18:00       -4.332       -6.269       23.892       29.758       31.051       22.724      885.528      964.138      516.365        0.150        0.118        7.620       18.242        5.731      340.784       15.044      861.398
05/17/2014  01:19:00        2.366      -12.612       14.731       24.215       30.295       20.355      586.379      917.758      414.343        0.115        0.096       12.832       22.291        3.018      340.708       14.914      861.395
05/17/2014  01:20:00      -11.553       -0.120        1.186       12.541       13.300       13.315      157.266      176.882      177.297        0.032        0.026       11.554        6.003        0.270      340.985       15.383      861.395
05/17/2014  01:21:00       35.631        8.128       19.813       29.010       13.584       17.845      841.568      184.519      318.427        0.154        0.067       36.546       11.632        0.101      340.688       14.881      861.393
05/17/2014  01:22:00       14.479       11.398        3.626       29.573        8.049       16.804      874.562       64.785      282.385        0.079        0.061       18.427        5.173        0.079      340.768       15.018      861.377
05/17/2014  01:23:00       47.313       20.094       19.904       21.533       17.651       22.916      463.665      311.554      525.124        0.217        0.065       51.404       14.876        0.084      340.275       14.182      861.351
05/17/2014  01:24:00       31.331       33.829        0.059       26.966       24.619       17.746      727.160      606.089      314.935        0.189        0.082       46.109       12.444        0.073      340.527       14.610      861.347
05/17/2014  01:25:00        7.082       76.543       -2.051       23.795       24.834       13.616      566.187      616.707      185.395        0.364        0.068       76.870       11.433        0.022      340.990       15.392      861.349
05/17/2014  01:26:00      -10.967       32.106       -8.754       18.791       22.324        8.857      353.090      498.380       78.445        0.108        0.046       33.927        8.110        0.057      341.073       15.533      861.360
05/17/2014  01:27:00      -35.435      -13.957       -4.385       17.612       14.628       11.535      310.197      213.985      133.048        0.106        0.033       38.084        8.703        0.052      340.913       15.263      861.368
05/17/2014  01:28:00      -43.386       10.390       -5.545        8.111        7.418        6.289       65.781       55.021       39.551        0.109        0.008       44.613        4.190        0.009      340.932       15.293      861.349
05/17/2014  01:29:00      -17.412       17.734        5.182       27.199        8.394        7.978      739.760       70.455       63.644        0.076        0.044       24.853        5.030        0.041      340.873       15.195      861.326
05/17/2014  01:30:00       12.020       15.484        3.262       10.568        6.432        5.773      111.692       41.365       33.333        0.029        0.009       19.601        3.995        0.042      340.939       15.305      861.307
05/17/2014  01:31:00        4.917        5.352        2.370        9.366        9.237        4.612       87.718       85.329       21.269        0.013        0.010        7.268        4.248        0.342      341.238       15.814      861.303
05/17/2014  01:32:00       -0.819        5.786       11.688       11.908        6.672        6.077      141.794       44.515       36.928        0.020        0.011        5.844        4.210        0.519      340.444       14.469      861.290
05/17/2014  01:33:00       -6.991       15.253       17.387        9.142       10.374       11.287       83.575      107.610      127.392        0.045        0.016       16.779        8.380        0.249      340.352       14.313      861.269
05/17/2014  01:34:00       17.784       11.475       -7.325       17.138       12.665       14.890      293.719      160.406      221.725        0.059        0.034       21.164       10.795        0.260      340.814       15.095      861.256
05/17/2014  01:35:00        4.198       -8.423        8.304        8.037       11.412       10.001       64.593      130.228      100.010        0.023        0.015        9.411        6.370        0.458      340.530       14.615      861.245
05/17/2014  01:36:00        6.205      -15.746       13.698       14.700       10.505       11.164      216.076      110.359      124.638        0.046        0.023       16.925        6.518        0.148      340.480       14.529      861.238
05/17/2014  01:37:00       -7.870       -4.194       -0.739       13.348       14.304       10.616      178.161      204.605      112.692        0.029        0.025        8.917       11.169        1.569      340.767       15.013      861.230
05/17/2014  01:38:00      -12.489       -7.345        3.106       10.306       10.403        7.855      106.224      108.221       61.707        0.025        0.014       14.489        6.960        0.231      340.770       15.019      861.219
05/17/2014  01:39:00      -20.299       38.042       -9.348       12.733       23.855       10.069      162.122      569.050      101.380        0.139        0.042       43.119        9.589        0.049      341.082       15.549      861.206
05/17/2014  01:40:00      -39.834       52.570      -15.634       24.513       17.492       12.121      600.883      305.960      146.922        0.282        0.053       65.957       13.127        0.040      341.454       16.178      861.216
05/17/2014  01:41:00      -23.804       31.334      -30.395       28.156       38.084       20.538      792.785     1450.412      421.814        0.257        0.133       39.350       15.292        0.151      341.699       16.593      861.238
05/17/2014  01:42:00       35.778       84.581        7.763       20.101       23.020       22.822      404.031      529.925      520.842        0.497        0.073       91.837        8.949        0.009      341.543       16.330      861.226
05/17/2014  01:43:00       30.757      142.058      -16.778       29.775       58.896       27.369      886.529     3468.739      749.071        1.326        0.255      145.349       29.633        0.042      341.599       16.423      861.212
05/17/2014  01:44:00       33.096      145.753      -21.092       31.970       29.850       18.960     1022.108      891.005      359.467        1.253        0.114      149.463       17.101        0.013      341.694       16.586      861.194
05/17/2014  01:45:00      -32.691      138.327      -15.816       20.687       37.263       18.342      427.944     1388.559      336.420        1.130        0.108      142.137       14.976        0.011      341.685       16.569      861.174
05/17/2014  01:46:00      -59.250       -7.608       -7.352       18.259       27.416       13.465      333.377      751.636      181.318        0.244        0.063       59.737        8.113        0.018      340.685       14.877      861.154
05/17/2014  01:47:00     -120.216      -28.797       -8.104       42.362       33.685       21.814     1794.581     1134.648      475.864        0.938        0.170      123.617        8.478        0.005      340.361       14.329      861.168
05/17/2014  01:48:00     -119.910      -28.365      -12.546       35.357       29.158       22.669     1250.144      850.185      513.890        0.898        0.131      123.219       17.559        0.020      340.325       14.266      861.163
05/17/2014  01:49:00      -76.746       -1.594       -5.774       25.202       27.241       20.062      635.144      742.097      402.482        0.385        0.089       76.763       10.653        0.019      340.267       14.170      861.136
05/17/2014  01:50:00      -82.310       21.762      -19.318       20.237       21.902       12.041      409.517      479.681      144.995        0.433        0.052       85.139        7.393        0.008      340.403       14.400      861.106
05/17/2014  01:51:00      -57.095       66.066      -13.177       21.314       24.477       15.125      454.276      599.118      228.775        0.454        0.064       87.319       10.885        0.016      341.049       15.491      861.096
05/17/2014  01:52:00      -88.430       58.350      -18.858       26.009       21.323       16.017      676.469      454.688      256.528        0.648        0.069      105.947       14.746        0.019      340.888       15.219      861.088
05/17/2014  01:53:00      -54.284       26.676       -6.121       26.066       34.510       15.743      679.428     1190.940      247.857        0.291        0.106       60.484       13.472        0.050      340.919       15.271      861.065
05/17/2014  01:54:00      -69.431      -29.120       -4.968       42.175       22.711       16.200     1778.726      515.798      262.441        0.412        0.128       75.291       17.458        0.054      340.498       14.562      861.047
05/17/2014  01:55:00     -105.593      -45.969      -11.598       46.036       32.379       17.986     2119.305     1048.387      323.500        0.844        0.175      115.165       10.932        0.009      340.241       14.125      861.035
05/17/2014  01:56:00     -116.278        0.949       -8.440       52.134       26.929       22.786     2717.963      725.174      519.206        0.878        0.198      116.282       21.828        0.035      340.295       14.216      861.031
05/17/2014  01:57:00      -79.115      -10.675       -6.677       22.147       24.449       18.857      490.487      597.776      355.571        0.393        0.072       79.832       14.561        0.033      340.306       14.235      861.024
05/17/2014  01:58:00      -78.303      -37.426      -12.015       18.386       16.319        9.098      338.056      266.315       82.779        0.418        0.034       86.787        7.938        0.008      340.285       14.199      861.025
05/17/2014  01:59:00      -86.034      -42.521      -17.148       15.912       14.656       11.226      253.201      214.788      126.013        0.505        0.030       95.968        3.866        0.002      340.395       14.386      861.024
05/17/2014  02:00:00      -95.366      -31.661      -14.475       17.948       18.471       11.166      322.128      341.175      124.687        0.555        0.039      100.485        5.856        0.003      340.504       14.570      861.014
05/17/2014  02:01:00     -136.885      -27.179      -23.929       12.331       13.140       11.153      152.048      172.649      124.388        1.025        0.022      139.558        6.460        0.002      340.380       14.361      860.997
05/17/2014  02:02:00     -142.703       -2.519      -17.143       33.179       32.546       24.455     1100.849     1059.243      598.066        1.171        0.138      142.726       18.845        0.017      340.522       14.599      861.003
05/17/2014  02:03:00     -151.841       20.679      -22.856       50.352       34.178       24.476     2535.373     1168.114      599.074        1.415        0.215      153.242       20.317        0.018      340.515       14.586      861.024
05/17/2014  02:04:00      -87.545        4.653      -11.097       51.309       42.555       27.369     2632.640     1810.912      749.080        0.650        0.260       87.669       26.161        0.089      340.450       14.479      861.028
05/17/2014  02:05:00      -68.324       12.830      -13.113       48.673       44.600       30.402     2369.040     1989.149      924.305        0.514        0.264       69.518       30.593        0.194      340.538       14.629      861.007
05/17/2014  02:06:00      -66.931       -5.217      -14.873       28.406       36.648       20.442      806.873     1343.044      417.892        0.365        0.128       67.134       16.950        0.064      340.490       14.548      860.980
05/17/2014  02:07:00      -95.701      -22.264      -12.067       22.592       21.415       16.634      510.386      458.596      276.677        0.552        0.062       98.257        9.712        0.010      340.414       14.419      860.953
05/17/2014  02:08:00     -118.174      -26.970      -11.634       37.161       30.334       25.243     1380.972      920.173      637.200        0.888        0.147      121.213       19.918        0.027      340.359       14.325      860.935
05/17/2014  02:09:00     -102.467      -12.700      -12.701       35.205       28.302       25.011     1239.372      801.025      625.557        0.674        0.133      103.251       24.539        0.056      340.366       14.337      860.921
05/17/2014  02:10:00     -117.744      -28.132       -8.132       44.174       29.240       23.543     1951.347      854.954      554.273        0.904        0.168      121.059       24.261        0.040      340.266       14.168      860.916
05/17/2014  02:11:00     -138.539      -37.088       -1.858       59.843       44.156       26.032     3581.210     1949.712      677.643        1.339        0.310      143.417       31.515        0.048      340.252       14.144      860.927
05/17/2014  02:12:00      -77.896      -35.972        6.830       85.726       52.794       30.086     7348.869     2787.204      905.152        0.922        0.552       85.800       42.340        0.244      340.317       14.252      860.945
05/17/2014  02:13:00     -121.944      -24.089       -1.048       65.674       52.815       26.232     4313.122     2789.394      688.112        1.162        0.390      124.300       28.240        0.052      340.294       14.214      860.969
05/17/2014  02:14:00     -125.153      -43.865       -2.101       41.314       40.402       21.753     1706.817     1632.292      473.183        1.070        0.191      132.618       21.947        0.027      340.257       14.152      860.976
05/17/2014  02:15:00     -113.689      -10.545       -5.978       45.447       30.353       22.802     2065.406      921.315      519.951        0.829        0.175      114.177       28.162        0.061      340.322       14.262      860.965
05/17/2014  02:16:00     -130.478      -33.718      -11.633       18.854       23.473       14.108      355.467      551.002      199.023        0.970        0.055      134.764        5.241        0.002      340.383       14.366      860.941
05/17/2014  02:17:00      -52.083      -16.212       12.817       46.358       41.074       32.308     2149.038     1687.075     1043.837        0.401        0.244       54.548       33.663        0.381      340.425       14.436      860.917
05/17/2014  02:18:00       13.021        4.416       11.005       29.656       31.094       20.499      879.507      966.806      420.210        0.129        0.113       13.749       17.718        1.661      340.126       13.931      860.890
05/17/2014  02:19:00      -49.375       -5.082       -5.945       52.202       28.091       20.119     2725.049      789.091      404.774        0.321        0.196       49.636       25.363        0.261      340.299       14.224      860.890
05/17/2014  02:20:00      -85.171      -45.771       -4.749       35.752       24.821       17.186     1278.241      616.068      295.344        0.578        0.109       96.690       18.879        0.038      340.501       14.565      860.877
05/17/2014  02:21:00     -107.654      -37.980       -8.472       28.416       22.938       14.588      807.450      526.140      212.815        0.732        0.077      114.157       13.026        0.013      340.457       14.489      860.875
05/17/2014  02:22:00     -113.832      -36.820       -6.287       32.049       38.051       19.590     1027.150     1447.849      383.758        0.861        0.143      119.638       11.125        0.009      340.533       14.620      860.874
05/17/2014  02:23:00      -74.494      -38.951        6.718       44.660       34.139       20.608     1994.533     1165.492      424.681        0.535        0.179       84.062       15.220        0.033      340.388       14.374      860.877
05/17/2014  02:24:00      -95.203      -26.751        1.905       58.541       29.742       23.032     3427.045      884.596      530.484        0.731        0.242       98.890       29.639        0.090      340.332       14.279      860.897
05/17/2014  02:25:00     -121.769      -49.118       -9.456       18.837       26.441       16.467      354.851      699.107      271.155        0.933        0.066      131.302        7.106        0.003      340.397       14.391      860.907
05/17/2014  02:26:00     -126.265      -34.237       -8.341       13.678       18.551       10.704      187.077      344.125      114.573        0.892        0.032      130.824        6.530        0.002      340.443       14.468      860.887
05/17/2014  02:27:00      -79.535      -11.981       -4.106       37.721       31.477       17.889     1422.907      990.827      320.004        0.461        0.137       80.433       17.006        0.045      340.392       14.381      860.863
05/17/2014  02:28:00      -57.838       12.950       -4.004       39.158       26.081       20.588     1533.375      680.213      423.854        0.308        0.132       59.270       10.259        0.030      340.680       14.868      860.844
05/17/2014  02:29:00      -98.873       20.308       -7.442       40.704       31.763       22.179     1656.848     1008.857      491.913        0.670        0.158      100.937       13.363        0.018      340.630       14.783      860.830
05/17/2014  02:30:00      -80.849      -12.879       -4.320       47.714       37.473       18.931     2276.641     1404.230      358.369        0.538        0.202       81.868       18.021        0.048      340.563       14.670      860.839
05/17/2014  02:31:00      -86.830      -16.255        1.547       45.337       36.020       21.240     2055.461     1297.450      451.158        0.580        0.190       88.338       17.260        0.038      340.383       14.365      860.853
05/17/2014  02:32:00     -103.864      -39.528       -3.716       64.376       32.285       22.283     4144.250     1042.315      496.513        0.902        0.284      111.131       30.418        0.075      340.340       14.294      860.874
05/17/2014  02:33:00     -100.477      -40.769        0.938       43.175       39.656       18.999     1864.074     1572.566      360.956        0.778        0.190      108.433       17.861        0.027      340.380       14.362      860.882
05/17/2014  02:34:00     -109.233      -50.942       -1.303       39.593       26.478       16.677     1567.623      701.104      278.109        0.854        0.127      120.527        8.620        0.005      340.424       14.434      860.864
05/17/2014  02:35:00     -104.712      -47.044        0.211       37.063       31.981       26.042     1373.686     1022.805      678.191        0.813        0.154      114.794       20.796        0.033      340.358       14.322      860.847
05/17/2014  02:36:00     -135.771      -26.968       -8.038       35.123       25.183       22.945     1233.611      634.182      526.456        1.081        0.120      138.423       18.792        0.018      340.353       14.315      860.821
05/17/2014  02:37:00     -129.066      -34.318       -3.764       33.752       26.360       18.571     1139.170      694.868      344.867        1.001        0.109      133.551       15.305        0.013      340.432       14.450      860.813
05/17/2014  02:38:00     -124.133      -42.959       -5.032       27.499       26.364       17.999      756.199      695.057      323.975        0.953        0.089      131.356       15.440        0.014      340.464       14.501      860.816
05/17/2014  02:39:00     -146.123      -41.493      -16.578       15.083       23.738       10.946      227.488      563.478      119.816        1.213        0.046      151.900        6.583        0.002      340.411       14.413      860.814
05/17/2014  02:40:00     -135.846      -50.216       -3.950       20.985       25.921       15.127      440.389      671.903      228.830        1.117        0.067      144.830        9.438        0.004      340.397       14.390      860.811
05/17/2014  02:41:00     -147.134      -60.234      -12.235       19.609       23.213       17.020      384.500      538.823      289.670        1.332        0.061      158.986       13.166        0.007      340.347       14.305      860.805
05/17/2014  02:42:00     -113.557      -32.137       -9.529       26.209       22.434       17.044      686.892      503.304      290.493        0.775        0.074      118.017       12.264        0.011      340.380       14.361      860.786
05/17/2014  02:43:00      -92.684      -21.242        6.368       47.976       28.868       20.447     2301.689      833.375      418.100        0.632        0.178       95.087       22.457        0.056      340.396       14.387      860.763
05/17/2014  02:44:00      -37.728        2.663        4.536       50.568       38.598       29.256     2557.076     1489.810      855.938        0.318        0.245       37.822       25.312        0.448      340.276       14.186      860.741
05/17/2014  02:45:00       -1.208        3.687        3.087       35.319       27.584       22.801     1247.440      760.868      519.906        0.128        0.126        3.880       16.796       18.736      340.268       14.171      860.749
05/17/2014  02:46:00      -68.021       -4.682        6.190       52.012       42.752       24.609     2705.201     1827.704      605.599        0.491        0.257       68.182       25.091        0.135      340.310       14.243      860.766
05/17/2014  02:47:00       21.641       -8.758        1.776       24.420       48.264       23.277      596.330     2329.441      541.820        0.201        0.173       23.346       27.944        1.433      340.095       13.879      860.786
05/17/2014  02:48:00       15.983      -19.703        3.750       20.571       24.820       18.071      423.166      616.035      326.569        0.101        0.068       25.371       10.921        0.185      340.274       14.180      860.799
05/17/2014  02:49:00       28.510       26.312       18.030       28.300       20.560       29.328      800.918      422.705      860.118        0.196        0.104       38.797       27.494        0.502      339.791       13.366      860.803
05/17/2014  02:50:00       24.261      -22.844        5.147       19.689       14.193       22.380      387.643      201.446      500.859        0.111        0.054       33.323       11.968        0.129      340.151       13.975      860.808
05/17/2014  02:51:00      -63.526       -7.241      -10.661       24.093       38.350       14.335      580.473     1470.691      205.506        0.323        0.113       63.938       11.636        0.033      340.455       14.484      860.798
05/17/2014  02:52:00      -77.114      -36.709       -3.598       30.647       29.553       12.203      939.229      873.374      148.909        0.463        0.098       85.405       10.502        0.015      340.509       14.578      860.780
05/17/2014  02:53:00      -57.051      -12.371       -9.277       14.086       15.137        7.787      198.406      229.117       60.638        0.199        0.024       58.377        2.935        0.003      340.553       14.654      860.754
05/17/2014  02:54:00      -41.107       -5.302       -8.551       14.560       20.892        9.986      211.997      436.489       99.726        0.127        0.037       41.448        7.671        0.034      340.644       14.809      860.723
05/17/2014  02:55:00      -32.185       -9.218       -0.464       17.198       13.736        8.546      295.770      188.688       73.027        0.084        0.028       33.479        6.937        0.043      340.553       14.652      860.691
05/17/2014  02:56:00      -13.635       10.460        1.102       17.213       17.816        7.829      296.276      317.393       61.287        0.049        0.034       17.185        7.716        0.202      340.655       14.828      860.673
05/17/2014  02:57:00        7.273       22.697        8.073       17.622       16.125       15.812      310.539      260.029      250.030        0.073        0.041       23.834        9.301        0.152      340.218       14.088      860.681
05/17/2014  02:58:00       25.990        1.913       12.257       19.921       16.846       16.143      396.831      283.791      260.601        0.089        0.047       26.061       13.296        0.260      339.454       12.798      860.694
05/17/2014  02:59:00       38.762       -1.372        7.964       18.226       12.420       11.143      332.181      154.258      124.170        0.109        0.031       38.786        8.353        0.046      339.535       12.936      860.710
05/17/2014  03:00:00       20.498       10.842       -3.305        9.668        5.487        4.795       93.470       30.109       22.989        0.035        0.007       23.189        4.403        0.036      339.953       13.641      860.717
05/17/2014  03:01:00       -6.972       -3.241        0.959       14.947        8.259        6.660      223.412       68.211       44.361        0.020        0.017        7.688        4.571        0.353      340.074       13.841      860.729
05/17/2014  03:02:00      -68.226      -12.372       -4.233        9.122       11.514        8.109       83.203      132.566       65.759        0.255        0.014       69.339        6.737        0.009      340.208       14.069      860.736
05/17/2014  03:03:00      -60.408      -13.920       -6.441        9.270        7.679        7.224       85.933       58.972       52.188        0.204        0.010       61.991        2.444        0.002      340.343       14.298      860.749
05/17/2014  03:04:00      -42.646      -21.275       -3.773       11.672        5.883        4.993      136.226       34.609       24.933        0.124        0.010       47.659        3.329        0.005      340.385       14.369      860.762
05/17/2014  03:05:00      -31.586       -7.395       -4.364       14.739       11.820        5.604      217.231      139.707       31.410        0.073        0.019       32.440        5.933        0.033      340.365       14.339      860.759
05/17/2014  03:06:00      -35.882      -23.121       -4.716       16.962       10.106        7.337      287.693      102.130       53.834        0.114        0.022       42.686        3.087        0.005      340.417       14.424      860.753
05/17/2014  03:07:00      -65.622      -36.939      -13.835        8.697       10.504        8.753       75.639      110.338       76.614        0.306        0.013       75.304        7.622        0.010      340.417       14.422      860.754
05/17/2014  03:08:00      -77.673      -26.937      -13.510        7.065        8.332        5.993       49.910       69.420       35.915        0.355        0.008       82.211        2.814        0.001      340.360       14.330      860.755
05/17/2014  03:09:00      -98.975      -36.846      -10.411       12.571       13.169        9.839      158.020      173.432       96.799        0.585        0.021      105.611        5.036        0.002      340.276       14.185      860.762
05/17/2014  03:10:00      -97.406      -28.274       -9.706       17.396       18.219       10.622      302.613      331.922      112.820        0.556        0.037      101.427       10.109        0.010      340.272       14.178      860.760
05/17/2014  03:11:00      -84.295      -51.943       -6.036       29.496       24.177       13.752      870.036      584.520      189.111        0.574        0.082       99.014        9.795        0.010      340.179       14.022      860.765
05/17/2014  03:12:00     -126.275      -51.791       -9.105       23.765       19.301       16.966      564.782      372.542      287.834        0.997        0.061      136.483       13.563        0.010      340.140       13.954      860.780
05/17/2014  03:13:00     -126.109      -21.518       -8.166       23.241       25.371       17.474      540.145      643.697      305.332        0.896        0.074      127.932       11.959        0.009      340.191       14.041      860.791
05/17/2014  03:14:00     -124.266      -29.557      -13.199       14.178       14.686        9.636      201.023      215.664       92.852        0.850        0.025      127.733        3.917        0.001      340.189       14.037      860.797
05/17/2014  03:15:00      -92.186      -30.982       -8.113       18.376       13.589       11.591      337.679      184.673      134.344        0.509        0.033       97.253        7.047        0.005      340.219       14.088      860.792
05/17/2014  03:16:00      -78.612      -23.298      -10.782       16.943       15.995       11.981      287.073      255.841      143.534        0.376        0.034       81.991        6.374        0.006      340.288       14.205      860.775
05/17/2014  03:17:00      -35.546       -3.885       -6.724       26.307       16.802       14.823      692.061      282.309      219.717        0.126        0.060       35.758       10.828        0.092      340.286       14.201      860.760
05/17/2014  03:18:00      -18.646       -4.630       -7.928       12.184        8.506       10.373      148.459       72.345      107.590        0.038        0.016       19.213        8.216        0.183      340.291       14.209      860.749
05/17/2014  03:19:00      -11.254       -4.257        3.552        9.538       13.840       10.807       90.981      191.550      116.787        0.028        0.020       12.032        8.653        0.517      340.164       13.996      860.731
05/17/2014  03:20:00      -23.815      -21.469       -0.895       13.089        8.610        8.995      171.318       74.124       80.905        0.068        0.016       32.064        4.420        0.019      340.362       14.330      860.717
05/17/2014  03:21:00      -74.361      -24.757       -5.693       34.689       11.373       10.383     1203.339      129.347      107.797        0.381        0.072       78.374       11.977        0.023      340.275       14.182      860.708
05/17/2014  03:22:00     -118.741      -24.723      -17.797        7.549       10.705        7.208       56.980      114.596       51.954        0.763        0.011      121.288        5.305        0.002      340.166       13.999      860.688
05/17/2014  03:23:00     -119.319      -13.845      -13.698       18.149       16.120       13.931      329.369      259.863      194.059        0.770        0.039      120.119       10.055        0.007      340.193       14.044      860.675
05/17/2014  03:24:00      -49.111      -41.103       -1.899       24.561       17.935       16.447      603.229      321.654      270.506        0.265        0.060       64.042       12.425        0.038      340.111       13.905      860.651
05/17/2014  03:25:00      -64.967      -21.591        1.394       21.285       18.218       13.150      453.053      331.883      172.929        0.282        0.048       68.461       10.254        0.022      340.164       13.995      860.629
05/17/2014  03:26:00      -74.903      -12.717       -9.975       32.982       18.556       16.765     1087.783      344.323      281.064        0.379        0.086       75.975        5.862        0.006      340.245       14.132      860.615
05/17/2014  03:27:00      -63.430      -19.697       -7.823       23.962       14.763       10.967      574.157      217.942      120.283        0.269        0.046       66.418        8.206        0.015      340.188       14.035      860.618
05/17/2014  03:28:00      -68.929      -29.981       -6.781       19.641       18.891       12.923      385.766      356.866      166.994        0.330        0.045       75.167        9.071        0.015      340.235       14.116      860.623
05/17/2014  03:29:00      -87.722      -37.633       -8.957       27.588       17.814       11.901      761.074      317.322      141.639        0.521        0.061       95.454        9.525        0.010      340.154       13.979      860.648
05/17/2014  03:30:00      -74.648      -23.008       -7.394       29.644       20.552       15.361      878.788      422.388      235.950        0.385        0.077       78.113       15.170        0.038      340.181       14.023      860.651
05/17/2014  03:31:00      -68.861      -21.553       -7.300       19.213       17.994       14.843      369.144      323.774      220.329        0.309        0.046       72.155       12.034        0.028      340.253       14.146      860.644
05/17/2014  03:32:00      -70.220      -29.058      -11.438       20.409       21.697       15.450      416.533      470.766      238.710        0.352        0.056       75.995        8.008        0.011      340.219       14.088      860.648
05/17/2014  03:33:00      -74.029      -48.861       -3.259       30.656       27.027       19.292      939.813      730.450      372.184        0.496        0.102       88.700       13.382        0.023      340.132       13.941      860.652
05/17/2014  03:34:00     -102.895      -78.517      -16.404       34.044       21.932       17.211     1159.024      481.032      296.233        0.948        0.097      129.430       11.868        0.008      340.090       13.870      860.669
05/17/2014  03:35:00     -147.910      -65.150      -12.908       22.585       32.122       21.072      510.095     1031.791      444.020        1.414        0.099      161.622       12.370        0.006      339.985       13.694      860.676
05/17/2014  03:36:00     -126.838      -67.625      -13.611       41.667       40.591       23.951     1736.131     1647.623      573.639        1.240        0.198      143.739       18.794        0.017      339.989       13.701      860.674
05/17/2014  03:37:00     -116.502      -46.982      -11.706       24.725       24.619       15.540      611.348      606.103      241.488        0.869        0.073      125.619       10.610        0.007      340.026       13.761      860.666
05/17/2014  03:38:00      -81.548      -18.674       -5.834       26.730       20.625       15.985      714.496      425.393      255.512        0.421        0.070       83.659       12.484        0.022      340.117       13.916      860.652
05/17/2014  03:39:00      -24.360      -25.683        5.111       18.780       21.506       16.648      352.700      462.508      277.165        0.119        0.055       35.398       14.115        0.159      340.110       13.903      860.639
05/17/2014  03:40:00      -34.255      -18.781       -2.517       22.351       25.300       10.688      499.556      640.107      114.225        0.139        0.063       39.066        8.722        0.050      340.219       14.089      860.631
05/17/2014  03:41:00      -81.996      -37.335       -9.891       24.720       29.723       15.522      611.066      883.465      240.924        0.497        0.087       90.096       10.470        0.014      340.164       13.997      860.641
05/17/2014  03:42:00     -115.078      -48.058      -11.756       37.517       26.527       18.785     1407.493      703.707      352.861        0.908        0.123      124.709       17.032        0.019      340.099       13.885      860.649
05/17/2014  03:43:00     -186.096        7.805      -19.691       70.542       50.352       28.213     4976.199     2535.299      795.961        2.169        0.415      186.260       33.518        0.032      340.089       13.867      860.660
05/17/2014  03:44:00      -88.243      -15.010        9.728       76.847       52.709       26.898     5905.473     2778.202      723.513        0.876        0.470       89.511       29.465        0.108      340.008       13.732      860.660
05/17/2014  03:45:00     -116.189       24.639       -8.487       62.530       39.735       33.052     3909.960     1578.902     1092.407        1.038        0.329      118.772       31.040        0.068      340.159       13.986      860.659
05/17/2014  03:46:00     -175.060      -12.845      -15.537       48.233       42.134       26.021     2326.448     1775.306      677.115        1.791        0.239      175.530       19.263        0.012      340.124       13.927      860.657
05/17/2014  03:47:00     -119.339      -47.484       -5.608       50.394       33.158       22.968     2539.604     1099.434      527.546        1.035        0.208      128.438       20.588        0.026      339.985       13.695      860.660
05/17/2014  03:48:00     -126.237      -26.206      -15.694       30.239       45.060       20.869      914.371     2030.412      435.513        1.012        0.169      128.929       17.810        0.019      340.094       13.878      860.648
05/17/2014  03:49:00     -100.644      -15.767       -7.047       29.575       33.102       24.707      874.657     1095.771      610.437        0.650        0.129      101.872       16.825        0.027      340.227       14.102      860.651
05/17/2014  03:50:00     -124.550       -3.625      -10.937       44.479       45.902       21.895     1978.419     2106.991      479.408        1.010        0.228      124.603       16.852        0.018      340.275       14.183      860.659
05/17/2014  03:51:00     -123.950      -21.413      -12.321       34.225       47.826       24.363     1171.329     2287.356      593.546        1.001        0.203      125.786       22.173        0.031      340.227       14.101      860.671
05/17/2014  03:52:00     -105.390        3.610       -6.311       48.246       34.445       27.330     2327.685     1186.445      746.934        0.771        0.213      105.451       23.714        0.051      340.219       14.089      860.687
05/17/2014  03:53:00      -47.493      -29.972       -1.424       29.805       36.257       24.741      888.320     1314.552      612.125        0.298        0.141       56.160       21.050        0.140      340.109       13.902      860.682
05/17/2014  03:54:00      -85.018      -48.808       -6.027       28.069       32.085       24.042      787.893     1029.453      578.029        0.602        0.120       98.032       17.317        0.031      340.080       13.855      860.675
05/17/2014  03:55:00      -76.288      -48.853       -1.283       41.190       29.734       23.294     1696.582      884.095      542.601        0.567        0.156       90.590       14.894        0.027      340.038       13.783      860.668
05/17/2014  03:56:00      -89.528      -38.855      -10.025       48.697       22.579       22.997     2371.434      509.811      528.860        0.652        0.171       97.596       21.785        0.050      340.045       13.795      860.658
05/17/2014  03:57:00     -122.247      -41.792      -13.121       55.298       35.121       28.569     3057.821     1233.504      816.200        1.098        0.255      129.193       33.279        0.066      339.995       13.712      860.659
05/17/2014  03:58:00     -123.852      -34.588      -16.237       44.772       26.785       17.485     2004.510      717.454      305.732        0.991        0.151      128.591       20.116        0.024      339.996       13.713      860.648
05/17/2014  03:59:00     -116.906      -11.287       -9.309       33.325       40.033       23.326     1110.556     1602.656      544.107        0.857        0.163      117.449       19.533        0.028      340.148       13.970      860.628
05/17/2014  04:00:00      -94.358       12.783      -10.058       46.569       34.037       24.874     2168.687     1158.542      618.727        0.656        0.197       95.220       21.191        0.050      340.132       13.942      860.603
05/17/2014  04:01:00     -130.676        0.159      -18.334       48.221       20.282       23.930     2325.239      411.349      572.646        1.036        0.165      130.676       25.830        0.039      340.015       13.744      860.577
05/17/2014  04:02:00      -70.536      -23.916       -3.647       39.365       28.176       19.354     1549.593      793.893      374.584        0.414        0.136       74.480       21.441        0.083      339.988       13.698      860.570
05/17/2014  04:03:00      -65.556      -36.548       -5.929       35.487       25.799       15.018     1259.295      665.595      225.555        0.391        0.108       75.056        9.505        0.016      339.916       13.578      860.570
05/17/2014  04:04:00      -73.976      -40.128       -1.759       33.477       34.541       17.473     1120.726     1193.079      305.313        0.485        0.131       84.159       14.823        0.031      339.974       13.675      860.566
05/17/2014  04:05:00      -95.219      -51.980       -4.160       23.367       31.911       20.109      546.008     1018.297      404.378        0.688        0.098      108.483       14.342        0.017      339.970       13.669      860.543
05/17/2014  04:06:00      -42.150      -58.113       11.616       54.812       32.206       27.314     3004.335     1037.225      746.039        0.504        0.239       71.790       29.553        0.169      340.005       13.727      860.531
05/17/2014  04:07:00      -81.827     -113.358        4.733       54.671       52.499       32.615     2988.939     2756.101     1063.728        1.319        0.340      139.806       35.129        0.063      340.034       13.775      860.516
05/17/2014  04:08:00      -38.807      -65.475       13.501       47.041       41.147       29.869     2212.844     1693.057      892.152        0.539        0.240       76.111       24.078        0.100      339.939       13.617      860.512
05/17/2014  04:09:00      -77.478      -94.770       -0.104       64.631       54.671       30.010     4177.210     2988.888      900.608        1.152        0.403      122.410       31.751        0.067      339.921       13.584      860.518
05/17/2014  04:10:00      -53.757      -78.557       -3.567       58.617       40.355       23.454     3435.919     1628.543      550.071        0.734        0.281       95.189       22.202        0.054      339.929       13.599      860.510
05/17/2014  04:11:00      -51.849      -26.044        5.786       52.362       35.216       27.805     2741.772     1240.180      773.122        0.408        0.238       58.023       10.841        0.035      339.868       13.497      860.487
05/17/2014  04:12:00      -81.713      -46.890       -5.372       30.505       23.370       17.894      930.531      546.176      320.189        0.535        0.090       94.211       13.639        0.021      339.964       13.659      860.465
05/17/2014  04:13:00      -84.900      -22.700       -4.781       21.687       21.423       12.447      470.319      458.929      154.939        0.441        0.054       87.882        6.574        0.006      339.995       13.711      860.438
05/17/2014  04:14:00      -87.558      -10.711       -9.250       31.887       22.984       16.593     1016.760      528.242      275.325        0.484        0.091       88.210       17.039        0.037      340.099       13.886      860.427
05/17/2014  04:15:00     -131.531      -14.077      -13.049       35.779       32.324       23.181     1280.163     1044.866      537.360        1.027        0.143      132.282       23.453        0.031      339.995       13.712      860.456
05/17/2014  04:16:00     -142.249      -80.036      -12.917       27.096       31.930       17.922      734.203     1019.515      321.194        1.444        0.104      163.219       14.983        0.008      339.737       13.275      860.483
05/17/2014  04:17:00      -81.792      -54.149        2.984       63.816       37.194       25.659     4072.541     1383.406      658.379        0.787        0.306       98.092       26.144        0.071      339.736       13.273      860.500
05/17/2014  04:18:00     -113.052      -90.672       -2.248       47.862       38.520       27.229     2290.809     1483.772      741.410        1.276        0.226      144.921       30.679        0.045      339.762       13.319      860.491
05/17/2014  04:19:00     -112.710      -61.337        5.832       32.087       29.265       23.833     1029.563      856.441      568.006        0.948        0.123      128.319       19.261        0.023      339.788       13.361      860.470
05/17/2014  04:20:00     -110.738      -56.017        1.994       37.742       33.360       23.894     1424.424     1112.876      570.937        0.926        0.155      124.100       22.197        0.032      339.849       13.463      860.475
05/17/2014  04:21:00      -91.560      -52.474        8.210       48.859       27.157       22.637     2387.209      737.522      512.445        0.742        0.182      105.531       21.333        0.041      339.853       13.472      860.476
05/17/2014  04:22:00      -64.738      -40.287        5.233       47.685       30.967       18.273     2273.887      958.978      333.886        0.470        0.178       76.250       20.636        0.073      339.842       13.452      860.479
05/17/2014  04:23:00      -42.147      -36.478        6.619       42.673       26.296       16.951     1820.964      691.456      287.344        0.297        0.140       55.741       22.467        0.162      339.893       13.539      860.477
05/17/2014  04:24:00      -24.935      -33.831        6.972       30.997       25.427       15.050      960.823      646.551      226.501        0.182        0.092       42.028       13.744        0.107      339.988       13.698      860.481
05/17/2014  04:25:00      -19.714      -41.044       -3.531       21.295       23.402       18.749      453.491      547.669      351.537        0.172        0.068       45.533        8.978        0.039      340.006       13.729      860.483
05/17/2014  04:26:00      -82.946      -57.326        1.611       27.679       27.749       19.964      766.102      769.981      398.559        0.605        0.097      100.828       14.814        0.022      340.063       13.825      860.499
05/17/2014  04:27:00     -114.116      -70.771        6.199       52.173       33.113       23.744     2722.022     1096.475      563.774        1.123        0.219      134.280       22.014        0.027      339.978       13.683      860.509
05/17/2014  04:28:00     -174.859     -103.048      -10.139       34.077       40.696       23.629     1161.226     1656.158      558.330        2.234        0.169      202.965       16.662        0.007      339.849       13.462      860.516
05/17/2014  04:29:00     -141.601      -66.921       -6.474       29.438       36.255       19.181      866.571     1314.440      367.909        1.356        0.127      156.618       17.453        0.012      339.742       13.284      860.520
05/17/2014  04:30:00     -147.263      -49.716       -5.503       34.163       30.486       18.495     1167.090      929.415      342.059        1.331        0.122      155.429       19.826        0.016      339.748       13.296      860.518
05/17/2014  04:31:00     -131.955      -37.234      -11.730       21.369       32.232       15.825      456.616     1038.914      250.432        1.034        0.087      137.107       11.060        0.007      339.736       13.274      860.512
05/17/2014  04:32:00     -123.107      -36.381       -9.199       25.735       23.685       14.410      662.271      560.960      207.634        0.900        0.072      128.370       11.397        0.008      339.742       13.283      860.503
05/17/2014  04:33:00     -117.298      -47.746       -7.092       28.533       26.984       13.744      814.123      728.157      188.896        0.891        0.087      126.643       11.618        0.008      339.819       13.414      860.490
05/17/2014  04:34:00      -60.609      -42.143        1.920       36.804       30.996       20.959     1354.560      960.747      439.279        0.410        0.138       73.820       19.147        0.067      339.778       13.344      860.468
05/17/2014  04:35:00      -87.196      -50.295        2.581       36.679       25.895       20.771     1345.361      670.563      431.427        0.629        0.122      100.662       16.223        0.026      339.761       13.316      860.447
05/17/2014  04:36:00     -115.868      -57.728       -5.597       40.077       30.257       18.945     1606.135      915.469      358.921        0.983        0.144      129.452       20.646        0.025      339.680       13.181      860.442
05/17/2014  04:37:00      -91.739       -5.833       -6.582       37.373       29.996       14.144     1396.756      899.763      200.040        0.549        0.125       91.924       12.768        0.019      339.730       13.264      860.436
05/17/2014  04:38:00      -85.611       -3.700       -7.484       34.039       27.861       20.277     1158.631      776.223      411.177        0.487        0.117       85.691       15.402        0.032      339.663       13.151      860.425
05/17/2014  04:39:00      -74.064        7.749       -7.496       35.886       21.900       15.244     1287.807      479.608      232.373        0.380        0.100       74.468       13.590        0.033      339.643       13.118      860.419
05/17/2014  04:40:00      -81.844      -13.064      -12.867       19.296       27.511       13.301      372.332      756.863      176.914        0.417        0.065       82.880        7.049        0.007      339.745       13.290      860.416
05/17/2014  04:41:00      -75.446      -33.898       -7.160       27.601       16.159       15.094      761.797      261.116      227.831        0.407        0.063       82.712        7.388        0.008      339.731       13.265      860.411
05/17/2014  04:42:00      -32.796      -15.237       -0.283       21.633       21.437       10.843      468.003      459.545      117.574        0.118        0.052       36.162       11.279        0.097      339.670       13.163      860.415
05/17/2014  04:43:00      -14.577      -22.974       -5.049       23.789       13.160        9.564      565.923      173.194       91.472        0.080        0.042       27.208        6.792        0.062      339.739       13.281      860.417
05/17/2014  04:44:00       20.814       -1.088        3.494       12.608       12.367        9.712      158.951      152.933       94.320        0.043        0.020       20.842        2.531        0.015      339.608       13.060      860.419
05/17/2014  04:45:00       37.221       20.168       -2.451       10.145       16.160       10.540      102.926      261.140      111.102        0.114        0.024       42.334        5.565        0.017      339.505       12.885      860.425
05/17/2014  04:46:00        7.953       31.441       -6.716       17.709       11.042        6.738      313.606      121.933       45.405        0.079        0.024       32.431        5.296        0.027      339.539       12.941      860.422
05/17/2014  04:47:00      -59.552      -20.395      -14.324       15.002       20.659       10.264      225.075      426.799      105.356        0.246        0.038       62.948        7.746        0.015      339.726       13.258      860.409
05/17/2014  04:48:00      -66.568      -20.625        0.587       20.537       21.530       11.771      421.762      463.534      138.566        0.294        0.051       69.690       12.054        0.030      339.599       13.044      860.397
05/17/2014  04:49:00      -75.668       -8.488      -12.466       13.515       13.822        8.540      182.654      191.061       72.932        0.320        0.022       76.142        4.209        0.003      339.598       13.041      860.402
05/17/2014  04:50:00      -82.962      -13.144      -15.075       17.704       14.051       10.396      313.444      197.432      108.073        0.395        0.031       83.997        8.714        0.011      339.531       12.928      860.397
05/17/2014  04:51:00      -74.830       -7.999       -9.373       25.730       16.072       11.760      662.034      258.299      138.290        0.340        0.053       75.256        6.882        0.008      339.445       12.782      860.390
05/17/2014  04:52:00      -50.228      -15.578       -5.880       15.519       11.090       12.106      240.841      122.983      146.565        0.166        0.026       52.588       11.018        0.044      339.465       12.817      860.405
05/17/2014  04:53:00      -59.648      -35.682      -10.289       27.742       19.358        9.870      769.612      374.745       97.426        0.309        0.062       69.506        5.913        0.007      339.417       12.736      860.445
05/17/2014  04:54:00      -89.067      -46.730       -7.644       17.556       17.286       13.240      308.231      298.804      175.306        0.548        0.039      100.581        7.335        0.005      339.320       12.572      860.467
05/17/2014  04:55:00      -74.412      -38.637      -11.093       28.860       22.747       18.554      832.892      517.405      344.268        0.442        0.085       83.845       13.733        0.027      339.356       12.633      860.473
05/17/2014  04:56:00      -28.987      -31.882        3.047       42.958       25.971       24.767     1845.377      674.488      613.412        0.250        0.157       43.090       19.627        0.207      339.365       12.648      860.487
05/17/2014  04:57:00      -58.121      -63.686        4.759       37.144       29.327       23.353     1379.660      860.076      545.342        0.512        0.139       86.221       22.393        0.067      339.366       12.650      860.498
05/17/2014  04:58:00      -84.436      -36.725       -5.359       20.681       25.323       14.242      427.696      641.275      202.836        0.489        0.064       92.077       13.229        0.021      339.491       12.861      860.485
05/17/2014  04:59:00      -66.566      -24.747      -15.304       13.130       12.489        7.844      172.407      155.967       61.527        0.283        0.019       71.017        3.003        0.002      339.657       13.139      860.460
05/17/2014  05:00:00      -58.020      -15.309       -6.958       12.986       13.791       11.823      168.646      190.188      139.782        0.207        0.025       60.006        8.980        0.022      339.633       13.100      860.452
05/17/2014  05:01:00      -98.680      -39.756       -6.996       20.452       13.797        9.147      418.282      190.363       83.669        0.603        0.035      106.388        7.753        0.005      339.584       13.020      860.461
05/17/2014  05:02:00     -132.856      -53.272       -4.661       12.412       13.144       10.018      154.047      172.762      100.352        1.047        0.021      143.138        7.877        0.003      339.525       12.917      860.485
05/17/2014  05:03:00     -126.037      -33.536       -9.088       27.589       24.644       17.050      761.157      607.312      290.718        0.938        0.083      130.423       15.624        0.014      339.451       12.791      860.494
05/17/2014  05:04:00     -133.732      -32.665      -10.755       23.167       21.034       18.108      536.688      442.423      327.902        1.019        0.065      137.663       13.832        0.010      339.472       12.828      860.485
05/17/2014  05:05:00     -130.384      -10.956      -19.085       24.399       17.330       15.898      595.292      300.316      252.754        0.932        0.057      130.843       13.625        0.011      339.454       12.798      860.476
05/17/2014  05:06:00     -137.393       -7.406      -18.790       39.298       30.979       21.134     1544.339      959.683      446.663        1.112        0.148      137.593       19.304        0.020      339.300       12.539      860.475
05/17/2014  05:07:00     -111.231      -18.082       -2.980       60.769       30.008       21.842     3692.882      900.467      477.065        0.889        0.254      112.691       27.987        0.062      339.194       12.361      860.476
05/17/2014  05:08:00      -93.615      -35.913       -2.575       43.175       34.842       22.777     1864.058     1213.964      518.795        0.683        0.180      100.267       19.090        0.036      339.211       12.389      860.482
05/17/2014  05:09:00      -85.073      -40.257       -6.788       41.771       25.867       25.869     1744.809      669.124      669.182        0.599        0.154       94.117       13.504        0.021      339.292       12.525      860.504
05/17/2014  05:10:00     -130.384      -67.438       -9.095       41.717       27.802       17.308     1740.281      772.965      299.581        1.222        0.141      146.792       18.222        0.015      339.300       12.538      860.525
05/17/2014  05:11:00     -125.346      -45.487       -5.629       42.439       24.317       17.909     1801.108      591.326      320.729        1.026        0.136      133.344       20.446        0.024      339.322       12.575      860.526
05/17/2014  05:12:00      -87.236      -41.651        3.337       28.544       34.353       19.260      814.782     1180.136      370.961        0.586        0.118       96.669       15.109        0.024      339.322       12.576      860.518
05/17/2014  05:13:00      -49.976      -48.691        0.524       28.414       21.869       16.576      807.379      478.238      274.752        0.321        0.078       69.774       12.540        0.032      339.356       12.635      860.521
05/17/2014  05:14:00      -52.668      -31.182       -1.094       37.439       17.997       12.982     1401.685      323.894      168.526        0.282        0.095       61.206       13.458        0.048      339.392       12.694      860.516
05/17/2014  05:15:00      -91.086      -40.964       -1.639       29.519       19.142       12.981      871.357      366.434      168.518        0.569        0.070       99.874       11.299        0.013      339.420       12.740      860.512
05/17/2014  05:16:00      -96.542       -3.349      -10.151       21.544       21.180        9.647      464.160      448.577       93.061        0.522        0.050       96.600        5.414        0.003      339.375       12.665      860.498
05/17/2014  05:17:00      -65.897       37.262      -11.026       15.761       38.522       11.822      248.399     1483.920      139.752        0.386        0.094       75.703        7.196        0.009      339.368       12.653      860.484
05/17/2014  05:18:00      -90.905       39.373      -10.835       24.435       22.906       17.974      597.084      524.687      323.066        0.569        0.072       99.065       11.051        0.012      339.296       12.533      860.471
05/17/2014  05:19:00      -44.341        1.829       -4.128       19.862       15.857        8.614      394.480      251.456       74.193        0.135        0.036       44.378        6.311        0.020      339.343       12.611      860.472
05/17/2014  05:20:00      -97.488      -14.575      -12.812       30.201       21.304       14.642      912.116      453.861      214.377        0.573        0.079       98.571       14.288        0.021      339.197       12.365      860.499
05/17/2014  05:21:00     -158.987        0.238      -21.556       28.735       22.432       17.461      825.689      503.205      304.898        1.369        0.082      158.987       10.224        0.004      339.200       12.370      860.505
05/17/2014  05:22:00     -111.623      -15.700      -12.652       35.722       25.944       19.449     1276.096      673.075      378.274        0.760        0.116      112.721       17.247        0.023      339.148       12.283      860.499
05/17/2014  05:23:00      -48.487       -8.460       -5.595       33.106       31.283       16.540     1095.979      978.642      273.576        0.240        0.117       49.219       15.198        0.095      339.222       12.407      860.496
05/17/2014  05:24:00       -7.223      -29.688       -2.559       24.552       14.648       12.176      602.797      214.564      148.255        0.095        0.048       30.554       11.846        0.150      339.361       12.642      860.484
05/17/2014  05:25:00       47.499      -21.842       -3.697       16.031       16.162       14.026      257.007      261.196      196.741        0.173        0.036       52.280       10.772        0.042      339.122       12.238      860.464
05/17/2014  05:26:00       34.522      -36.560       -1.820       21.724       32.197       14.555      471.947     1036.644      211.863        0.213        0.086       50.283       19.584        0.152      339.148       12.282      860.457
05/17/2014  05:27:00        0.624      -40.292       -6.043       43.056       20.074       10.778     1853.795      402.949      116.169        0.202        0.119       40.297       16.865        0.175      339.500       12.875      860.471
05/17/2014  05:28:00     -125.566      -44.692       -5.825       33.246       28.400       18.028     1105.316      806.556      324.995        1.002        0.112      133.283       12.681        0.009      339.310       12.556      860.483
05/17/2014  05:29:00     -121.723      -37.173      -10.362       28.498       27.539       23.240      812.122      758.382      540.109        0.921        0.106      127.273       19.474        0.023      339.236       12.430      860.493
05/17/2014  05:30:00     -101.022       -4.216      -12.840       34.301       16.357       15.687     1176.578      267.542      246.069        0.604        0.085      101.110       18.572        0.034      339.194       12.362      860.506
05/17/2014  05:31:00      -86.203        2.971      -14.087       32.950       28.730       20.122     1085.692      825.396      404.880        0.498        0.116       86.255       14.784        0.029      339.226       12.413      860.524
05/17/2014  05:32:00      -75.204       21.490       -6.026       25.613       17.656       17.806      656.016      311.720      317.056        0.372        0.064       78.214        9.885        0.016      339.322       12.575      860.527
05/17/2014  05:33:00      -50.514      -31.779       -7.538       21.295       28.047       17.095      453.467      786.639      292.232        0.258        0.077       59.678       19.137        0.103      339.434       12.766      860.525
05/17/2014  05:34:00      -29.297      -36.250       -8.092       22.403       25.892       17.471      501.917      670.418      305.224        0.186        0.074       46.609       16.991        0.133      339.450       12.792      860.539
05/17/2014  05:35:00      -80.786      -40.429       -2.758       28.048       14.199       15.053      786.680      201.605      226.599        0.469        0.061       90.337        5.661        0.004      339.414       12.732      860.555
05/17/2014  05:36:00     -108.092      -50.874        2.420       32.709       22.436       17.025     1069.888      503.394      289.851        0.807        0.093      119.466       17.716        0.022      339.377       12.669      860.589
05/17/2014  05:37:00     -116.377      -65.545       -0.531       45.695       31.708       20.010     2088.002     1005.403      400.418        1.067        0.175      133.565       22.128        0.027      339.398       12.703      860.620
05/17/2014  05:38:00      -83.857      -72.489        3.467       55.919       44.408       26.627     3126.881     1972.079      708.984        0.905        0.290      110.845       23.631        0.045      339.364       12.648      860.649
05/17/2014  05:39:00     -103.982      -75.680        7.018       51.828       38.353       23.227     2686.157     1470.947      539.514        1.064        0.235      128.607       27.507        0.046      339.344       12.613      860.670
05/17/2014  05:40:00     -159.298     -102.586       -6.215       32.006       26.980       21.857     1024.401      727.936      477.735        1.908        0.112      189.473       13.325        0.005      339.297       12.532      860.665
05/17/2014  05:41:00     -123.335      -32.823      -17.371       23.131       31.729       14.180      535.059     1006.707      201.066        0.917        0.087      127.627        7.293        0.003      339.301       12.539      860.656
05/17/2014  05:42:00      -82.597        1.537       -4.978       33.906       21.761       23.938     1149.641      473.522      573.034        0.452        0.110       82.611       22.329        0.073      339.336       12.600      860.646
05/17/2014  05:43:00     -111.327      -23.853      -18.049       11.866       12.026        7.109      140.807      144.629       50.538        0.681        0.017      113.854        5.174        0.002      339.233       12.426      860.655
05/17/2014  05:44:00     -100.185      -43.977       -4.397       21.689       32.857       15.922      470.420     1079.567      253.515        0.690        0.090      109.412       12.540        0.013      339.291       12.523      860.675
05/17/2014  05:45:00     -111.810      -66.613       -1.695       40.404       24.485       22.079     1632.514      599.540      487.470        0.983        0.136      130.150        9.390        0.005      339.323       12.578      860.694
05/17/2014  05:46:00      -86.024      -54.527        3.562       48.128       34.562       19.290     2316.305     1194.551      372.092        0.713        0.194      101.850       22.533        0.049      339.309       12.553      860.708
05/17/2014  05:47:00      -72.913      -28.474        3.406       40.444       36.112       22.510     1635.694     1304.043      506.719        0.479        0.172       78.275       23.803        0.092      339.324       12.579      860.717
05/17/2014  05:48:00      -35.816      -52.290        0.218       26.729       32.518       15.389      714.414     1057.416      236.822        0.301        0.100       63.380       16.619        0.069      339.440       12.774      860.713
05/17/2014  05:49:00      -28.849      -78.100       -8.512       37.527       42.159       15.945     1408.268     1777.377      254.228        0.522        0.172       83.258       16.325        0.038      339.507       12.888      860.719
05/17/2014  05:50:00      -25.128      -69.775        7.833       41.520       42.274       34.470     1723.889     1787.077     1188.191        0.513        0.235       74.161       29.280        0.156      339.403       12.712      860.709
05/17/2014  05:51:00      -67.721      -80.906        1.812       41.673       37.499       26.311     1736.636     1406.148      692.247        0.748        0.192      105.508       18.253        0.030      339.280       12.504      860.681
05/17/2014  05:52:00      -94.192      -42.650       -3.905       31.472       36.094       18.018      990.468     1302.748      324.657        0.666        0.131      103.398       10.558        0.010      339.154       12.291      860.653
05/17/2014  05:53:00      -72.473      -35.166       -0.911       24.992       14.924       12.109      624.595      222.724      146.635        0.374        0.050       80.554        5.666        0.005      339.171       12.323      860.641
05/17/2014  05:54:00      -75.543      -48.727       -8.049       18.245       17.005       12.406      332.881      289.154      153.919        0.446        0.039       89.895        9.458        0.011      339.254       12.462      860.639
05/17/2014  05:55:00      -89.237      -34.723       -9.454       14.194       18.337       12.579      201.470      336.256      158.229        0.498        0.035       95.754       12.358        0.017      339.266       12.478      860.636
05/17/2014  05:56:00      -93.956      -45.334      -10.891       11.333       15.545       10.437      128.443      241.646      108.930        0.574        0.024      104.321        7.440        0.005      339.316       12.565      860.649
05/17/2014  05:57:00      -91.284      -52.788       -4.284       30.770       21.921       15.848      946.806      480.538      251.159        0.641        0.084      105.448       14.176        0.018      339.355       12.630      860.649
05/17/2014  05:58:00     -112.565      -67.063       -3.528       46.120       34.336       23.661     2127.063     1178.943      559.865        1.052        0.193      131.028       14.399        0.012      339.301       12.540      860.640
05/17/2014  05:59:00     -139.099      -59.215       -2.774       30.769       33.260       21.481      946.710     1106.230      461.438        1.269        0.126      151.179       14.820        0.010      339.296       12.532      860.634
05/17/2014  06:00:00     -125.367      -53.578       -8.505       41.414       31.945       30.671     1715.153     1020.511      940.733        1.117        0.184      136.336       30.507        0.050      339.272       12.491      860.598
05/17/2014  06:01:00     -105.874      -16.887       -8.811       20.890       15.956       11.821      436.400      254.600      139.746        0.620        0.042      107.212        8.732        0.007      339.234       12.428      860.559
05/17/2014  06:02:00      -72.618      -17.942      -10.791       27.649       18.386       10.967      764.450      338.040      120.279        0.347        0.061       74.802        9.556        0.016      339.312       12.558      860.550
05/17/2014  06:03:00     -100.315        7.020      -15.564       17.311       16.583       11.456      299.657      274.999      131.247        0.553        0.035      100.560        8.565        0.007      339.206       12.381      860.545
05/17/2014  06:04:00      -94.000      -15.217      -10.566       18.117       21.712       12.074      328.220      471.401      145.774        0.506        0.047       95.224       11.227        0.014      339.179       12.335      860.549
05/17/2014  06:05:00      -87.339      -37.682       -6.284       27.920       17.564       14.009      779.544      308.488      196.256        0.519        0.064       95.121       13.119        0.019      339.209       12.386      860.556
05/17/2014  06:06:00      -21.039      -20.806       10.055       35.861       32.013       23.718     1286.036     1024.838      562.545        0.192        0.144       29.590       24.701        0.697      339.284       12.512      860.585
05/17/2014  06:07:00      -58.288      -53.517       -0.203       24.883       20.210       17.974      619.170      408.425      323.047        0.381        0.068       79.130       16.858        0.045      339.271       12.491      860.590
05/17/2014  06:08:00      -61.452      -18.213       -2.566       13.351       20.376       10.060      178.248      415.166      101.199        0.240        0.035       64.095        7.653        0.014      339.285       12.515      860.570
05/17/2014  06:09:00      -54.398        1.820       -9.993       10.793       10.242        8.637      116.488      104.888       74.605        0.168        0.015       54.428        3.802        0.005      339.310       12.554      860.559
05/17/2014  06:10:00      -33.554      -18.436       -9.812       19.442       20.112       10.988      377.981      404.512      120.742        0.123        0.045       38.285        8.993        0.055      339.397       12.703      860.550
05/17/2014  06:11:00      -43.345      -18.635       -4.196       29.436       11.119        9.391      866.450      123.623       88.189        0.166        0.054       47.180        6.832        0.021      339.390       12.690      860.538
05/17/2014  06:12:00      -50.593      -18.382       -3.653       12.320       12.297        9.619      151.788      151.220       92.533        0.165        0.020       53.829        7.071        0.017      339.350       12.622      860.511
05/17/2014  06:13:00      -50.083        2.058       -2.066       17.225       20.372        9.584      296.700      415.005       91.861        0.166        0.040       50.126       10.204        0.041      339.364       12.647      860.472
05/17/2014  06:14:00      -62.540        8.962        0.308       19.996       14.593        8.102      399.848      212.960       65.638        0.233        0.034       63.179        8.651        0.019      339.404       12.715      860.462
05/17/2014  06:15:00      -10.616      -10.849        5.568       16.046        7.058        8.889      257.483       49.811       79.007        0.032        0.019       15.178        8.687        0.328      339.561       12.979      860.462
05/17/2014  06:16:00       -8.390      -50.530       -1.099       18.768       20.195       11.583      352.231      407.839      134.158        0.176        0.045       51.222        9.188        0.032      339.555       12.969      860.488
05/17/2014  06:17:00      -31.375      -44.576        5.682       39.489       39.747       22.362     1559.420     1579.849      500.041        0.332        0.182       54.511       23.140        0.180      339.649       13.127      860.523
05/17/2014  06:18:00      -54.161      -43.576        6.572       49.176       38.325       25.824     2418.233     1468.829      666.882        0.471        0.228       69.515       22.710        0.107      339.614       13.070      860.530
05/17/2014  06:19:00      -77.595      -50.285       -1.170       30.882       28.957       16.659      953.716      838.490      277.509        0.531        0.103       92.463       11.382        0.015      339.579       13.009      860.496
05/17/2014  06:20:00      -36.166       -8.976        4.336       24.505       20.161       14.601      600.502      406.455      213.190        0.131        0.061       37.263       13.245        0.126      339.621       13.079      860.440
05/17/2014  06:21:00      -30.665       -0.941        1.014       14.813        9.548       11.064      219.439       91.161      122.408        0.069        0.022       30.679        4.807        0.025      339.570       12.994      860.409
05/17/2014  06:22:00      -23.694       -7.650       -2.915       20.900        7.138        6.973      436.808       50.953       48.619        0.058        0.027       24.898        7.489        0.090      339.583       13.014      860.401
05/17/2014  06:23:00       -0.310      -15.311        1.377        6.124        7.565       10.760       37.509       57.230      115.785        0.022        0.011       15.314        6.799        0.197      339.755       13.307      860.392
05/17/2014  06:24:00        1.079       -0.447       10.076       12.184       14.442       14.469      148.439      208.584      209.360        0.033        0.028        1.168       12.521      114.858      339.733       13.270      860.384
05/17/2014  06:25:00        0.897       10.032       16.202        7.946        7.483        8.920       63.136       55.997       79.564        0.028        0.010       10.072        3.618        0.129      339.637       13.108      860.377
05/17/2014  06:26:00        5.799        4.777       10.625       17.039       10.876       12.118      290.330      118.284      146.838        0.036        0.028        7.513        8.927        1.412      339.619       13.077      860.374
05/17/2014  06:27:00       16.445        5.141        9.173       13.481        6.654       11.585      181.727       44.280      134.210        0.037        0.018       17.230        5.919        0.118      339.447       12.787      860.386
05/17/2014  06:28:00        2.356        4.933       22.133       14.386       11.933       11.070      206.948      142.402      122.554        0.050        0.024        5.466        8.235        2.270      339.608       13.058      860.392
05/17/2014  06:29:00        2.143       -1.668       16.471       21.270       11.854       11.940      452.431      140.515      142.574        0.051        0.037        2.715        8.344        9.444      339.491       12.862      860.392
05/17/2014  06:30:00      -16.853       -7.159        5.926       23.866       19.229       13.044      569.605      369.765      170.158        0.074        0.055       18.310       10.133        0.306      339.743       13.285      860.429
05/17/2014  06:31:00       15.264        2.977       -0.942       19.327       17.227       17.019      373.544      296.770      289.661        0.060        0.048       15.552       12.139        0.609      339.501       12.879      860.424
05/17/2014  06:32:00       31.576       34.835       33.173       20.310       18.857       19.595      412.511      355.575      383.959        0.223        0.058       47.016       12.360        0.069      339.189       12.352      860.427
05/17/2014  06:33:00        2.693       11.735       34.456       20.757       24.938       15.565      430.853      621.921      242.269        0.131        0.065       12.040       11.197        0.865      339.488       12.856      860.433
05/17/2014  06:34:00        2.908      -39.404       26.090       26.274       39.514       20.771      690.301     1561.386      431.421        0.246        0.134       39.511       11.884        0.090      339.764       13.321      860.449
05/17/2014  06:35:00      -19.680      -12.796        1.750       27.779       17.337        8.967      771.652      300.580       80.399        0.085        0.058       23.474        4.446        0.036      339.891       13.535      860.421
05/17/2014  06:36:00        9.013        7.248        4.651       12.893       15.676       12.941      166.242      245.741      167.459        0.037        0.029       11.566        7.388        0.408      339.998       13.716      860.385
05/17/2014  06:37:00      -13.096       -7.867        0.242       17.787       15.400       13.751      316.373      237.172      189.086        0.049        0.037       15.277       10.609        0.482      339.940       13.618      860.377
05/17/2014  06:38:00      -20.554        2.309        4.793       19.808       10.712       15.260      392.344      114.749      232.883        0.060        0.037       20.683       11.318        0.299      339.988       13.699      860.383
05/17/2014  06:39:00       22.255        0.776       -8.920       41.347       18.319       19.347     1709.578      335.571      374.322        0.150        0.121       22.268       17.130        0.592      339.543       12.948      860.368
05/17/2014  06:40:00       11.784       14.349       14.084       24.745       18.605       16.697      612.307      346.135      278.778        0.089        0.062       18.568       14.365        0.599      339.568       12.990      860.347
05/17/2014  06:41:00       10.398       11.110       38.946       19.571       15.582       11.891      383.035      242.814      141.392        0.126        0.038       15.217        7.599        0.249      339.560       12.977      860.332
05/17/2014  06:42:00        6.732       21.592       29.698       19.554       16.752       15.060      382.374      280.623      226.816        0.114        0.044       22.617        5.267        0.054      339.549       12.958      860.305
05/17/2014  06:43:00       30.286        1.361       25.772       30.532       25.667       26.261      932.227      658.817      689.622        0.193        0.114       30.317       20.773        0.469      339.570       12.994      860.282
05/17/2014  06:44:00       47.944       -3.681        6.470       17.654       17.644       14.057      311.663      311.323      197.587        0.159        0.041       48.086       11.984        0.062      339.647       13.125      860.275
05/17/2014  06:45:00      -35.417       14.523       -6.459       45.556       16.540       10.424     2075.360      273.556      108.658        0.198        0.123       38.279        5.112        0.018      339.833       13.438      860.312
05/17/2014  06:46:00     -101.448      -40.695       -8.573       32.582       33.649       19.015     1061.564     1132.256      361.587        0.729        0.128      109.305       12.691        0.013      339.893       13.540      860.360
05/17/2014  06:47:00     -118.610      -32.794       -0.098       43.490       32.206       20.331     1891.418     1037.237      413.340        0.924        0.167      123.060       21.517        0.031      339.867       13.494      860.369
05/17/2014  06:48:00      -30.591      -52.266        8.546       32.366       33.757       18.434     1047.554     1139.552      339.797        0.313        0.126       60.560       19.007        0.099      339.950       13.634      860.379
05/17/2014  06:49:00      -97.416      -40.617        1.060       51.055       37.839       20.182     2606.596     1431.774      407.294        0.779        0.222      105.545       25.728        0.059      339.846       13.461      860.351
05/17/2014  06:50:00      -64.563      -47.553       -1.150       23.028       21.769       15.234      530.292      473.890      232.062        0.383        0.062       80.186       12.285        0.023      339.841       13.450      860.327
05/17/2014  06:51:00       -2.345      -29.794       14.650       18.268       28.787       17.477      333.727      828.672      305.446        0.129        0.073       29.886       13.789        0.213      339.935       13.611      860.286
05/17/2014  06:52:00       -4.005       16.096       21.602       22.042       14.249       12.746      485.851      203.045      162.450        0.080        0.043       16.587       11.291        0.463      339.868       13.496      860.260
05/17/2014  06:53:00      -52.653       -3.764       -0.016       27.168       33.245       15.280      738.089     1105.213      233.463        0.243        0.104       52.787       12.083        0.052      339.855       13.475      860.278
05/17/2014  06:54:00     -170.877      -40.867       -8.304       52.310       50.236       29.284     2736.329     2523.672      857.540        1.853        0.306      175.695       21.764        0.015      339.780       13.346      860.289
05/17/2014  06:55:00     -222.314      -77.336        0.648       57.878       47.909       25.068     3349.855     2295.305      628.398        3.084        0.314      235.382       30.424        0.017      339.609       13.055      860.260
05/17/2014  06:56:00     -106.934       31.593      -12.737       40.368       34.432       26.607     1629.539     1185.558      707.934        0.806        0.176      111.503       22.257        0.040      339.627       13.089      860.212
05/17/2014  06:57:00      -56.841       38.237       -8.187       36.263       31.285       21.944     1314.997      978.722      481.544        0.377        0.139       68.505       25.887        0.143      339.786       13.358      860.204
05/17/2014  06:58:00       -5.126      -27.143       -2.511       11.111       34.255       14.882      123.446     1173.407      221.470        0.114        0.076       27.622       14.720        0.284      339.960       13.652      860.238
05/17/2014  06:59:00       -2.074      -46.867       -5.445       24.449       35.360       23.189      597.750     1250.351      537.716        0.231        0.119       46.912       22.699        0.234      339.876       13.511      860.295
05/17/2014  07:00:00      -60.636      -41.709        8.323       49.016       36.132       21.337     2402.611     1305.547      455.288        0.482        0.208       73.596       21.730        0.087      339.939       13.617      860.337
05/17/2014  07:01:00      -68.934      -59.851        4.945       48.138       37.150       28.915     2317.228     1380.099      836.054        0.645        0.227       91.291       23.996        0.069      339.923       13.588      860.332
05/17/2014  07:02:00      -79.843      -39.615        1.689       25.012       28.931       14.724      625.594      836.974      216.786        0.481        0.084       89.130       14.913        0.028      339.883       13.523      860.318
05/17/2014  07:03:00      -83.176      -43.039        5.282       43.252       41.024       25.494     1870.761     1682.952      649.968        0.650        0.210       93.651       25.436        0.074      339.929       13.600      860.321
05/17/2014  07:04:00      -78.400      -26.650        7.152       50.620       34.548       25.191     2562.415     1193.552      634.611        0.565        0.220       82.806       23.936        0.084      339.907       13.563      860.323
05/17/2014  07:05:00      -65.741       13.514        1.836       40.066       33.819       24.637     1605.274     1143.729      606.984        0.393        0.168       67.116       20.757        0.096      339.783       13.353      860.335
05/17/2014  07:06:00      -59.359       48.754       -0.170       31.594       23.557       20.792      998.172      554.955      432.322        0.394        0.099       76.814       17.146        0.050      339.765       13.324      860.322
05/17/2014  07:07:00      -11.731       92.672       -7.753       35.888       44.173       17.505     1287.950     1951.269      306.437        0.617        0.177       93.412       20.747        0.049      339.950       13.634      860.268
05/17/2014  07:08:00      -44.561       80.036       -2.179       25.897       39.502       20.040      670.678     1560.409      401.614        0.551        0.132       91.604       21.358        0.054      339.965       13.661      860.254
05/17/2014  07:09:00      -77.893       64.952      -15.276       33.545       37.176       20.792     1125.247     1382.026      432.293        0.673        0.147      101.421       13.298        0.017      339.907       13.561      860.282
05/17/2014  07:10:00     -121.440       -6.717      -18.068       32.364       34.262       18.100     1047.428     1173.852      327.609        0.883        0.127      121.626       14.631        0.014      339.908       13.564      860.322
05/17/2014  07:11:00     -133.307       18.319      -13.837       36.206       33.983       16.445     1310.885     1154.878      270.441        1.052        0.137      134.559       13.319        0.010      339.861       13.485      860.328
05/17/2014  07:12:00      -67.278       36.100       -1.387       44.965       31.269       25.556     2021.846      977.738      653.117        0.474        0.183       76.351       25.735        0.114      339.918       13.580      860.301
05/17/2014  07:13:00      -62.985       80.720      -13.215       28.047       34.885       15.375      786.618     1216.994      236.390        0.645        0.112      102.386       12.107        0.014      340.066       13.831      860.267
05/17/2014  07:14:00      -81.108       98.767      -14.897       31.296       31.180       21.878      979.461      972.218      478.664        0.949        0.122      127.803       15.243        0.014      340.067       13.832      860.244
05/17/2014  07:15:00      -87.043       95.378      -18.551       31.824       42.339       26.250     1012.784     1792.594      689.082        1.026        0.175      129.126       21.352        0.027      340.104       13.894      860.238
05/17/2014  07:16:00      -72.463      108.447      -11.838       31.104       53.105       26.692      967.436     2820.150      712.473        1.082        0.225      130.428       15.105        0.013      340.181       14.025      860.258
05/17/2014  07:17:00      -58.265       86.875      -13.793       38.485       40.430       17.280     1481.102     1634.608      298.615        0.727        0.171      104.605       11.884        0.013      340.262       14.161      860.268
05/17/2014  07:18:00      -61.224       82.751      -14.506       29.380       40.491       20.826      863.162     1639.516      433.723        0.687        0.147      102.937       17.407        0.029      340.281       14.194      860.254
05/17/2014  07:19:00      -60.185       94.372      -11.735       31.787       29.591       23.912     1010.406      875.655      571.804        0.756        0.123      111.930       14.756        0.017      340.309       14.240      860.218
05/17/2014  07:20:00      -22.718       66.339        3.410       25.998       31.883       20.192      675.871     1016.550      407.725        0.351        0.105       70.121       19.025        0.074      340.414       14.418      860.165
05/17/2014  07:21:00      -11.393      154.332      -19.169       16.362       28.822       12.216      267.719      830.731      149.233        1.278        0.062      154.752       12.952        0.007      340.446       14.473      860.116
05/17/2014  07:22:00      -39.815      109.006      -16.899       27.847       24.964       18.955      775.463      623.186      359.308        0.776        0.088      116.050       12.209        0.011      340.523       14.603      860.105
05/17/2014  07:23:00      -60.327       31.209       -3.969       38.153       34.979       19.002     1455.667     1223.497      361.081        0.383        0.152       67.922       17.286        0.065      340.545       14.640      860.130
05/17/2014  07:24:00     -114.895      -54.007      -15.064       38.318       40.311       22.357     1468.304     1624.943      499.856        0.997        0.180      126.955        8.741        0.005      340.379       14.360      860.167
05/17/2014  07:25:00     -161.139      -79.414       -9.923       35.370       32.071       21.964     1251.013     1028.545      482.437        1.757        0.138      179.645       12.729        0.005      340.421       14.429      860.187
05/17/2014  07:26:00     -184.569      -56.051       -9.328       73.504       55.191       36.632     5402.868     3046.022     1341.883        2.354        0.490      192.892       34.333        0.032      340.358       14.321      860.186
05/17/2014  07:27:00     -189.305      -20.768       -9.477       52.337       50.230       35.023     2739.161     2523.084     1226.605        2.142        0.324      190.441       32.268        0.029      340.325       14.265      860.182
05/17/2014  07:28:00     -170.518       -8.388      -17.781       28.110       47.861       21.244      790.154     2290.675      451.316        1.650        0.177      170.724       17.938        0.011      340.359       14.325      860.151
05/17/2014  07:29:00      -83.887       12.046       -7.673       57.005       41.894       19.545     3249.603     1755.111      382.004        0.631        0.269       84.747       17.192        0.041      340.443       14.467      860.124
05/17/2014  07:30:00       -6.606       30.124        9.327       18.416       22.017       14.904      339.140      484.743      222.128        0.104        0.052       30.840        8.952        0.084      340.505       14.572      860.109
05/17/2014  07:31:00      -11.765       17.633        5.964        8.903       15.117        9.810       79.271      228.536       96.245        0.044        0.020       21.197        6.100        0.083      340.529       14.613      860.102
05/17/2014  07:32:00      -12.757       59.700        3.350       17.283       30.743       18.870      298.691      945.128      356.076        0.267        0.080       61.047       20.137        0.109      340.627       14.778      860.083
05/17/2014  07:33:00      -35.190       53.036       -0.267       20.552       38.735       14.792      422.368     1500.377      218.814        0.310        0.107       63.649       16.126        0.064      340.561       14.668      860.070
05/17/2014  07:34:00      -56.114        6.337       -4.745       16.680       12.105       12.274      278.216      146.520      150.663        0.189        0.029       56.471        7.612        0.018      340.518       14.593      860.075
05/17/2014  07:35:00     -121.853      -46.044       -0.377       44.037       25.130       15.279     1939.249      631.493      233.459        0.989        0.140      130.262        9.055        0.005      340.446       14.471      860.094
05/17/2014  07:36:00     -136.497      -71.010       -2.497       57.945       47.609       29.482     3357.678     2266.574      869.174        1.509        0.325      153.863       29.397        0.037      340.482       14.532      860.120
05/17/2014  07:37:00     -117.127      -37.178       -4.076       53.360       37.443       24.243     2847.257     1401.958      587.742        0.998        0.242      122.886       27.614        0.050      340.482       14.531      860.131
05/17/2014  07:38:00      -44.374      -40.333        3.306       37.116       29.349       19.702     1377.634      861.338      388.184        0.312        0.131       59.965       22.606        0.142      340.566       14.674      860.115
05/17/2014  07:39:00      -20.695      -11.075       11.947       17.421       13.419        9.343      303.496      180.078       87.288        0.063        0.029       23.472        9.347        0.159      340.729       14.953      860.075
05/17/2014  07:40:00      -17.429       -5.538       13.841       19.939       13.189        7.929      397.572      173.948       62.873        0.058        0.032       18.288        7.386        0.163      340.891       15.226      860.051
05/17/2014  07:41:00        3.840        5.155       19.169       10.889        8.397       11.291      118.579       70.504      127.478        0.036        0.016        6.428        6.114        0.905      340.816       15.097      860.043
05/17/2014  07:42:00      -38.346        7.160        4.214       21.574       15.686       10.507      465.436      246.058      110.388        0.118        0.041       39.009        6.509        0.028      340.801       15.073      860.044
05/17/2014  07:43:00      -71.628       -8.186      -12.576       13.196       16.049       17.956      174.126      257.556      322.425        0.305        0.038       72.094       11.652        0.026      340.783       15.042      860.045
05/17/2014  07:44:00      -42.280      -21.120        4.406       23.593       12.078        9.833      556.629      145.874       96.679        0.153        0.040       47.261        5.937        0.016      340.941       15.308      860.034
05/17/2014  07:45:00      -77.460        9.757       -3.246       36.761       21.488       15.834     1351.341      461.746      250.709        0.408        0.103       78.073       18.362        0.055      340.878       15.201      860.023
05/17/2014  07:46:00      -80.204       23.667        2.352       30.949       18.081       19.402      957.822      326.917      376.453        0.433        0.083       83.624       16.831        0.041      341.008       15.422      859.999
05/17/2014  07:47:00      -27.311       36.600       -0.163       32.712       27.368       28.979     1070.083      749.006      839.807        0.237        0.133       45.667       22.042        0.233      341.280       15.884      859.977
05/17/2014  07:48:00       22.378       18.467       13.973       29.337       23.541       24.270      860.682      554.184      589.054        0.152        0.100       29.014       16.546        0.325      341.143       15.651      859.968
05/17/2014  07:49:00       11.198       18.480       23.234       21.332       20.368       19.090      455.070      414.871      364.444        0.112        0.062       21.608       12.892        0.356      341.139       15.645      859.982
05/17/2014  07:50:00        7.817       -2.332       22.446       14.726       16.218       12.270      216.842      263.034      150.557        0.060        0.032        8.157        6.452        0.626      341.392       16.073      860.019
05/17/2014  07:51:00       23.083       -2.682       21.561       11.693       18.781       22.924      136.735      352.737      525.504        0.101        0.051       23.238       17.665        0.578      341.183       15.719      860.010
05/17/2014  07:52:00       29.355      -12.376        4.906       30.483       23.314       23.617      929.230      543.544      557.756        0.153        0.102       31.857       18.530        0.338      341.298       15.913      859.996
05/17/2014  07:53:00       37.440       -2.107       28.148       38.161       17.923       18.890     1456.249      321.244      356.848        0.217        0.107       37.499        7.764        0.043      341.129       15.628      859.960
05/17/2014  07:54:00       42.813      -53.849        6.577       25.905       66.270       34.423      671.051     4391.670     1184.956        0.551        0.312       68.794       15.590        0.051      340.869       15.187      859.922
05/17/2014  07:55:00        5.447        9.169       17.383       10.182       12.207       14.610      103.674      149.023      213.460        0.044        0.023       10.665        5.612        0.277      341.015       15.435      859.904
05/17/2014  07:56:00       -3.079       -1.016       16.691       20.147       24.627       19.146      405.901      606.499      366.567        0.083        0.069        3.243       13.312       16.854      341.321       15.953      859.913
05/17/2014  07:57:00        9.866      -60.252        4.277       32.812       27.751       29.837     1076.646      770.110      890.254        0.324        0.137       61.054       18.947        0.096      341.042       15.479      859.924
05/17/2014  07:58:00       30.109      -19.064        4.498       14.480       20.794       18.175      209.668      432.388      330.344        0.113        0.049       35.637       12.254        0.118      340.962       15.344      859.943
05/17/2014  07:59:00      -28.770      -24.189        4.684       37.543       38.629       24.156     1409.444     1492.229      583.497        0.246        0.174       37.587       20.927        0.310      341.256       15.843      859.933
05/17/2014  08:00:00      -88.875      -63.696       -4.503       67.022       46.000       28.300     4492.008     2115.985      800.886        0.969        0.370      109.343       21.916        0.040      340.829       15.119      859.927
05/17/2014  08:01:00      -69.820      -36.422       14.623       60.361       36.328       25.842     3643.462     1319.704      667.809        0.602        0.282       78.749       27.711        0.124      340.954       15.332      859.920
05/17/2014  08:02:00      -29.485      -35.392        6.390       29.621       27.478       21.356      877.399      755.033      456.085        0.213        0.104       46.065        9.643        0.044      340.924       15.281      859.912
05/17/2014  08:03:00       -1.208        2.915       10.094       23.511       14.723       20.457      552.766      216.766      418.487        0.065        0.059        3.155       12.519       15.742      341.374       16.042      859.885
05/17/2014  08:04:00       40.285      -11.346        9.936       26.724       17.431       25.590      714.186      303.822      654.836        0.176        0.084       41.852       15.120        0.131      340.737       14.963      859.863
05/17/2014  08:05:00       36.400        9.329       32.270       35.333       21.127       23.971     1248.444      446.335      574.623        0.236        0.113       37.577       18.651        0.246      340.886       15.216      859.850
05/17/2014  08:06:00        7.707      -14.814       20.142       25.494       29.272       24.026      649.934      856.844      577.264        0.138        0.104       16.698       18.323        1.204      341.472       16.208      859.864
05/17/2014  08:07:00      -10.665      -11.744       13.325       20.231       32.299       21.809      409.275     1043.211      475.638        0.118        0.096       15.864       10.337        0.425      341.259       15.849      859.886
05/17/2014  08:08:00        8.141       -6.098       10.682       28.960       24.850       20.572      838.691      617.523      423.214        0.105        0.094       10.171       12.770        1.576      341.435       16.147      859.906
05/17/2014  08:09:00      -25.592      -22.725        4.108       20.991       17.871       17.382      440.636      319.360      302.132        0.112        0.053       34.225        7.550        0.049      341.126       15.621      859.909
05/17/2014  08:10:00      -21.437        6.837        2.609       26.230       15.237       20.617      688.024      232.161      425.055        0.093        0.067       22.501       14.650        0.424      341.382       16.057      859.900
05/17/2014  08:11:00       14.958        2.859        4.979       20.539       25.083       25.248      421.834      629.164      637.447        0.097        0.084       15.229       15.919        1.093      341.328       15.965      859.884
05/17/2014  08:12:00       -5.832        5.163        3.390       17.498       17.756       11.853      306.167      315.282      140.504        0.042        0.038        7.789        5.350        0.472      341.360       16.019      859.872
05/17/2014  08:13:00       30.575      -44.301       -6.151       31.605       24.851       19.678      998.859      617.555      387.226        0.247        0.100       53.828       16.148        0.090      341.219       15.780      859.873
05/17/2014  08:14:00       15.841       -0.563       34.742       38.167       21.932       17.156     1456.683      481.025      294.325        0.184        0.112       15.851       12.459        0.618      341.646       16.503      859.885
05/17/2014  08:15:00      -31.899      -39.375        6.381       37.032       47.114       26.026     1371.368     2219.727      677.358        0.344        0.213       50.675       25.283        0.249      341.348       15.999      859.900
05/17/2014  08:16:00      -52.746      -41.515       10.008       40.327       33.417       23.470     1626.261     1116.666      550.831        0.395        0.165       67.124       18.478        0.076      341.110       15.594      859.908
05/17/2014  08:17:00      -50.294      -70.455        1.703       23.728       24.859       15.002      563.026      617.989      225.053        0.445        0.070       86.564        9.484        0.012      341.097       15.573      859.888
05/17/2014  08:18:00       -0.327        7.638       17.776       27.091       27.421       26.033      733.939      751.896      677.704        0.127        0.108        7.645       14.746        3.721      341.585       16.400      859.862
05/17/2014  08:19:00       48.764      -19.896       10.848       35.219       30.418       37.599     1240.347      925.235     1413.661        0.323        0.179       52.667       25.373        0.232      341.018       15.440      859.838
05/17/2014  08:20:00       23.266       -3.436       28.470       41.504       41.003       38.991     1722.616     1681.223     1520.312        0.314        0.246       23.519       32.525        1.913      341.109       15.595      859.811
05/17/2014  08:21:00       23.182       -2.126       16.065       26.066       28.066       24.820      679.418      787.707      616.021        0.144        0.104       23.279       17.662        0.576      341.020       15.443      859.793
05/17/2014  08:22:00       55.777       25.647       33.931       43.817       47.373       28.496     1919.939     2244.186      812.040        0.495        0.249       61.391       21.020        0.117      341.107       15.590      859.774
05/17/2014  08:23:00       31.108       43.326       39.077       42.464       32.721       19.678     1803.215     1070.672      387.242        0.382        0.163       53.337       15.625        0.086      341.251       15.835      859.778
05/17/2014  08:24:00       47.592       39.565       18.490       26.282       22.241       24.139      690.750      494.666      582.714        0.297        0.088       61.890       14.651        0.056      341.181       15.716      859.779
05/17/2014  08:25:00       15.835       -6.926        4.943       19.359       12.920       14.357      374.757      166.925      206.128        0.054        0.037       17.283        8.488        0.241      341.012       15.430      859.797
05/17/2014  08:26:00       25.623      -14.425       14.673       16.518       11.628       14.776      272.855      135.206      218.328        0.085        0.031       29.405        6.481        0.049      341.096       15.573      859.816
05/17/2014  08:27:00        4.984      -10.078       26.772       19.211       34.944       18.433      369.054     1221.053      339.769        0.139        0.096       11.243       22.290        3.931      341.528       16.304      859.819
05/17/2014  08:28:00       -6.565      -24.050        7.922       12.741       13.369       13.484      162.341      178.736      181.813        0.060        0.026       24.930       10.897        0.191      341.621       16.462      859.814
05/17/2014  08:29:00      -14.436      -11.045        4.521        9.777       12.481       10.040       95.594      155.763      100.804        0.035        0.018       18.176        6.608        0.132      341.549       16.338      859.785
05/17/2014  08:30:00       11.542       -7.327        8.673       26.999       10.952       13.062      728.926      119.956      170.625        0.064        0.051       13.671       12.584        0.847      341.471       16.208      859.769
05/17/2014  08:31:00        1.930       -1.353       23.228       29.312       27.254       29.124      859.195      742.762      848.235        0.150        0.123        2.357       13.406       32.342      341.227       15.793      859.768
05/17/2014  08:32:00        0.015      -42.663       13.572       28.443       32.153       29.073      809.015     1033.808      845.230        0.235        0.134       42.663       23.414        0.301      341.358       16.015      859.780
05/17/2014  08:33:00        3.011      -20.590       25.781       24.633       44.667       29.226      606.785     1995.157      854.161        0.228        0.173       20.809       21.313        1.049      341.553       16.344      859.793
05/17/2014  08:34:00       47.648      -25.829       23.224       50.123       46.709       34.618     2512.290     2181.721     1198.414        0.468        0.295       54.198       33.252        0.376      341.412       16.107      859.782
05/17/2014  08:35:00       45.904        8.047       39.789       43.050       37.063       29.306     1853.274     1373.632      858.826        0.392        0.204       46.604       26.534        0.324      341.166       15.691      859.777
05/17/2014  08:36:00       57.545      -23.945       17.589       43.114       31.065       31.069     1858.814      965.022      965.313        0.399        0.189       62.328       18.541        0.088      340.767       15.015      859.734
05/17/2014  08:37:00       -5.196       -4.298       16.563       23.316       13.379       18.160      543.616      178.994      329.784        0.069        0.053        6.743       16.749        6.170      341.063       15.516      859.709
05/17/2014  08:38:00       -5.324        1.255       10.484       25.084       18.838       18.930      629.214      354.877      358.341        0.074        0.067        5.469        7.356        1.809      341.064       15.518      859.698
05/17/2014  08:39:00       11.060      -11.422        6.334       14.711       16.588       17.757      216.402      275.150      315.327        0.055        0.040       15.899       16.700        1.103      341.086       15.554      859.698
05/17/2014  08:40:00       17.872       -1.099       16.692       15.971       11.468       12.524      255.060      131.514      156.843        0.057        0.027       17.906       10.155        0.322      340.848       15.152      859.704
05/17/2014  08:41:00       49.085       18.249       17.955       23.051       32.548       25.757      531.335     1059.398      663.429        0.266        0.113       52.367       20.386        0.152      340.729       14.951      859.693
05/17/2014  08:42:00       57.809       30.632        3.814       18.461       18.105       18.672      340.825      327.806      348.630        0.266        0.051       65.424        8.902        0.019      341.098       15.576      859.672
05/17/2014  08:43:00       64.128       54.795       17.881       32.968       29.990       30.362     1086.881      899.423      921.849        0.517        0.145       84.350       20.799        0.061      341.250       15.833      859.660
05/17/2014  08:44:00       48.993       46.953       14.711       30.175       30.712       30.220      910.524      943.207      913.256        0.379        0.138       67.860       18.431        0.074      341.229       15.796      859.669
05/17/2014  08:45:00       -4.400        6.414       -7.190       21.949       19.547       12.820      481.750      382.086      164.349        0.057        0.051        7.779        6.588        0.717      341.318       15.947      859.677
05/17/2014  08:46:00       13.523       -6.126       13.552       25.832       16.629       19.263      667.274      276.514      371.045        0.086        0.066       14.846       13.304        0.803      341.422       16.123      859.693
05/17/2014  08:47:00       25.791      -13.830        9.235       23.059       20.494       27.413      531.732      420.016      751.455        0.132        0.085       29.265       21.775        0.554      341.439       16.154      859.700
05/17/2014  08:48:00       18.553        0.312       14.444       23.312       22.726       25.942      543.460      516.466      672.968        0.114        0.087       18.555       16.853        0.825      341.302       15.921      859.697
05/17/2014  08:49:00       45.120        0.010       11.831       23.365       18.560       23.105      545.911      344.463      533.821        0.180        0.071       45.120        9.423        0.044      341.227       15.793      859.689
05/17/2014  08:50:00       55.023      -21.363       -0.983       45.636       21.586       26.933     2082.682      465.961      725.374        0.338        0.164       59.024       21.167        0.129      341.024       15.450      859.691
05/17/2014  08:51:00       55.959      -26.562       -0.915       32.406       25.529       24.376     1050.135      651.717      594.173        0.307        0.115       61.943        9.399        0.023      341.383       16.058      859.690
05/17/2014  08:52:00      -22.329        6.432       24.398       17.805       17.495       16.529      317.024      306.067      273.221        0.102        0.045       23.237       10.843        0.218      341.798       16.761      859.690
05/17/2014  08:53:00       15.324        1.597        9.599       34.174       20.121       24.048     1167.893      404.843      578.327        0.124        0.108       15.407       18.235        1.401      341.635       16.485      859.677
05/17/2014  08:54:00       30.600      -18.899       -1.525       30.083       34.932       19.756      904.967     1220.224      390.302        0.191        0.126       35.966       13.891        0.149      341.481       16.224      859.657
05/17/2014  08:55:00       21.252      -40.662       -5.052       28.070       20.404       20.343      787.909      416.305      413.834        0.187        0.081       45.880       12.361        0.073      341.527       16.301      859.647
05/17/2014  08:56:00        8.956        4.039       28.338       22.287       26.100       24.953      496.705      681.196      622.629        0.135        0.090        9.825       20.824        4.492      342.050       17.190      859.629
05/17/2014  08:57:00        0.840       21.026       40.453       23.049       22.666       16.084      531.278      513.732      258.690        0.169        0.065       21.043       15.413        0.536      341.883       16.905      859.626
05/17/2014  08:58:00       -5.434       14.282       38.721       27.432       25.131       18.930      752.536      631.556      358.357        0.174        0.087       15.281       16.572        1.176      342.023       17.142      859.626
05/17/2014  08:59:00       46.824      -15.594       16.939       41.853       23.162       29.641     1751.705      536.489      878.564        0.294        0.158       49.353       14.856        0.091      341.816       16.791      859.627
05/17/2014  09:00:00      -67.548      -23.050       -0.560       30.345       22.016       17.948      920.841      484.720      322.124        0.341        0.086       71.373       14.187        0.040      341.804       16.772      859.601
05/17/2014  09:01:00      -26.817      -17.783       -2.113       21.996       13.570       10.777      483.808      184.157      116.148        0.091        0.039       32.177        7.008        0.047      342.008       17.118      859.588
05/17/2014  09:02:00      -36.637      -21.708       -2.882       20.727       13.981       15.163      429.618      195.480      229.917        0.134        0.043       42.585        4.704        0.012      342.053       17.194      859.579
05/17/2014  09:03:00      -20.877       -4.750       21.851       21.835       31.137       25.067      476.787      969.494      628.367        0.150        0.104       21.411       24.846        1.347      342.765       18.406      859.571
05/17/2014  09:04:00        8.668       -7.083       17.090       29.252       24.325       23.878      855.658      591.698      570.166        0.122        0.101       11.194       15.855        2.006      342.633       18.181      859.561
05/17/2014  09:05:00        1.110        0.932       13.070       20.287       26.953       28.401      411.550      726.471      806.592        0.106        0.097        1.450       14.474       99.694      342.501       17.956      859.555
05/17/2014  09:06:00       -8.153        8.791       35.920       16.011       20.139       18.790      256.339      405.599      353.074        0.122        0.051       11.990        3.721        0.096      342.968       18.750      859.528
05/17/2014  09:07:00       42.762        7.111       40.899       47.667       38.813       31.484     2272.152     1506.445      991.259        0.416        0.238       43.349       28.721        0.439      342.407       17.796      859.515
05/17/2014  09:08:00       24.727      -11.731       21.868       41.293       39.798       31.526     1705.096     1583.843      993.914        0.275        0.214       27.369       26.551        0.941      342.547       18.033      859.499
05/17/2014  09:09:00       33.770      -34.334       13.236       37.492       57.517       35.017     1405.621     3308.260     1226.185        0.422        0.297       48.158       34.003        0.499      342.872       18.586      859.471
05/17/2014  09:10:00        2.925       16.313       47.490       22.633       36.833       18.017      512.267     1356.642      324.623        0.236        0.110       16.573       11.248        0.461      343.247       19.226      859.465
05/17/2014  09:11:00       28.301        7.190       35.654       34.648       23.124       26.282     1200.449      534.741      690.718        0.227        0.121       29.200       21.735        0.554      342.578       18.086      859.462
05/17/2014  09:12:00       55.426      -12.486       32.010       33.950       31.990       25.085     1152.599     1023.338      629.251        0.353        0.140       56.815       19.050        0.112      342.529       18.003      859.448
05/17/2014  09:13:00       15.782      -16.944       18.567       25.065       28.235       22.465      628.273      797.199      504.679        0.141        0.097       23.156       19.223        0.689      342.757       18.392      859.435
05/17/2014  09:14:00       46.976      -10.342      -15.179       22.071       36.302       18.280      487.143     1317.850      334.150        0.234        0.107       48.101        8.679        0.033      342.349       17.698      859.417
05/17/2014  09:15:00       12.053        6.357       27.085       72.589       41.148       29.429     5269.185     1693.181      866.067        0.437        0.391       13.627       24.696        3.285      342.866       18.578      859.405
05/17/2014  09:16:00      100.455       40.874       22.912       74.135       36.865       42.397     5496.038     1359.046     1797.467        1.047        0.433      108.452       20.704        0.036      343.150       19.059      859.404
05/17/2014  09:17:00       22.776       28.898       21.901       27.974       28.794       27.603      782.519      829.102      761.927        0.210        0.119       36.794       16.810        0.209      343.234       19.204      859.399
05/17/2014  09:18:00        3.352      -13.533       32.927       18.405       28.005       26.523      338.760      784.259      703.453        0.155        0.091       13.943        7.999        0.329      343.836       20.227      859.390
05/17/2014  09:19:00       48.565      -12.680        6.482       43.907       28.598       34.216     1927.828      817.860     1170.721        0.324        0.196       50.193       24.710        0.242      342.959       18.735      859.383
05/17/2014  09:20:00       39.105      -43.320        1.102       44.535       47.669       33.073     1983.349     2272.327     1093.846        0.438        0.267       58.360       20.199        0.120      343.567       19.770      859.370
05/17/2014  09:21:00       68.571      -19.300       -1.457       56.525       49.794       36.277     3195.112     2479.488     1315.997        0.603        0.350       71.235       36.517        0.263      343.123       19.013      859.375
05/17/2014  09:22:00       19.760        0.187       34.688       29.435       40.757       28.547      866.446     1661.124      814.931        0.247        0.167       19.760       17.380        0.774      343.831       20.220      859.383
05/17/2014  09:23:00       19.967      -19.029       37.464       38.550       63.216       33.571     1486.075     3996.255     1127.008        0.439        0.330       27.582       27.137        0.968      343.457       19.584      859.373
05/17/2014  09:24:00       36.877       50.409        9.608       47.482       28.706       24.275     2254.499      824.040      589.286        0.383        0.183       62.458       14.284        0.052      343.386       19.462      859.368
05/17/2014  09:25:00       57.154       53.587       42.927       55.074       46.192       33.585     3033.180     2133.725     1127.978        0.714        0.315       78.347       18.397        0.055      343.792       20.154      859.348
05/17/2014  09:26:00       -9.912        0.074       17.820       29.472       26.548       20.679      868.586      704.810      427.612        0.121        0.100        9.912       12.565        1.607      343.601       19.829      859.321
05/17/2014  09:27:00       31.823        3.384       24.044       30.204       32.602       27.043      912.256     1062.888      731.331        0.215        0.135       32.002       14.680        0.210      343.585       19.801      859.301
05/17/2014  09:28:00       56.879       19.244        6.687       34.133       40.923       28.596     1165.076     1674.671      817.749        0.365        0.183       60.046       23.108        0.148      343.266       19.257      859.278
05/17/2014  09:29:00       50.936       33.626       16.167       53.561       36.586       28.574     2868.780     1338.521      816.458        0.450        0.251       61.034       13.830        0.051      344.108       20.693      859.254
05/17/2014  09:30:00      135.703       64.039       16.751       47.045       31.303       33.573     2213.279      979.849     1127.156        1.356        0.216      150.054       19.439        0.017      343.700       19.996      859.243
05/17/2014  09:31:00       55.297       40.146        9.955       54.596       32.134       26.682     2980.696     1032.603      711.947        0.475        0.236       68.334       31.051        0.206      343.856       20.261      859.235
05/17/2014  09:32:00       -1.474       46.597       12.680       19.633       23.723       21.296      385.451      562.790      453.499        0.187        0.070       46.620        8.592        0.034      344.134       20.737      859.228
05/17/2014  09:33:00       21.359        1.604       39.827       35.027       35.401       28.667     1226.875     1253.209      821.816        0.267        0.165       21.419       30.992        2.094      344.007       20.525      859.210
05/17/2014  09:34:00       77.699       57.183       67.067       32.562       33.208       31.633     1060.314     1102.747     1000.637        0.848        0.158       96.473        9.298        0.009      343.382       19.454      859.193
05/17/2014  09:35:00       75.183      109.400       10.025       64.053       75.061       46.168     4102.724     5634.134     2131.475        1.479        0.593      132.743       50.658        0.146      343.620       19.860      859.180
05/17/2014  09:36:00      -10.101       53.132        2.699       29.257       46.886       27.157      855.979     2198.278      737.525        0.336        0.190       54.084       23.794        0.194      344.133       20.736      859.182
05/17/2014  09:37:00        1.520        0.672       32.458       14.963       17.934       17.382      223.891      321.627      302.132        0.095        0.042        1.661        9.972       36.028      344.820       21.912      859.182
05/17/2014  09:38:00        6.599        6.153       20.465       20.922       22.444       22.461      437.749      503.727      504.508        0.097        0.072        9.023       14.644        2.634      344.138       20.745      859.177
05/17/2014  09:39:00       28.090       19.746       11.252       30.978       31.184       24.115      959.616      972.422      581.543        0.191        0.126       34.336       17.150        0.249      343.543       19.729      859.178
05/17/2014  09:40:00       29.714       21.554       11.848       27.730       20.519       21.149      768.949      421.046      447.291        0.156        0.082       36.709       17.119        0.217      343.688       19.976      859.168
05/17/2014  09:41:00       19.655       -0.971       24.828       20.059       20.214       16.951      402.373      408.595      287.351        0.105        0.055       19.679       13.565        0.475      344.126       20.723      859.155
05/17/2014  09:42:00        8.786       10.712       38.447       23.978       17.752       13.022      574.953      315.129      169.571        0.136        0.053       13.854        8.467        0.374      344.452       21.282      859.142
05/17/2014  09:43:00       28.033      -11.240       21.564       41.255       21.510       28.744     1702.015      462.697      826.201        0.218        0.150       30.202       26.831        0.789      344.263       20.960      859.112
05/17/2014  09:44:00       34.037       48.627       39.403       46.643       42.558       29.386     2175.569     1811.147      863.512        0.496        0.243       59.356       20.340        0.117      343.957       20.437      859.091
05/17/2014  09:45:00       93.615       63.645       40.698       63.601       44.572       48.894     4045.131     1986.634     2390.653        1.144        0.421      113.201       30.218        0.071      343.791       20.151      859.082
05/17/2014  09:46:00       15.431      -28.619       15.747       28.284       45.888       23.957      799.974     2105.737      573.928        0.239        0.174       32.514       17.363        0.285      343.897       20.333      859.074
05/17/2014  09:47:00       26.343      -10.022       29.955       35.620       47.780       28.920     1268.791     2282.917      836.371        0.304        0.219       28.185       24.409        0.750      343.434       19.543      859.076
05/17/2014  09:48:00       71.150       26.694       13.612       41.675       53.146       34.021     1736.818     2824.529     1157.433        0.584        0.286       75.993       20.525        0.073      344.033       20.566      859.068
05/17/2014  09:49:00      101.876       60.996       40.739       65.954       60.495       46.255     4349.956     3659.654     2139.505        1.295        0.507      118.740       40.588        0.117      344.031       20.560      859.055
05/17/2014  09:50:00       25.457       38.610       52.852       48.476       49.078       28.226     2349.940     2408.652      796.690        0.524        0.278       46.247       24.353        0.277      344.474       21.320      859.043
05/17/2014  09:51:00      122.196       89.961       36.611       52.254       36.945       38.492     2730.520     1364.923     1481.640        1.497        0.279      151.739       35.654        0.055      343.855       20.261      859.040
05/17/2014  09:52:00       75.214       42.954       10.431       68.771       46.291       34.673     4729.423     2142.831     1202.200        0.784        0.404       86.615       23.260        0.072      344.387       21.171      859.026
05/17/2014  09:53:00        4.051       42.521       69.895       36.037       43.572       33.104     1298.701     1898.552     1095.898        0.550        0.215       42.713       19.091        0.200      344.852       21.965      859.018
05/17/2014  09:54:00      115.902      101.572       52.377       68.217       46.399       50.445     4653.584     2152.875     2544.686        1.792        0.468      154.111       33.729        0.048      344.537       21.424      859.001
05/17/2014  09:55:00       90.068       94.478       45.763       41.476       33.598       49.016     1720.234     1128.825     2402.559        1.219        0.263      130.531       29.552        0.051      343.808       20.181      858.993
05/17/2014  09:56:00        3.334        9.784       16.265       36.820       37.742       44.930     1355.716     1424.424     2018.727        0.258        0.240       10.336       32.289        9.759      344.183       20.821      858.985
05/17/2014  09:57:00       33.891        0.158       28.754       25.025       28.623       17.740      626.240      819.279      314.716        0.187        0.088       33.891       19.905        0.345      343.669       19.944      858.977
05/17/2014  09:58:00       28.369       27.290       28.922       31.389       36.815       28.251      985.244     1355.309      798.114        0.276        0.157       39.364       22.270        0.320      344.086       20.657      858.963
05/17/2014  09:59:00       21.136       64.904       -2.542       41.588       49.505       29.248     1729.522     2450.702      855.470        0.485        0.252       68.259       28.312        0.172      344.347       21.101      858.956
05/17/2014  10:00:00       86.255       45.634       16.769       52.397       51.362       36.621     2745.441     2638.106     1341.114        0.826        0.336       97.582       20.789        0.045      344.798       21.873      858.937
05/17/2014  10:01:00       80.954       31.246       19.810       75.176       47.743       43.389     5651.455     2279.397     1882.605        0.887        0.491       86.775       38.709        0.199      344.710       21.722      858.936
05/17/2014  10:02:00       91.249       58.996       21.066       75.834       56.617       30.554     5750.824     3205.436      933.543        1.107        0.494      108.660       30.687        0.080      344.594       21.522      858.938
05/17/2014  10:03:00       73.786       85.543       15.930       69.811       48.575       31.902     4873.524     2359.514     1017.741        1.063        0.413      112.969       19.579        0.030      344.463       21.298      858.946
05/17/2014  10:04:00       34.056       62.326       11.327       37.567       47.022       27.915     1411.307     2211.094      779.222        0.479        0.220       71.024       26.528        0.140      344.473       21.317      858.939
05/17/2014  10:05:00       34.495      -24.977       11.748       46.843       48.302       34.032     2194.256     2333.048     1158.154        0.382        0.284       42.588       26.318        0.382      344.560       21.467      858.933
05/17/2014  10:06:00       32.965      -32.813       13.679       27.119       29.479       19.706      735.423      869.040      388.327        0.217        0.100       46.512       11.227        0.058      344.170       20.799      858.909
05/17/2014  10:07:00       52.140       42.050       20.918       60.243       65.575       38.894     3629.277     4300.119     1512.719        0.718        0.472       66.983       40.105        0.358      344.734       21.764      858.897
05/17/2014  10:08:00      105.020       78.773       22.186       74.086       45.154       43.777     5488.682     2038.872     1916.406        1.358        0.472      131.280       26.725        0.041      344.723       21.743      858.888
05/17/2014  10:09:00      153.053      105.648       22.021       51.523       42.139       38.081     2654.631     1775.729     1450.159        2.047        0.294      185.974       31.852        0.029      344.483       21.333      858.888
05/17/2014  10:10:00      143.716       72.125        7.442       50.697       32.356       39.185     2570.202     1046.916     1535.442        1.553        0.258      160.799       15.789        0.010      344.384       21.165      858.879
05/17/2014  10:11:00       83.812       69.409        4.597       29.770       26.388       32.976      886.251      696.305     1087.446        0.727        0.134      108.821       12.842        0.014      344.543       21.437      858.877
05/17/2014  10:12:00       44.941       85.714       -0.152       30.811       32.716       32.974      949.287     1070.329     1087.279        0.624        0.155       96.781       25.961        0.072      344.479       21.328      858.856
05/17/2014  10:13:00      -15.245       17.554      -17.742       19.677       27.990       14.647      387.179      783.439      214.542        0.112        0.069       23.250       15.272        0.431      344.620       21.568      858.839
05/17/2014  10:14:00      -38.315      -26.463        2.498       15.484       39.500       17.232      239.751     1560.243      296.940        0.214        0.105       46.565       20.026        0.185      344.281       20.987      858.820
05/17/2014  10:15:00      -18.572      -11.238       18.031       27.770       19.443       17.703      771.181      378.014      313.394        0.113        0.073       21.707       17.829        0.675      344.834       21.934      858.816
05/17/2014  10:16:00       23.397        5.066       46.206       31.920       25.190       22.842     1018.882      634.517      521.746        0.244        0.109       23.939       13.636        0.324      344.736       21.766      858.811
05/17/2014  10:17:00       32.081      -11.085       14.649       65.066       45.395       29.097     4233.612     2060.693      846.610        0.425        0.357       33.943       38.930        1.315      344.564       21.474      858.788
05/17/2014  10:18:00       60.043      -27.956       18.476       44.890       30.056       35.668     2015.107      903.365     1272.226        0.446        0.210       66.232       18.894        0.081      344.065       20.619      858.781
05/17/2014  10:19:00       44.089      -41.813       21.532       37.680       39.379       32.165     1419.765     1550.670     1034.601        0.408        0.200       60.763       23.196        0.146      344.208       20.865      858.761
05/17/2014  10:20:00       36.272       41.101       71.911       62.035       72.664       44.486     3848.339     5280.114     1979.027        0.964        0.555       54.818       38.324        0.489      344.674       21.661      858.746
05/17/2014  10:21:00       37.618       28.876       50.765       35.650       71.212       42.601     1270.953     5071.132     1814.880        0.649        0.408       47.423       43.740        0.851      344.350       21.108      858.749
05/17/2014  10:22:00       74.671      -52.651       -3.782       38.595       35.426       21.503     1489.555     1255.020      462.382        0.578        0.160       91.367       15.510        0.029      344.402       21.195      858.753
05/17/2014  10:23:00       25.571      -13.126        5.283       32.259       57.625       32.673     1040.655     3320.643     1067.533        0.314        0.271       28.743       35.732        1.545      344.804       21.883      858.749
05/17/2014  10:24:00       -0.962      -10.414       16.282       14.273       19.724       26.862      203.705      389.055      721.545        0.084        0.066       10.459       18.925        3.274      345.624       23.291      858.738
05/17/2014  10:25:00       -1.022       -2.536       22.961       20.371       22.751       24.778      414.976      517.596      613.939        0.104        0.077        2.734       16.628       36.976      345.197       22.558      858.727
05/17/2014  10:26:00        0.378       14.888       32.143       20.067       21.187       22.981      402.698      448.874      528.146        0.132        0.069       14.893       12.080        0.658      345.784       23.564      858.717
05/17/2014  10:27:00       66.497       23.671       12.458       55.729       33.277       40.572     3105.671     1107.328     1646.113        0.550        0.293       70.584       24.862        0.124      345.054       22.310      858.707
05/17/2014  10:28:00      -19.906       16.489       27.257       42.929       30.895       20.278     1842.911      954.494      411.191        0.231        0.160       25.848       17.740        0.471      345.592       23.233      858.697
05/17/2014  10:29:00      -13.918       32.395       21.841       67.392       43.952       34.880     4541.727     1931.815     1216.633        0.470        0.385       35.259       25.027        0.504      345.608       23.260      858.691
05/17/2014  10:30:00      -25.866      110.068        6.420       37.126       59.212       35.791     1378.355     3506.051     1280.995        0.949        0.308      113.066       32.696        0.084      345.591       23.233      858.688
05/17/2014  10:31:00        0.250      104.878        1.307       43.569       75.402       34.014     1898.296     5685.531     1156.945        0.987        0.437      104.879       36.107        0.119      345.720       23.453      858.663
05/17/2014  10:32:00      -55.547       98.073       -1.251       52.854       57.166       40.678     2793.521     3268.002     1654.699        1.021        0.386      112.711       35.986        0.102      345.572       23.198      858.647
05/17/2014  10:33:00      -14.623       72.997       16.185       94.113       50.018       42.456     8857.196     2501.767     1802.497        0.948        0.658       74.447       38.217        0.264      345.295       22.724      858.639
05/17/2014  10:34:00       73.878       60.972       22.206       55.141       55.826       31.390     3040.531     3116.550      985.310        0.840        0.357       95.789       23.054        0.058      345.249       22.645      858.627
05/17/2014  10:35:00       21.947       62.375       13.987       55.058       38.105       27.350     3031.349     1452.029      748.025        0.490        0.262       66.124       17.850        0.073      345.653       23.337      858.620
05/17/2014  10:36:00       69.387       33.919       18.619       65.033       52.373       32.758     4229.328     2742.941     1073.069        0.718        0.402       77.233       31.245        0.164      345.857       23.686      858.620
05/17/2014  10:37:00       38.918       48.314       38.895       56.285       53.243       39.104     3168.047     2834.826     1529.108        0.645        0.377       62.039       30.541        0.242      345.574       23.202      858.611
05/17/2014  10:38:00      106.056       54.399        7.577       49.317       34.116       40.213     2432.193     1163.878     1617.073        0.974        0.261      119.194       16.383        0.019      345.447       22.984      858.597
05/17/2014  10:39:00       11.331       18.579       22.392       35.562       22.446       23.397     1264.649      503.813      547.414        0.164        0.116       21.762       17.138        0.620      345.838       23.657      858.598
05/17/2014  10:40:00      -38.789       29.975       21.127       38.492       21.758       28.509     1481.626      473.431      812.761        0.281        0.138       49.022       27.341        0.311      345.864       23.703      858.605
05/17/2014  10:41:00      -96.723       14.848      -11.583       23.156       23.419       14.942      536.193      548.467      223.250        0.551        0.065       97.856       12.885        0.017      345.069       22.336      858.625
05/17/2014  10:42:00     -157.792       20.126        9.369       94.769       65.688       43.063     8981.165     4314.853     1854.410        2.027        0.758      159.070       38.730        0.059      345.385       22.875      858.616
05/17/2014  10:43:00      -41.729      -22.197       27.453       54.940       53.763       37.451     3018.385     2890.507     1402.579        0.515        0.366       47.266       24.970        0.279      345.840       23.659      858.585
05/17/2014  10:44:00      -41.348        7.313       19.729       75.908       33.341       30.499     5762.028     1111.607      930.178        0.498        0.390       41.989       27.396        0.426      345.761       23.524      858.575
05/17/2014  10:45:00       33.335      -15.329       29.560       38.421       64.457       34.343     1476.139     4154.673     1179.435        0.451        0.341       36.691       38.583        1.106      345.352       22.822      858.552
05/17/2014  10:46:00       37.498      -92.744       15.286       83.232      115.362       78.973     6927.629    13308.499     6236.725        1.835        1.324      100.038       77.251        0.596      345.668       23.362      858.516
05/17/2014  10:47:00       33.687       21.676       13.602       74.807      131.531       57.103     5596.039    17300.413     3260.708        1.397        1.308       40.058       47.756        1.421      345.520       23.108      858.489
05/17/2014  10:48:00      -24.268      -23.145       -5.534       55.506       37.302       49.102     3080.916     1391.458     2411.045        0.402        0.344       33.535       29.192        0.758      345.675       23.374      858.477
05/17/2014  10:49:00      -72.499     -140.534      -29.020      129.992       93.866       44.592    16897.903     8810.777     1988.441        2.677        1.385      158.133       55.161        0.122      345.673       23.369      858.510
05/17/2014  10:50:00     -213.960     -167.921       17.419      144.471      105.156       65.399    20871.861    11057.802     4276.989        5.524        1.810      271.986       61.140        0.051      345.503       23.078      858.495
05/17/2014  10:51:00      -91.789     -123.577       -1.826       83.849       92.695       40.366     7030.579     8592.429     1629.433        2.047        0.863      153.937       26.970        0.031      345.423       22.941      858.487
05/17/2014  10:52:00     -120.638     -113.488        0.842       81.733       94.045       36.019     6680.206     8844.370     1297.388        2.212        0.841      165.629       23.873        0.021      345.423       22.941      858.456
05/17/2014  10:53:00      -68.170      -23.017        9.736       54.228       57.447       27.606     2940.694     3300.102      762.100        0.614        0.350       71.951       30.856        0.184      345.663       23.355      858.415
05/17/2014  10:54:00      -53.683     -116.653       10.998      112.479      115.409       50.695    12651.542    13319.230     2569.933        2.257        1.427      128.412       50.959        0.157      345.669       23.364      858.464
05/17/2014  10:55:00        1.238     -260.819      -19.225       98.349      151.872       70.686     9672.492    23065.187     4996.558        5.306        1.887      260.822       43.894        0.028      345.623       23.283      858.438
05/17/2014  10:56:00      -84.681      -66.611      -14.173       83.963       70.268       43.326     7049.758     4937.576     1877.128        1.283        0.693      107.740       29.114        0.073      345.733       23.473      858.371
05/17/2014  10:57:00      -20.846      -10.610      -11.009       43.109       41.621       29.635     1858.409     1732.280      878.208        0.257        0.223       23.391       18.490        0.625      345.737       23.482      858.345
05/17/2014  10:58:00      -14.588       -9.672        1.490       26.518       30.174       25.230      703.222      910.484      636.528        0.128        0.113       17.503       11.605        0.440      346.197       24.273      858.334
05/17/2014  10:59:00      -46.800      -18.696       10.146       42.014       30.664       26.301     1765.211      940.303      691.721        0.302        0.170       50.396       26.158        0.269      346.399       24.619      858.324
05/17/2014  11:00:00       -6.767      -64.718        7.965       30.458       89.834       36.341      927.711     8070.122     1320.636        0.731        0.516       65.071       34.046        0.274      346.499       24.792      858.290
05/17/2014  11:01:00        9.809      -42.969       11.927       69.184       86.162       47.320     4786.472     7423.941     2239.143        0.826        0.722       44.074       56.312        1.632      346.371       24.572      858.276
05/17/2014  11:02:00      -81.582      -10.371        7.649       53.074       49.151       32.638     2816.822     2415.834     1065.210        0.656        0.315       82.239       23.701        0.083      346.256       24.374      858.328
05/17/2014  11:03:00     -280.802      -62.418       -5.710      113.262       87.757       48.259    12828.359     7701.301     2328.913        5.281        1.143      287.656       46.472        0.026      346.017       23.959      858.411
05/17/2014  11:04:00     -361.168     -117.825      -11.669      210.186      130.700       79.484    44178.150    17082.507     6317.712       10.601        3.379      379.901       92.995        0.060      345.808       23.600      858.380
05/17/2014  11:05:00     -406.988      -14.497        2.646      195.066      184.263      111.024    38050.797    33952.720    12326.323       12.508        4.216      407.246      108.955        0.072      346.040       23.999      858.296
05/17/2014  11:06:00     -388.185      -85.255      -39.096      248.125      122.282       80.965    61566.023    14953.006     6555.406       12.126        4.154      397.436      103.158        0.067      346.119       24.134      858.307
05/17/2014  11:07:00     -466.160     -124.820      -11.031      220.829      186.947       92.224    48765.336    34949.020     8505.347       16.259        4.611      482.581       90.994        0.036      345.999       23.927      858.272
05/17/2014  11:08:00     -416.304      -91.705      -20.392      157.279      129.945       71.902    24736.705    16885.813     5169.832       11.445        2.340      426.285       72.119        0.029      345.875       23.715      858.267
05/17/2014  11:09:00     -404.263     -115.824      -33.110      241.813      165.339       84.514    58473.768    27337.107     7142.654       13.543        4.648      420.528       90.258        0.046      346.015       23.955      858.243
05/17/2014  11:10:00     -433.291       32.477      -38.506      183.376      186.961       87.089    33626.763    34954.500     7584.509       13.321        3.808      434.507       65.610        0.023      345.956       23.853      858.193
05/17/2014  11:11:00     -681.139      -56.186      -59.728      279.991      200.150      104.821    78394.869    40059.854    10987.512       30.003        6.472      683.452      119.440        0.031      345.800       23.586      858.056
05/17/2014  11:12:00     -309.756      -47.028        3.180      201.821      135.918       77.368    40731.524    18473.644     5985.788        8.167        3.260      313.305       94.292        0.091      346.280       24.409      858.094
05/17/2014  11:13:00     -275.085     -115.001        2.827      158.023      128.274       66.641    24971.252    16454.281     4441.049        6.738        2.293      298.156       77.513        0.068      346.391       24.603      858.120
05/17/2014  11:14:00     -490.075     -114.427      -27.844      255.458      193.796       98.601    65258.979    37557.056     9722.152       18.327        5.627      503.257      120.019        0.057      346.121       24.137      858.114
05/17/2014  11:15:00     -253.872     -109.948       -2.829      168.172      140.209       70.377    28281.775    19658.606     4952.866        6.471        2.645      276.658       82.734        0.089      346.274       24.401      858.087
05/17/2014  11:16:00     -331.447     -123.855      -22.590      197.659      158.364       76.632    39068.936    25079.310     5872.452        9.785        3.501      353.832       81.266        0.053      346.339       24.511      858.046
05/17/2014  11:17:00     -289.036     -150.324      -36.535      177.880      121.975       66.411    31641.369    14878.012     4410.482        7.919        2.546      325.790       82.230        0.064      346.377       24.579      858.009
05/17/2014  11:18:00     -343.654      -46.711        1.731      193.063      149.218       86.318    37273.274    22266.107     7450.857        9.362        3.350      346.814       81.688        0.055      346.534       24.847      858.003
05/17/2014  11:19:00     -472.737     -150.263       -9.176      252.239      206.658       92.388    63624.501    42707.408     8535.595       18.048        5.743      496.044      100.090        0.041      346.171       24.223      857.948
05/17/2014  11:20:00     -534.753     -271.688      -21.222      271.922      206.210      104.599    73941.622    42522.375    10940.951       24.379        6.370      599.812      123.648        0.042      346.174       24.229      858.020
05/17/2014  11:21:00     -369.186     -266.261      -11.994      224.646      196.966       96.536    50465.838    38795.668     9319.266       15.294        4.929      455.185      101.417        0.050      345.963       23.867      858.072
05/17/2014  11:22:00     -315.098     -157.991      -12.926      133.563      122.427       76.097    17839.116    14988.425     5790.682        8.151        1.931      352.488       72.527        0.042      345.983       23.899      858.096
05/17/2014  11:23:00      -84.898      -81.938        9.504      111.636      130.706       62.057    12462.585    17083.999     3851.070        2.370        1.670      117.989       54.019        0.210      346.380       24.584      858.061
05/17/2014  11:24:00     -117.061     -142.418       -6.246      132.131      129.208       60.868    17458.573    16694.826     3704.908        3.593        1.893      184.353       40.070        0.047      346.168       24.218      858.104
05/17/2014  11:25:00     -266.071      -14.535       -2.938      139.768      148.971       68.642    19535.067    22192.391     4711.664        5.872        2.322      266.468       66.223        0.062      346.330       24.498      858.103
05/17/2014  11:26:00     -349.015     -115.287      -11.819      194.411      157.461       75.799    37795.473    24793.923     5745.562       10.177        3.417      367.563       88.304        0.058      346.265       24.384      858.107
05/17/2014  11:27:00     -302.136     -205.295      -16.443      224.803      149.831       92.406    50536.512    22449.422     8538.900       10.760        4.076      365.284      101.860        0.078      346.216       24.300      858.089
05/17/2014  11:28:00     -187.902     -197.550       20.501      164.655      127.307       76.157    27111.362    16207.167     5799.951        6.193        2.456      272.641       82.893        0.092      346.213       24.295      858.079
05/17/2014  11:29:00     -317.196     -156.312        1.075      205.263      172.478       83.073    42132.965    29748.602     6901.148       10.190        3.939      353.620       92.241        0.068      346.307       24.457      858.094
05/17/2014  11:30:00     -278.873     -103.510       10.805      175.888      137.915       71.230    30936.756    19020.572     5073.769        7.181        2.752      297.464       64.396        0.047      346.227       24.319      858.069
05/17/2014  11:31:00     -161.174      -91.698       -2.141       88.408       93.392       43.035     7815.988     8722.059     1852.010        2.639        0.920      185.433       42.495        0.053      346.529       24.839      858.042
05/17/2014  11:32:00     -189.902     -175.224       15.204      147.330      167.135       69.788    21706.260    27934.215     4870.354        6.074        2.726      258.392       74.040        0.082      346.357       24.543      858.017
05/17/2014  11:33:00     -237.487      -65.710        2.738      127.236      109.927       62.350    16188.907    12083.939     3887.508        4.644        1.608      246.410       56.646        0.053      346.359       24.546      857.946
05/17/2014  11:34:00     -406.149     -254.699        0.056      256.537      158.532      104.103    65811.391    25132.424    10837.522       16.578        5.089      479.404      113.617        0.056      346.316       24.473      857.958
05/17/2014  11:35:00     -170.182     -184.279       43.727      185.409      146.224      102.197    34376.672    21381.475    10444.231        6.550        3.310      250.841      108.749        0.188      346.392       24.603      857.921
05/17/2014  11:36:00     -354.033     -337.733       -7.906      204.195      208.402       93.630    41695.698    43431.574     8766.661       16.666        4.695      489.288       95.559        0.038      346.115       24.126      857.918
05/17/2014  11:37:00     -292.030     -304.087        8.458      169.127      171.656       75.855    28603.778    29465.849     5754.017       12.081        3.191      421.605       77.206        0.034      346.019       23.962      857.905
05/17/2014  11:38:00     -310.004     -215.112       12.301      218.557      144.314       85.477    47767.117    20826.393     7306.321       10.920        3.795      377.327      100.818        0.071      346.145       24.180      857.842
05/17/2014  11:39:00     -345.949     -252.571       18.597      243.232      190.722      103.699    59161.862    36374.906    10753.482       14.503        5.315      428.338      121.593        0.081      346.314       24.469      857.796
05/17/2014  11:40:00     -454.061     -142.025      -25.925      167.666      158.997       78.321    28112.018    25279.906     6134.227       14.326        2.976      475.755       70.509        0.022      346.422       24.654      857.807
05/17/2014  11:41:00     -751.507      -99.688      -64.334      216.227      227.511      109.067    46754.158    51761.220    11895.616       34.460        5.521      758.090      113.538        0.022      346.221       24.308      857.760
05/17/2014  11:42:00     -589.265     -214.870      -29.328      234.133      197.621      102.344    54818.202    39054.037    10474.252       24.928        5.217      627.218      102.101        0.026      346.288       24.425      857.763
05/17/2014  11:43:00     -636.474     -298.021      -11.453      304.047      210.700      102.790    92444.841    44394.374    10565.703       32.070        7.370      702.792      119.622        0.029      346.096       24.093      857.808
05/17/2014  11:44:00     -465.765     -134.398        4.598      188.708      148.337       81.770    35610.876    22003.751     6686.261       14.965        3.215      484.767       88.067        0.033      346.172       24.225      857.850
05/17/2014  11:45:00     -294.944      -97.302       -5.548      211.752      149.082       82.222    44838.789    22225.427     6760.456        8.514        3.691      310.580       78.810        0.064      346.345       24.522      857.795
05/17/2014  11:46:00     -264.242     -246.823       19.906      260.618      187.736       94.497    67921.502    35244.774     8929.664       12.160        5.605      361.588      124.911        0.119      346.528       24.836      857.739
05/17/2014  11:47:00     -276.239     -136.405       23.159      301.945      208.032      110.535    91170.766    43277.268    12217.994       12.103        7.333      308.082      132.840        0.186      346.606       24.971      857.757
05/17/2014  11:48:00     -505.952     -121.623      -25.158      333.548      168.687      108.955   111254.541    28455.367    11871.263       21.147        7.579      520.365      123.302        0.056      346.209       24.290      857.806
05/17/2014  11:49:00     -718.586     -119.729      -54.577      204.842      225.866       96.570    41960.117    51015.383     9325.672       31.797        5.115      728.492       90.347        0.015      345.859       23.688      857.785
05/17/2014  11:50:00     -317.690     -174.427      -15.775      189.337      174.375       80.182    35848.441    30406.810     6429.099       10.213        3.634      362.425       88.351        0.059      346.165       24.212      857.760
05/17/2014  11:51:00     -226.688      -97.186       16.473      183.654      151.526       82.350    33728.775    22960.214     6781.472        6.227        3.174      246.643       90.731        0.135      346.397       24.611      857.712
05/17/2014  11:52:00     -544.108     -188.848       -7.269      254.551      213.468      118.533    64796.199    45568.489    14049.954       22.807        6.221      575.949      124.319        0.047      346.243       24.345      857.715
05/17/2014  11:53:00     -375.900     -199.049        3.627      249.469      167.336       93.912    62234.590    28001.364     8819.403       13.997        4.953      425.349      106.593        0.063      346.272       24.398      857.747
05/17/2014  11:54:00      -98.877      -49.399       39.955      145.711      120.694       74.335    21231.714    14567.161     5525.644        2.756        2.066      110.531       59.315        0.288      346.727       25.182      857.741
05/17/2014  11:55:00     -310.870     -229.878      -13.799      196.680      157.235       97.350    38683.043    24722.904     9476.980       11.126        3.644      386.632      100.840        0.068      346.439       24.683      857.750
05/17/2014  11:56:00     -331.918     -161.737       -6.754      192.210      145.488       70.223    36944.567    21166.791     4931.230        9.970        3.152      369.227       77.856        0.044      346.361       24.549      857.735
05/17/2014  11:57:00     -334.648     -252.220        2.809      182.723      192.644       87.611    33387.680    37111.656     7675.639       12.688        3.909      419.051       95.909        0.052      346.472       24.740      857.696
05/17/2014  11:58:00     -160.102      -52.417       10.647      154.135      133.166       73.569    23757.618    17733.281     5412.366        3.769        2.345      168.464       72.443        0.185      346.750       25.220      857.674
05/17/2014  11:59:00     -374.959     -114.280        2.479      198.003      175.520       96.904    39205.244    30807.403     9390.311       11.652        3.970      391.988      101.800        0.067      346.544       24.864      857.675
05/17/2014  12:00:00     -317.852        6.038      -13.706      171.091      120.240       74.738    29272.144    14457.569     5585.761        7.528        2.466      317.910       79.916        0.063      346.581       24.928      857.690
05/17/2014  12:01:00     -560.064     -198.268      -14.325      244.119      183.850       86.906    59594.184    33800.747     7552.616       22.705        5.047      594.123      101.261        0.029      346.469       24.735      857.645
05/17/2014  12:02:00     -420.384     -100.278       -9.890      225.771      181.131       92.945    50972.623    32808.481     8638.768       13.963        4.621      432.179      109.659        0.064      346.562       24.895      857.649
05/17/2014  12:03:00     -509.907     -278.246      -25.039      217.072      193.976       96.988    47120.308    37626.797     9406.682       21.608        4.708      580.884      105.927        0.033      346.267       24.388      857.669
05/17/2014  12:04:00     -521.891      -56.265      -47.590      200.424      163.555       82.485    40169.812    26750.212     6803.796       17.575        3.686      524.915       74.019        0.020      346.283       24.415      857.675
05/17/2014  12:05:00     -430.655     -207.437      -13.747      208.667      179.248      116.890    43541.963    32129.965    13663.173       15.899        4.467      478.010      116.783        0.060      346.478       24.751      857.624
05/17/2014  12:06:00     -412.128     -269.234        2.906      252.017      217.342      108.559    63512.481    47237.721    11785.104       18.242        6.127      492.277      120.870        0.060      346.465       24.727      857.637
05/17/2014  12:07:00     -502.554     -146.339      -33.964      217.334      241.803      113.401    47234.036    58468.867    12859.717       19.682        5.928      523.427      120.204        0.053      346.456       24.713      857.661
05/17/2014  12:08:00     -577.101     -114.735      -27.313      217.852      218.990       95.824    47459.458    47956.436     9182.229       22.576        5.230      588.396       99.770        0.029      346.374       24.572      857.711
05/17/2014  12:09:00     -286.316     -275.907       17.102      156.479      187.343       91.471    24485.638    35097.372     8366.870       11.316        3.397      397.620       89.169        0.050      346.520       24.821      857.754
05/17/2014  12:10:00     -212.454     -272.485       -7.354      105.826      129.554       72.507    11199.192    16784.328     5257.268        7.633        1.662      345.521       65.252        0.036      346.129       24.151      857.766
05/17/2014  12:11:00     -230.987     -132.225       -7.342      131.157       83.379       64.969    17202.284     6951.988     4220.940        4.963        1.419      266.155       63.084        0.056      346.373       24.570      857.734
05/17/2014  12:12:00     -559.244     -187.996      -14.957      275.195      237.451      112.678    75732.254    56382.790    12696.315       24.654        7.241      589.997      139.205        0.056      346.345       24.523      857.699
05/17/2014  12:13:00     -281.121      -86.182       13.829      228.282      165.771       96.694    52112.464    27480.064     9349.642        8.778        4.447      294.034      108.263        0.136      346.634       25.020      857.670
05/17/2014  12:14:00     -536.792     -262.471      -13.293      216.033      166.915      101.482    46670.342    27860.561    10298.501       22.100        4.241      597.525      110.529        0.034      346.325       24.487      857.693
05/17/2014  12:15:00     -409.593       -0.030      -23.990      139.669      168.465       73.805    19507.297    28380.615     5447.236       11.083        2.667      409.593       67.927        0.028      346.486       24.764      857.699
05/17/2014  12:16:00     -193.760      -63.007       -4.434      161.911      164.451       79.091    26215.040    27044.150     6255.346        5.051        2.976      203.746       86.059        0.178      346.904       25.485      857.677
05/17/2014  12:17:00     -489.689     -330.068        3.307      278.554      223.620      113.024    77592.455    50005.739    12774.392       24.453        7.019      590.542      148.655        0.063      346.438       24.683      857.639
05/17/2014  12:18:00     -430.100     -225.519       -3.888      294.436      164.062      107.709    86692.375    26916.358    11601.268       18.051        6.261      485.638      139.803        0.083      346.325       24.488      857.675
05/17/2014  12:19:00     -439.307     -286.844        2.011      251.529      157.045      101.588    63266.761    24663.135    10320.199       18.674        4.913      524.662      118.758        0.051      346.226       24.317      857.695
05/17/2014  12:20:00     -348.564     -240.643        9.025      193.339      171.495       88.613    37379.865    29410.679     7852.191       12.705        3.732      423.563      100.606        0.056      346.403       24.622      857.676
05/17/2014  12:21:00     -313.349     -226.715        0.313      224.510      166.663      102.113    50404.560    27776.572    10427.046       11.908        4.430      386.765      112.042        0.084      346.418       24.648      857.667
05/17/2014  12:22:00     -473.435     -155.980      -13.070      197.783      194.398       89.391    39118.312    37790.769     7990.798       16.675        4.245      498.468       93.166        0.035      346.307       24.455      857.624
05/17/2014  12:23:00     -568.388     -178.620      -33.023      285.856      168.308      125.072    81713.636    28327.630    15643.063       24.085        6.284      595.794      153.304        0.066      346.356       24.542      857.557
05/17/2014  12:24:00     -476.220     -139.390      -30.062      321.814      166.448       91.637   103563.983    27705.019     8397.365       19.337        6.983      496.201      123.478        0.062      346.344       24.521      857.589
05/17/2014  12:25:00     -382.717     -251.831      -10.705      189.473      154.901       97.657    35899.910    23994.232     9536.847       13.970        3.472      458.139      102.245        0.050      346.402       24.621      857.577
05/17/2014  12:26:00     -403.420     -184.470        6.179      274.322      159.677      106.389    75252.774    25496.615    11318.647       15.442        5.603      443.595      123.672        0.078      346.471       24.741      857.591
05/17/2014  12:27:00     -425.133     -124.872      -13.200      229.585      196.072      103.878    52709.296    38444.228    10790.691       14.920        5.097      443.092      113.097        0.065      346.339       24.511      857.589
05/17/2014  12:28:00     -379.452      -64.441        1.221      209.174      175.195       94.644    43753.688    30693.349     8957.506       11.575        4.170      384.885      105.977        0.076      346.601       24.964      857.572
05/17/2014  12:29:00     -467.724     -179.132      -35.329      252.931      165.559       96.340    63974.046    27409.755     9281.408       17.636        5.033      500.853      118.487        0.056      346.399       24.616      857.621
05/17/2014  12:30:00     -488.428      -24.833      -25.273      242.707      166.819      105.020    58906.528    27828.422    11029.259       16.877        4.888      489.059      121.008        0.061      346.291       24.430      857.621
05/17/2014  12:31:00     -296.870     -198.557       14.983      238.211      170.656       98.483    56744.705    29123.310     9698.855       11.165        4.778      357.151      125.129        0.123      346.479       24.755      857.596
05/17/2014  12:32:00     -427.736      -57.067      -19.216      246.336      188.298       92.341    60681.219    35456.138     8526.773       14.560        5.233      431.526      108.951        0.064      346.461       24.723      857.549
05/17/2014  12:33:00     -659.027     -146.499      -57.673      222.845      199.048       98.852    49660.008    39620.030     9771.661       27.906        4.953      675.113      105.613        0.024      346.312       24.467      857.565
05/17/2014  12:34:00     -454.331     -339.929      -18.615      253.057      208.645      121.276    64037.608    43532.794    14707.861       22.227        6.114      567.423      146.363        0.067      346.344       24.521      857.582
05/17/2014  12:35:00     -338.898      -72.410       17.869      207.475      158.686      106.677    43045.820    25181.372    11380.016        9.999        3.980      346.547      109.345        0.100      346.742       25.204      857.588
05/17/2014  12:36:00     -180.330     -102.758       18.662      154.227      149.701       77.845    23785.905    22410.419     6059.778        4.783        2.613      207.553       76.828        0.137      346.903       25.483      857.644
05/17/2014  12:37:00     -454.503     -228.102      -21.612      229.685      163.970       87.630    52755.335    26886.265     7679.045       17.318        4.366      508.531      102.250        0.040      346.655       25.055      857.637
05/17/2014  12:38:00     -393.145     -257.778        3.620      256.965      245.804      109.681    66030.772    60419.503    12029.916       17.973        6.924      470.120      126.474        0.072      346.587       24.938      857.650
05/17/2014  12:39:00     -549.646     -247.090       -6.921      266.969      180.924      102.787    71272.199    32733.541    10565.242       23.887        5.729      602.631      124.394        0.043      346.203       24.279      857.645
05/17/2014  12:40:00     -320.160     -123.406        8.575      192.615      169.616       83.646    37100.413    28769.491     6996.731        9.532        3.643      343.120       89.558        0.068      346.412       24.639      857.695
05/17/2014  12:41:00     -337.265     -134.349        3.167      192.758      190.524       90.979    37155.489    36299.237     8277.135       10.675        4.087      363.039       96.221        0.070      346.382       24.585      857.680
05/17/2014  12:42:00     -302.400     -230.557       -4.924      166.089      205.631       94.206    27585.593    42284.152     8874.750       11.167        3.937      380.266       95.533        0.063      346.532       24.843      857.662
05/17/2014  12:43:00     -441.790     -195.484       -6.625      261.562      187.835      100.697    68414.562    35281.981    10139.983       17.361        5.692      483.107      124.515        0.066      346.425       24.660      857.655
05/17/2014  12:44:00     -296.035     -198.301       12.681      243.077      166.625       99.450    59086.464    27763.805     9890.277       11.191        4.837      356.315      116.361        0.107      346.402       24.621      857.651
05/17/2014  12:45:00     -464.761      -75.365      -13.026      202.618      153.844       89.535    41054.219    23667.823     8016.501       14.728        3.637      470.831       97.882        0.043      346.426       24.661      857.591
05/17/2014  12:46:00     -447.426       13.154      -12.170      239.327      187.271      108.758    57277.345    35070.390    11828.324       15.232        5.209      447.619      126.480        0.080      346.614       24.986      857.567
05/17/2014  12:47:00     -429.869      -35.288      -11.974      253.631      161.230      100.203    64328.675    25995.117    10040.623       14.325        5.018      431.315      114.712        0.071      346.521       24.824      857.542
05/17/2014  12:48:00     -521.250     -242.184       -7.960      308.530      218.242      112.885    95191.011    47629.694    12742.998       24.296        7.778      574.765      137.562        0.057      346.435       24.678      857.560
05/17/2014  12:49:00     -382.831     -113.307      -16.905      234.265      162.227      104.131    54880.188    26317.461    10843.202       12.584        4.602      399.247      118.192        0.088      346.486       24.764      857.621
05/17/2014  12:50:00     -508.112      -53.646        7.163      297.277      176.949      112.622    88373.686    31311.009    12683.730       19.671        6.618      510.936      125.485        0.060      346.381       24.585      857.575
05/17/2014  12:51:00     -465.262     -208.199      -10.538      225.939      233.051      102.689    51048.305    54312.948    10544.993       18.789        5.795      509.722      100.508        0.039      346.343       24.519      857.563
05/17/2014  12:52:00     -501.121     -125.592      -40.147      230.180      177.288      101.476    52982.804    31430.859    10297.349       18.159        4.736      516.620      111.086        0.046      346.262       24.378      857.559
05/17/2014  12:53:00     -546.698      -47.634      -21.494      259.986      200.188      105.205    67592.625    40075.314    11068.109       21.015        5.937      548.769      120.144        0.048      346.307       24.458      857.534
05/17/2014  12:54:00     -312.889     -225.938       -3.781      205.801      166.979       81.310    42354.099    27881.834     6611.377       11.289        3.842      385.937       92.663        0.058      346.354       24.537      857.552
05/17/2014  12:55:00     -490.080     -249.186      -21.456      252.548      208.482       92.771    63780.733    43464.579     8606.392       20.927        5.793      549.793      105.308        0.037      346.223       24.313      857.517
05/17/2014  12:56:00     -532.631     -166.689      -25.282      309.637      177.768      108.619    95875.047    31601.410    11797.988       22.567        6.964      558.105      147.132        0.069      346.355       24.539      857.501
05/17/2014  12:57:00     -447.957      -71.684      -13.888      259.240      196.360      112.217    67205.509    38557.137    12592.686       16.215        5.918      453.656      132.203        0.085      346.368       24.562      857.501
05/17/2014  12:58:00     -573.873     -140.521        6.595      256.690      275.859      120.243    65889.535    76098.379    14458.486       25.275        7.822      590.827      117.925        0.040      346.282       24.414      857.457
05/17/2014  12:59:00     -625.025     -341.698       -8.183      332.668      243.884      125.517   110667.698    59479.557    15754.474       34.665        9.295      712.330      148.816        0.044      346.094       24.091      857.485
05/17/2014  13:00:00     -524.838     -267.885      -19.802      272.710      174.918      101.410    74370.576    30596.137    10284.068       23.141        5.763      589.252      121.888        0.043      346.217       24.301      857.520
05/17/2014  13:01:00     -569.518     -276.703       -9.456      327.730      212.546      111.239   107407.127    45175.798    12374.087       28.295        8.248      633.179      150.102        0.056      346.188       24.253      857.552
05/17/2014  13:02:00     -343.823     -274.001        6.922      228.236      188.811      106.586    52091.512    35649.467    11360.561       14.620        4.955      439.648      120.539        0.075      346.339       24.513      857.544
05/17/2014  13:03:00     -556.744     -386.206      -23.283      300.710      221.206      127.767    90426.539    48932.164    16324.506       30.764        7.784      677.583      148.276        0.048      346.107       24.112      857.522
05/17/2014  13:04:00     -602.748     -134.349      -20.925      248.821      240.323      110.381    61911.660    57755.131    12184.055       25.680        6.593      617.540      128.938        0.044      346.181       24.239      857.594
05/17/2014  13:05:00     -476.361     -260.627       -2.539      207.827      196.597      106.017    43192.024    38650.471    11239.704       19.395        4.654      542.998      108.982        0.040      346.017       23.957      857.622
05/17/2014  13:06:00     -480.583     -269.190      -23.942      276.751      180.777      112.254    76591.208    32680.167    12600.936       21.291        6.094      550.839      138.899        0.064      346.062       24.035      857.589
05/17/2014  13:07:00     -572.159     -289.600      -30.714      232.913      209.531      126.426    54248.546    43903.239    15983.428       26.313        5.707      641.275      120.810        0.035      345.991       23.913      857.561
05/17/2014  13:08:00     -425.663     -187.320       -8.559      248.216      234.201      125.251    61611.017    54850.329    15687.935       17.422        6.607      465.057      141.945        0.093      346.193       24.260      857.576
05/17/2014  13:09:00     -403.959     -142.367      -21.577      281.413      168.018       95.252    79193.540    28230.100     9072.890       15.018        5.825      428.312      113.800        0.071      346.156       24.199      857.600
05/17/2014  13:10:00     -400.242      -95.744       16.548      222.823      228.733      119.552    49650.073    52318.970    14292.732       14.292        5.813      411.534      115.882        0.079      346.125       24.144      857.575
05/17/2014  13:11:00     -309.260     -203.783       16.182      255.498      241.532      108.896    65279.231    58337.864    11858.321       13.643        6.774      370.363      137.819        0.138      346.118       24.133      857.569
05/17/2014  13:12:00     -334.056     -197.985       -4.879      296.488      181.855      107.774    87904.930    33071.072    11615.232       14.168        6.630      388.319      145.076        0.140      346.205       24.282      857.582
05/17/2014  13:13:00     -308.620     -227.034       20.235      236.196      192.407      113.333    55788.412    37020.387    12844.300       12.641        5.283      383.133      124.038        0.105      346.068       24.046      857.540
05/17/2014  13:14:00     -394.218      -13.810       -6.165      271.460      175.006       92.433    73690.775    30626.991     8543.886       13.423        5.643      394.459      104.109        0.070      346.347       24.525      857.612
05/17/2014  13:15:00     -292.719      -60.447       -0.908      173.771      142.285       92.574    30196.382    20244.940     8569.998        7.416        2.951      298.895       95.700        0.103      346.330       24.496      857.597
05/17/2014  13:16:00     -458.181     -124.669       -2.920      218.525      187.879      102.539    47753.151    35298.697    10514.215       15.950        4.678      474.839      107.182        0.051      346.145       24.179      857.622
05/17/2014  13:17:00     -362.625     -193.438      -18.144      210.628      176.465       85.055    44364.047    31139.997     7234.397       12.597        4.137      410.993      101.050        0.060      346.137       24.165      857.622
05/17/2014  13:18:00     -244.085     -123.051       -7.283      185.437      157.424       91.519    34386.959    24782.361     8375.733        7.115        3.377      273.348       90.156        0.109      346.270       24.394      857.578
05/17/2014  13:19:00     -531.312     -339.471      -20.184      363.581      318.796      137.463   132190.784   101631.148    18896.213       32.528       12.636      630.502      160.507        0.065      346.060       24.033      857.556
05/17/2014  13:20:00     -293.470     -191.272      -16.643      221.698      165.619       94.546    49150.022    27429.516     8938.859       10.424        4.276      350.300       86.803        0.061      346.170       24.222      857.555
05/17/2014  13:21:00     -495.930     -107.673      -32.994      243.351      163.025       96.853    59219.917    26577.033     9380.526       17.688        4.759      507.485      104.305        0.042      346.109       24.115      857.552
05/17/2014  13:22:00     -388.362     -254.247       22.142      276.296      255.919      124.598    76339.699    65494.659    15524.575       18.663        7.868      464.184      136.361        0.086      345.995       23.922      857.551
05/17/2014  13:23:00     -352.801     -222.487        9.596      229.339      214.556      120.185    52596.274    46034.213    14444.459       14.355        5.654      417.096      126.459        0.092      346.039       23.996      857.549
05/17/2014  13:24:00     -310.349       11.047       22.220      238.204      181.295      109.320    56741.324    32867.713    11950.788        9.923        5.078      310.545      119.541        0.148      346.218       24.302      857.571
05/17/2014  13:25:00     -392.612     -270.751       -5.772      260.261      180.378      100.312    67736.039    32536.094    10062.590       16.889        5.517      476.917      113.334        0.056      346.039       23.996      857.550
05/17/2014  13:26:00     -279.109      -82.943       21.017      233.403      183.248      123.066    54476.882    33579.663    15145.311        9.419        5.160      291.173      129.967        0.199      346.346       24.525      857.533
05/17/2014  13:27:00     -479.651     -205.359       -7.291      302.008      215.091      139.324    91209.044    46264.265    19411.133       21.456        7.844      521.764      158.111        0.092      346.225       24.316      857.513
05/17/2014  13:28:00     -391.767      -10.350       18.892      255.801      176.975      119.346    65434.269    31320.300    14243.521       13.245        5.550      391.904      138.719        0.125      346.287       24.424      857.545
05/17/2014  13:29:00     -399.297     -196.910       14.259      248.897      207.961      110.427    61949.828    43247.673    12194.231       15.788        5.870      445.210      124.714        0.078      346.135       24.161      857.584
05/17/2014  13:30:00     -295.633     -204.858       24.556      209.727      156.109       99.849    43985.378    24369.935     9969.843       10.413        3.916      359.675      113.425        0.099      346.223       24.313      857.559
05/17/2014  13:31:00     -339.180     -175.177        1.025      219.663      223.511      108.770    48251.758    49957.167    11830.894       12.786        5.502      381.746      126.518        0.110      346.353       24.536      857.552
05/17/2014  13:32:00     -486.564     -181.803      -31.321      255.587      184.872      108.350    65324.607    34177.805    11739.781       19.099        5.562      519.420      120.446        0.054      346.301       24.447      857.531
05/17/2014  13:33:00     -234.341      -78.823       20.537      233.360      181.456       96.647    54456.871    32926.399     9340.599        7.912        4.836      247.242      109.444        0.196      346.486       24.766      857.515
05/17/2014  13:34:00     -450.184     -170.350      -10.244      248.800      290.766      111.560    61901.595    84544.690    12445.633       19.531        7.945      481.337      104.346        0.047      346.297       24.439      857.541
05/17/2014  13:35:00     -494.985     -149.775       -8.688      357.014      226.700      130.223   127458.935    51392.847    16958.119       23.163        9.790      517.149      162.849        0.099      346.176       24.233      857.544
05/17/2014  13:36:00     -501.615     -316.193      -28.486      204.653      222.512      105.557    41882.856    49511.663    11142.357       22.745        5.127      592.955      105.999        0.032      345.988       23.909      857.593
05/17/2014  13:37:00     -369.153     -239.106       11.928      221.695      192.964       98.178    49148.555    37235.188     9638.982       14.479        4.801      439.825      116.859        0.071      345.969       23.876      857.570
05/17/2014  13:38:00     -326.107     -272.000      -14.797      188.051      179.014      102.463    35363.044    32046.027    10498.570       12.921        3.895      424.653      101.806        0.057      346.052       24.018      857.545
05/17/2014  13:39:00     -329.300      -81.043       -6.413      234.903      134.093       92.912    55179.607    17981.052     8632.682        9.840        4.090      339.126      113.922        0.113      346.285       24.417      857.527
05/17/2014  13:40:00     -386.368     -218.843      -17.222      248.600      205.725      113.595    61802.082    42322.603    12903.721       15.723        5.851      444.042      130.943        0.087      346.355       24.540      857.514
05/17/2014  13:41:00     -531.155     -115.496      -29.470      204.405      190.091      104.104    41781.204    36134.699    10837.541       19.253        4.438      543.566       91.145        0.028      346.322       24.484      857.483
05/17/2014  13:42:00     -667.394      -72.468      -30.078      230.239      232.853      111.602    53009.810    54220.730    12455.060       28.560        5.984      671.317      120.602        0.032      346.088       24.080      857.452
05/17/2014  13:43:00     -609.790     -146.284      -50.816      264.534      200.043      111.436    69978.030    40017.314    12417.922       25.909        6.121      627.091      124.675        0.040      346.188       24.252      857.420
05/17/2014  13:44:00     -459.950      -21.117       -2.595      266.562      178.965      101.877    71055.123    32028.528    10378.889       16.271        5.673      460.434      108.265        0.055      346.476       24.747      857.426
05/17/2014  13:45:00     -679.475     -173.719      -35.573      284.469      217.795      112.002    80922.491    47434.457    12544.466       31.699        7.045      701.330      122.280        0.030      346.225       24.315      857.400
05/17/2014  13:46:00     -353.905      -53.360       -4.343      232.267      179.257       80.551    53947.938    32133.101     6488.398       11.032        4.628      357.905       89.904        0.063      346.578       24.922      857.441
05/17/2014  13:47:00     -425.689     -218.139      -22.806      162.624      218.000       90.001    26446.638    47524.082     8100.201       15.568        4.104      478.326       95.215        0.040      346.313       24.469      857.452
05/17/2014  13:48:00     -365.752     -128.953       -1.422      240.555      223.987       88.716    57866.473    50170.018     7870.506       13.313        5.795      387.819      108.092        0.078      346.459       24.719      857.498
05/17/2014  13:49:00     -362.846     -183.012      -12.194      224.625      178.358       99.976    50456.273    31811.664     9995.223       12.876        4.613      406.387      102.213        0.063      346.167       24.216      857.454
05/17/2014  13:50:00     -115.570      -55.794        4.881      204.982      102.635       69.287    42017.600    10533.952     4800.722        3.691        2.868      128.333       70.199        0.299      346.565       24.902      857.436
05/17/2014  13:51:00     -427.174      -59.233       -5.918      165.750      170.586       86.027    27473.188    29099.600     7400.605       12.498        3.199      431.261       88.106        0.042      346.493       24.778      857.431
05/17/2014  13:52:00     -340.907     -137.626       26.480      303.442      167.833      104.205    92077.154    28167.785    10858.728       13.346        6.555      367.639      131.068        0.127      346.426       24.661      857.421
05/17/2014  13:53:00     -495.084      -48.754      -22.578      299.568      216.880      114.453    89740.862    47036.979    13099.415       19.891        7.494      497.479      145.478        0.086      346.403       24.623      857.400
05/17/2014  13:54:00     -301.045     -186.124      -13.786      169.738      172.226       68.108    28811.054    29661.954     4638.659        9.427        3.156      353.936       68.854        0.038      346.403       24.622      857.411
05/17/2014  13:55:00     -281.094      -33.100        2.445      210.527      136.441       85.561    44321.432    18616.187     7320.754        7.517        3.513      283.036      104.081        0.135      346.648       25.045      857.405
05/17/2014  13:56:00     -310.880     -176.546        5.183      220.104      175.417       87.955    48445.867    30770.980     7736.085       10.738        4.348      357.512      104.520        0.085      346.607       24.974      857.385
05/17/2014  13:57:00     -474.830      -86.338       -2.632      288.136      269.366      116.291    83022.554    72557.986    13523.560       20.098        8.455      482.616      147.193        0.093      346.644       25.037      857.328
05/17/2014  13:58:00     -430.190     -257.934       -2.223      354.801      241.576      143.697   125883.505    58359.008    20648.752       22.820       10.245      501.591      154.758        0.095      346.410       24.634      857.314
05/17/2014  13:59:00     -461.137     -113.483      -18.789      366.836      195.629      130.657   134568.731    38270.667    17071.325       20.786        9.496      474.896      174.219        0.135      346.608       24.974      857.361
05/17/2014  14:00:00     -328.557     -105.549        2.821      257.778      204.209      113.076    66449.500    41701.280    12786.243       11.999        6.047      345.095      137.874        0.160      346.609       24.976      857.383
05/17/2014  14:01:00     -601.646      -89.916      -18.889      305.547      219.485      108.332    93358.807    48173.604    11735.803       26.181        7.663      608.328      127.746        0.044      346.279       24.408      857.369
05/17/2014  14:02:00     -206.398     -101.215       11.548      174.688      141.493       69.710    30515.862    20020.311     4859.419        5.418        2.770      229.880       78.110        0.115      346.537       24.853      857.367
05/17/2014  14:03:00     -230.119     -136.498       13.298      135.027      147.874       79.011    18232.225    21866.838     6242.723        5.904        2.317      267.557       68.541        0.066      346.708       25.146      857.350
05/17/2014  14:04:00     -452.034       45.039      -13.222      214.698      156.895       99.327    46095.385    24616.078     9865.899       14.354        4.029      454.272      106.964        0.055      346.504       24.795      857.316
05/17/2014  14:05:00     -290.812     -131.040        7.456      226.859      133.554       98.456    51464.933    17836.655     9693.530        9.038        3.950      318.972      123.262        0.149      346.809       25.321      857.366
05/17/2014  14:06:00     -335.396     -198.904       12.747      242.583      190.674      106.498    58846.506    36356.678    11341.892       12.936        5.327      389.940      123.216        0.100      346.530       24.839      857.419
05/17/2014  14:07:00     -298.630      -32.266       24.715      191.387      138.148       79.547    36628.808    19084.919     6327.795        7.642        3.102      300.368       66.980        0.050      346.197       24.266      857.397
05/17/2014  14:08:00     -295.524     -171.415      -29.407      148.943      171.352       80.227    22184.044    29361.636     6436.427        8.777        2.899      341.640       91.097        0.071      346.231       24.326      857.386
05/17/2014  14:09:00     -392.358     -216.597       -9.054      229.986      172.797      100.408    52893.443    29858.643    10081.838       14.687        4.642      448.173      118.657        0.070      346.408       24.629      857.310
05/17/2014  14:10:00     -403.018      -68.328      -13.585      261.806      182.184       97.824    68542.157    33191.013     9569.469       13.927        5.565      408.769      108.574        0.071      346.713       25.155      857.271
05/17/2014  14:11:00     -664.522     -293.037      -15.232      331.494      294.744      128.545   109888.471    86874.068    16523.861       37.045       10.664      726.265      162.093        0.050      346.502       24.793      857.264
05/17/2014  14:12:00     -628.389     -293.236      -38.173      279.957      300.205      115.189    78375.726    90123.111    13268.573       33.201        9.088      693.440      130.454        0.035      346.150       24.187      857.353
05/17/2014  14:13:00     -218.402     -128.696       37.106      226.824      148.079      107.266    51449.067    21927.512    11506.061        7.524        4.244      253.499      120.581        0.226      346.498       24.786      857.314
05/17/2014  14:14:00     -552.728     -313.733      -12.523      261.048      207.619      115.501    68146.132    43105.698    13340.583       26.432        6.230      635.560      120.336        0.036      346.289       24.426      857.316
05/17/2014  14:15:00     -359.365     -125.801        2.230      367.558      204.161      116.735   135099.120    41681.594    13627.114       16.765        9.520      380.748      156.511        0.169      346.574       24.917      857.309
05/17/2014  14:16:00     -597.765     -177.049      -31.397      306.079      182.219      105.840    93684.331    33203.888    11202.088       26.385        6.905      623.434      120.859        0.038      346.353       24.536      857.300
05/17/2014  14:17:00     -461.190     -168.987      -19.344      225.943      250.642      108.419    51050.359    62821.192    11754.581       18.360        6.281      491.175      109.912        0.050      346.381       24.585      857.303
05/17/2014  14:18:00     -395.896     -104.756       -8.792      191.806      190.305       96.052    36789.373    36216.149     9226.076       12.499        4.112      409.521      104.064        0.065      346.455       24.712      857.303
05/17/2014  14:19:00     -285.277      -15.331       -4.487      165.759      142.413       74.535    27476.138    20281.542     5555.464        6.747        2.666      285.688       74.181        0.067      346.436       24.680      857.280
05/17/2014  14:20:00     -609.016     -204.604       -2.329      275.866      167.694       78.979    76102.098    28121.383     6237.751       26.159        5.523      642.467       86.463        0.018      346.384       24.590      857.220
05/17/2014  14:21:00     -616.125     -102.767      -14.466      305.933      196.057      110.667    93594.938    38438.498    12247.245       26.730        7.214      624.637      142.117        0.052      346.421       24.653      857.176
05/17/2014  14:22:00     -417.649      -76.391       -7.407      209.849      147.613       84.238    44036.410    21789.642     7096.013       12.661        3.646      424.578       90.972        0.046      346.606       24.972      857.191
05/17/2014  14:23:00     -578.850      -66.177      -22.977      292.890      176.273      122.176    85784.645    31072.262    14926.877       23.585        6.589      582.620      140.933        0.059      346.353       24.537      857.204
05/17/2014  14:24:00     -356.381     -260.279        5.225      273.600      182.034      108.510    74856.960    33136.341    11774.501       15.725        5.988      441.308      126.026        0.082      346.452       24.707      857.219
05/17/2014  14:25:00     -466.930     -164.493      -32.850      227.934      209.801      106.322    51953.969    44016.514    11304.293       17.670        5.364      495.057       94.749        0.037      346.320       24.479      857.195
05/17/2014  14:26:00     -527.988      -59.475      -28.074      240.675      216.612      101.619    57924.257    46920.919    10326.360       19.911        5.759      531.327      104.742        0.039      346.411       24.635      857.149
05/17/2014  14:27:00     -400.790      -91.770      -24.601      209.535      169.437       70.091    43905.108    28708.730     4912.811       12.358        3.876      411.162       86.552        0.044      346.653       25.052      857.167
05/17/2014  14:28:00     -512.057      -98.459      -13.220      284.257      235.925      103.730    80801.776    55660.785    10759.867       20.962        7.361      521.437      121.875        0.055      346.445       24.695      857.142
05/17/2014  14:29:00     -365.760     -195.892       13.366      362.273      205.357      140.308   131241.876    42171.438    19686.277       18.268        9.655      414.915      178.811        0.186      346.597       24.956      857.142
05/17/2014  14:30:00     -382.340     -301.103       -4.166      290.902      208.937      138.844    84624.117    43654.770    19277.771       19.218        7.378      486.669      164.573        0.114      346.317       24.474      857.149
05/17/2014  14:31:00     -499.807     -384.043       12.760      325.141      256.419      142.395   105716.679    65750.794    20276.255       29.456        9.587      630.314      173.533        0.076      346.144       24.177      857.132
05/17/2014  14:32:00     -429.473     -175.012       -1.374      245.264      185.588      106.468    60154.341    34442.777    11335.352       16.048        5.297      463.763      115.903        0.062      346.395       24.610      857.145
05/17/2014  14:33:00     -493.241     -188.035      -12.757      323.124      220.722      104.102   104409.302    48718.333    10837.247       22.135        8.198      527.867      123.110        0.054      346.370       24.564      857.122
05/17/2014  14:34:00     -489.595     -226.891      -15.976      278.617      230.769      114.986    77627.405    53254.349    13221.824       21.774        7.205      539.614      128.462        0.057      346.322       24.483      857.113
05/17/2014  14:35:00     -497.765      -77.210      -14.890      321.075      182.346      115.206   103089.134    33249.960    13272.531       20.175        7.481      503.717      132.040        0.069      346.450       24.703      857.127
05/17/2014  14:36:00     -614.017     -190.678      -21.197      258.033      183.688      106.545    66580.786    33741.389    11351.896       26.273        5.584      642.942      119.323        0.034      346.211       24.292      857.172
05/17/2014  14:37:00     -514.678     -135.618      -33.785      230.607      234.647       87.741    53179.550    55059.011     7698.416       20.016        5.797      532.246       93.506        0.031      346.176       24.232      857.156
05/17/2014  14:38:00     -346.850      -53.572      -14.280      211.384      163.939       84.447    44683.314    26876.104     7131.359       10.102        3.935      350.963       93.137        0.070      346.599       24.960      857.147
05/17/2014  14:39:00     -351.991     -191.808       -5.884      179.833      132.348       81.361    32339.959    17515.900     6619.681       10.859        2.824      400.859       85.897        0.046      346.649       25.045      857.111
05/17/2014  14:40:00     -495.293     -176.373      -22.441      251.182      198.653      106.773    63092.595    39463.061    11400.451       19.542        5.698      525.759      116.449        0.049      346.386       24.594      857.073
05/17/2014  14:41:00     -371.746      -93.871      -20.163      195.626      188.503      113.919    38269.709    35533.323    12977.477       11.708        4.339      383.415       76.167        0.039      346.577       24.923      856.996
05/17/2014  14:42:00     -639.395     -346.393      -11.409      323.408      253.135      121.500   104593.057    64077.547    14762.129       35.615        9.172      727.196      133.272        0.034      346.368       24.563      856.998
05/17/2014  14:43:00     -422.084     -281.203       -6.557      283.688      222.426      126.325    80478.667    49473.309    15958.002       20.156        7.295      507.178      146.016        0.083      346.401       24.619      856.969
05/17/2014  14:44:00     -603.036     -193.492      -19.963      309.787      249.649      143.423    95967.848    62324.868    20570.128       29.014        8.943      633.318      144.401        0.052      346.499       24.787      856.991
05/17/2014  14:45:00     -444.455     -258.611      -20.286      306.641      209.808      128.271    94028.457    44019.359    16453.360       20.964        7.725      514.218      143.728        0.078      346.350       24.531      857.083
05/17/2014  14:46:00     -382.484      -68.509      -15.106      218.828      187.443       94.312    47885.813    35135.059     8894.794       12.155        4.596      388.571      102.704        0.070      346.590       24.943      857.105
05/17/2014  14:47:00     -606.827     -194.414      -29.436      270.336      198.677      116.561    73081.555    39472.738    13586.356       26.650        6.307      637.209      110.349        0.030      346.254       24.365      857.086
05/17/2014  14:48:00     -350.422     -153.419       -1.067      195.958      164.515       86.574    38399.638    27065.256     7495.129       10.963        3.648      382.534       95.764        0.063      346.582       24.931      857.074
05/17/2014  14:49:00     -388.621     -210.716      -17.792      222.245      230.523      109.554    49392.715    53140.715    12001.979       15.512        5.727      442.072      107.372        0.059      346.625       25.004      857.076
05/17/2014  14:50:00     -362.822     -230.809       11.267      262.898      245.732      118.548    69115.411    60384.312    14053.693       16.427        7.178      430.015      145.612        0.115      346.496       24.783      857.081
05/17/2014  14:51:00     -475.855     -212.406        1.794      283.622      227.393      108.173    80441.548    51707.616    11701.388       20.768        7.193      521.109      129.228        0.061      346.531       24.841      857.072
05/17/2014  14:52:00     -422.167     -189.364       -0.731      268.499      267.781      129.199    72091.816    71706.792    16692.467       18.726        8.025      462.692      153.433        0.110      346.340       24.515      857.037
05/17/2014  14:53:00     -478.159     -282.998      -19.955      243.920      216.883      102.034    59496.872    47038.163    10411.029       21.301        5.847      555.629      130.885        0.055      346.358       24.544      857.027
05/17/2014  14:54:00     -720.031     -221.582      -30.391      351.559      203.025      129.191   123593.980    41219.290    16690.410       37.495        9.075      753.355      149.019        0.039      346.472       24.741      857.047
05/17/2014  14:55:00     -565.852     -195.866      -13.968      319.089      277.142      119.025   101817.976    76807.846    14167.051       27.573        9.640      598.792      134.706        0.051      346.345       24.523      857.047
05/17/2014  14:56:00     -468.504     -197.561       -0.088      344.617      229.038      139.673   118760.551    52458.629    19508.440       22.459        9.536      508.455      165.574        0.106      346.438       24.682      857.068
05/17/2014  14:57:00     -355.340     -133.173        7.658      280.976      183.412      117.472    78947.449    33639.892    13799.683       13.520        6.319      379.475      138.993        0.134      346.462       24.724      857.134
05/17/2014  14:58:00     -391.503     -115.448       -5.373      187.074      227.360       89.345    34996.633    51692.408     7982.614       13.063        4.734      408.170       84.710        0.043      346.438       24.682      857.159
05/17/2014  14:59:00     -237.478     -113.002        6.427      178.748      141.052       92.629    31950.738    19895.568     8580.142        6.480        3.021      262.993       91.961        0.122      346.378       24.580      857.111
05/17/2014  15:00:00     -388.623     -218.419       -1.661      230.913      167.220       88.162    53320.688    27962.394     7772.597       14.388        4.453      445.796      100.121        0.050      346.261       24.378      857.080
05/17/2014  15:01:00     -674.714     -212.944      -16.766      301.445      199.534      123.408    90869.271    39813.968    15229.652       32.336        7.296      707.519      131.428        0.035      346.283       24.416      857.064
05/17/2014  15:02:00     -644.079     -260.475      -14.841      271.158      173.010      106.608    73526.735    29932.419    11365.193       29.884        5.741      694.755      123.408        0.032      346.109       24.117      857.049
05/17/2014  15:03:00     -456.508     -161.716      -16.749      257.205      239.419      113.168    66154.413    57321.664    12806.921       18.553        6.814      484.305      118.525        0.060      346.198       24.269      857.052
05/17/2014  15:04:00     -547.850      -89.493      -14.399      212.035      235.784       99.766    44958.992    55594.187     9953.166       20.941        5.525      555.111      104.188        0.035      346.260       24.375      857.042
05/17/2014  15:05:00     -115.802     -101.931       16.671      234.231      154.092      114.040    54863.990    23744.314    13005.225        5.783        4.581      154.273      125.173        0.658      346.646       25.040      857.045
05/17/2014  15:06:00     -539.144     -207.530      -17.201      250.926      190.046      103.608    62963.612    36117.371    10734.577       22.191        5.491      577.706      114.793        0.039      346.527       24.835      857.057
05/17/2014  15:07:00     -528.166     -186.690       -8.010      300.082      209.841      108.147    90049.223    44033.321    11695.753       22.980        7.289      560.190      134.162        0.057      346.469       24.733      857.050
05/17/2014  15:08:00     -487.387       53.464      -17.371      314.788      240.355      127.743    99091.367    57770.563    16318.196       20.691        8.659      490.310      142.562        0.085      346.497       24.782      857.006
05/17/2014  15:09:00     -582.566     -140.159      -15.077      276.272      212.714      127.303    76326.257    45247.199    16205.982       24.849        6.889      599.189      128.855        0.046      346.441       24.688      857.014
05/17/2014  15:10:00     -487.340     -183.286        4.164      285.016      219.646      115.716    81234.399    48244.161    13390.141       20.696        7.143      520.667      135.460        0.068      346.143       24.176      857.063
05/17/2014  15:11:00     -539.842     -206.124       -2.557      291.857      226.974      115.479    85180.602    51517.003    13335.292       24.195        7.502      577.855      125.414        0.047      346.165       24.214      857.044
05/17/2014  15:12:00     -247.693     -136.816       15.887      277.738      186.311      120.630    77138.486    34711.682    14551.555       10.334        6.320      282.967      147.511        0.272      346.389       24.597      857.043
05/17/2014  15:13:00     -391.053     -140.988        3.337      247.638      168.771       95.742    61324.466    28483.812     9166.454       13.587        4.949      415.693      122.025        0.086      346.623       25.001      857.151
05/17/2014  15:14:00     -364.082     -247.302       -6.205      282.877      230.354       92.372    80019.277    53062.987     8532.560       16.766        7.081      440.130      101.790        0.053      346.296       24.438      857.155
05/17/2014  15:15:00     -580.873     -223.725      -16.805      295.902      197.224       97.493    87557.758    38897.500     9504.821       26.183        6.798      622.468      129.965        0.044      346.166       24.213      857.143
05/17/2014  15:16:00     -378.314     -281.340      -19.162      200.452      204.812      100.254    40180.876    41947.912    10050.936       15.739        4.609      471.459      112.655        0.057      346.143       24.174      857.128
05/17/2014  15:17:00     -454.676     -252.696       -0.860      263.043      203.047      110.703    69191.494    41228.163    12255.252       19.661        6.134      520.179      132.527        0.065      346.112       24.121      857.109
05/17/2014  15:18:00     -457.657     -295.532        0.503      268.658      206.269      103.424    72177.012    42546.972    10696.528       21.108        6.271      544.783      107.726        0.039      346.042       24.002      857.125
05/17/2014  15:19:00     -308.825     -315.568        7.959      231.178      184.069      104.238    53443.498    33881.559    10865.558       14.659        4.910      441.539      115.523        0.068      345.833       23.643      857.131
05/17/2014  15:20:00     -361.381     -237.398      -20.318      219.783      151.936       93.424    48304.713    23084.625     8728.115       13.373        4.006      432.382      106.248        0.060      346.176       24.233      857.123
05/17/2014  15:21:00     -257.582      -28.495       11.179      211.819      137.173       81.211    44867.079    18816.331     6595.256        6.877        3.514      259.153       87.867        0.115      346.508       24.803      857.125
05/17/2014  15:22:00     -390.767      -77.409        5.123      244.089      171.751       92.827    59579.585    29498.474     8616.779       12.819        4.885      398.360      112.581        0.080      346.389       24.598      857.081
05/17/2014  15:23:00     -343.196     -135.906       -8.021      188.881      165.021       75.839    35676.077    27231.948     5751.589       10.248        3.433      369.126       87.028        0.056      346.489       24.769      857.113
05/17/2014  15:24:00     -305.941      -95.197       -0.658      185.454      139.173       70.009    34393.066    19369.083     4901.305        8.065        2.933      320.409       86.994        0.074      346.582       24.930      857.100
05/17/2014  15:25:00     -274.925      -58.697        1.846      171.380      139.113       79.233    29370.937    19352.353     6277.823        6.701        2.750      281.121       77.366        0.076      346.540       24.858      857.090
05/17/2014  15:26:00     -387.567     -308.234        5.330      233.862      191.865      102.696    54691.234    36812.337    10546.502       17.363        5.103      495.194      109.104        0.049      346.177       24.232      857.062
05/17/2014  15:27:00     -697.259     -249.204      -27.375      302.239      239.872      116.863    91348.341    57538.745    13657.004       35.575        8.127      740.454      146.140        0.039      346.100       24.102      857.070
05/17/2014  15:28:00     -509.307     -315.120      -14.544      308.387      266.762      134.173    95102.666    71162.214    18002.313       27.155        9.213      598.910      132.765        0.049      346.007       23.941      857.059
05/17/2014  15:29:00     -421.805     -214.447      -10.715      201.352      199.713      101.253    40542.521    39885.235    10252.084       15.733        4.534      473.188      110.673        0.055      346.023       23.968      857.119
05/17/2014  15:30:00     -519.032     -338.596       -7.040      362.665      289.401      118.889   131526.087    83753.136    14134.656       30.671       11.471      619.711      154.637        0.062      345.990       23.913      857.093
05/17/2014  15:31:00     -433.652     -275.211       10.755      273.541      213.843      126.546    74824.871    45728.657    16013.974       20.021        6.828      513.610      136.325        0.070      345.948       23.841      857.097
05/17/2014  15:32:00     -535.711     -294.219      -20.481      245.688      193.793      113.440    60362.504    37555.614    12868.682       24.236        5.539      611.188      123.273        0.041      345.934       23.816      857.121
05/17/2014  15:33:00     -612.306     -347.111      -13.015      298.047      266.246      115.823    88832.301    70886.795    13415.015       33.432        8.657      703.850      127.260        0.033      345.817       23.615      857.085
05/17/2014  15:34:00     -543.236     -314.000       -2.182      276.847      228.351      124.335    76644.219    52144.171    15459.153       26.895        7.212      627.456      133.113        0.045      345.817       23.616      857.124
05/17/2014  15:35:00     -407.659     -265.422       -5.475      278.447      258.308      114.444    77532.889    66723.240    13097.519       19.698        7.868      486.451      135.314        0.077      346.022       23.968      857.088
05/17/2014  15:36:00     -495.387     -273.764       -6.622      347.778      221.523      117.612   120949.876    49072.315    13832.682       25.209        9.193      565.999      157.323        0.077      345.944       23.833      857.130
05/17/2014  15:37:00     -432.095     -194.098       -3.789      254.610      233.368      104.728    64826.054    54460.478    10967.982       17.730        6.513      473.688      109.482        0.053      345.863       23.694      857.131
05/17/2014  15:38:00     -280.469     -131.862       -4.725      243.948      171.286       90.441    59510.623    29338.922     8179.637        9.653        4.851      309.920      103.216        0.111      346.091       24.086      857.132
05/17/2014  15:39:00     -345.013      -44.480       19.292      209.733      164.723       94.679    43988.032    27133.760     8964.087       10.072        4.004      347.868      106.391        0.094      346.157       24.200      857.127
05/17/2014  15:40:00     -316.633     -144.798        8.853      199.977      155.934       92.371    39990.903    24315.315     8532.435        9.706        3.642      348.171       94.415        0.074      346.248       24.354      857.122
05/17/2014  15:41:00     -319.857      -74.926       -5.624      294.214      167.273       98.031    86561.770    27980.109     9610.097       11.603        6.208      328.516      141.154        0.185      346.479       24.755      857.143
05/17/2014  15:42:00     -473.230     -167.802      -20.697      216.484      234.835      104.605    46865.453    55147.615    10942.155       18.272        5.648      502.100      112.235        0.050      345.897       23.752      857.129
05/17/2014  15:43:00     -399.843     -278.044       -9.022      253.190      220.637      123.667    64105.409    48680.581    15293.470       18.265        6.404      487.014      131.053        0.072      346.025       23.973      857.179
05/17/2014  15:44:00     -476.600     -178.848        5.367      278.669      235.659      121.286    77656.471    55535.263    14710.177       20.350        7.395      509.052      132.273        0.068      345.806       23.596      857.170
05/17/2014  15:45:00     -358.439     -202.004        5.473      220.790      181.889       89.658    48748.444    33083.755     8038.526       12.957        4.494      411.441       94.667        0.053      346.021       23.965      857.165
05/17/2014  15:46:00     -497.104     -323.144       17.829      358.579      264.863      140.997   128578.693    70152.416    19880.044       28.519       10.931      592.903      174.979        0.087      345.855       23.682      857.172
05/17/2014  15:47:00     -407.575     -314.342       -8.237      286.975      209.993      105.969    82354.453    44096.993    11229.347       20.131        6.884      514.712      114.103        0.049      345.871       23.709      857.162
05/17/2014  15:48:00     -479.752     -296.811      -12.340      197.646      200.317       95.646    39063.936    40126.701     9148.167       20.336        4.417      564.144       92.541        0.027      345.838       23.652      857.146
05/17/2014  15:49:00     -510.984     -242.979       -4.691      255.902      175.920      107.396    65486.072    30947.735    11533.906       21.405        5.398      565.812      112.982        0.040      345.869       23.706      857.128
05/17/2014  15:50:00     -366.539     -202.804        2.350      235.648      203.133      106.182    55530.148    41263.176    11274.688       14.176        5.403      418.904      129.023        0.095      345.945       23.834      857.107
05/17/2014  15:51:00     -340.439     -137.757       -0.891      217.792      229.080       97.672    47433.261    52477.740     9539.795       12.214        5.473      367.254       74.639        0.041      346.142       24.174      857.149
05/17/2014  15:52:00     -524.003     -298.346      -25.843      305.980      315.468      122.715    93623.682    99519.933    15059.055       28.619       10.410      602.984      141.932        0.055      345.826       23.630      857.142
05/17/2014  15:53:00     -580.467     -325.665      -25.058      268.104      255.765      133.483    71879.538    65415.927    17817.649       29.934        7.756      665.583      122.912        0.034      345.783       23.558      857.131
05/17/2014  15:54:00     -600.794     -300.811      -40.323      267.653      306.683      122.096    71638.210    94054.232    14907.503       31.680        9.030      671.893      115.086        0.029      345.823       23.625      857.137
05/17/2014  15:55:00     -362.805     -225.704       18.096      280.604      211.740      109.293    78738.568    44833.623    11944.991       15.918        6.776      427.282      124.033        0.084      345.894       23.749      857.171
05/17/2014  15:56:00     -514.488     -374.810       -6.999      318.789      221.641      137.142   101626.187    49124.948    18808.000       28.736        8.478      636.538      156.518        0.060      345.854       23.680      857.153
05/17/2014  15:57:00     -448.510     -117.259        6.008      251.560      219.892      108.902    63282.679    48352.586    11859.540       16.920        6.175      463.585      124.237        0.072      346.135       24.162      857.155
05/17/2014  15:58:00     -371.121     -166.511       10.543      230.620      169.088      111.936    53185.563    28590.622    12529.570       12.992        4.715      406.764      111.679        0.075      346.105       24.110      857.141
05/17/2014  15:59:00     -471.836     -153.431       -6.966      274.387      216.276      116.920    75288.497    46775.486    13670.344       19.095        6.787      496.156      144.738        0.085      346.094       24.090      857.140
05/17/2014  16:00:00     -308.103     -138.104        1.317      219.853      148.687       90.205    48335.424    22107.954     8137.013        9.628        3.929      337.639      100.296        0.088      346.162       24.208      857.202
05/17/2014  16:01:00     -353.855     -265.176        7.662      268.443      227.285      111.444    72061.497    51658.380    12419.780       16.584        6.807      442.189      126.461        0.082      346.026       23.974      857.226
05/17/2014  16:02:00     -711.021     -471.757      -17.033      312.348      261.340      130.385    97560.983    68298.532    17000.324       45.559        9.143      853.291      140.357        0.027      345.597       23.238      857.181
05/17/2014  16:03:00     -531.133     -363.305       -3.372      248.503      230.807      120.729    61753.981    53271.788    14575.384       27.183        6.480      643.500      122.646        0.036      345.659       23.344      857.206
05/17/2014  16:04:00     -427.611     -260.389       -9.505      270.339      197.348       91.173    73082.957    38946.411     8312.551       18.552        6.017      500.653      101.401        0.041      345.764       23.524      857.172
05/17/2014  16:05:00     -452.467      -79.017      -28.180      214.998      149.934      103.333    46224.240    22480.091    10677.728       14.556        3.969      459.315       91.527        0.040      345.857       23.685      857.222
05/17/2014  16:06:00     -376.683     -134.851        6.678      215.760      167.697       92.293    46552.424    28122.428     8517.984       12.164        4.160      400.094      110.844        0.077      345.881       23.726      857.178
05/17/2014  16:07:00     -458.004     -263.359       14.374      281.568      219.861      111.314    79280.627    48338.989    12390.775       20.964        7.001      528.323      127.230        0.058      345.699       23.413      857.160
05/17/2014  16:08:00     -569.638     -312.984      -10.185      232.188      177.376       92.831    53911.170    31462.392     8617.666       25.825        4.700      649.959       96.767        0.022      345.783       23.557      857.155
05/17/2014  16:09:00     -518.257     -308.175      -12.030      303.860      215.070      130.367    92330.725    46254.910    16995.587       25.961        7.779      602.961      151.799        0.063      345.829       23.636      857.174
05/17/2014  16:10:00     -438.236     -336.395        9.451      315.983      259.948      147.653    99845.127    67573.054    21801.486       24.722        9.461      552.461      175.133        0.100      345.657       23.340      857.199
05/17/2014  16:11:00     -544.882     -422.624      -17.307      296.169      228.559      120.456    87715.920    52239.022    14509.628       31.511        7.723      689.571      140.785        0.042      345.647       23.324      857.179
05/17/2014  16:12:00     -615.713     -382.844      -18.630      298.643      253.024      123.639    89187.360    64021.317    15286.497       34.722        8.425      725.032      137.074        0.036      345.567       23.187      857.202
05/17/2014  16:13:00     -260.882     -257.172        1.135      236.770      240.724      107.382    56059.844    57948.144    11530.942       12.984        6.277      366.329      132.414        0.131      345.598       23.239      857.154
05/17/2014  16:14:00     -691.043     -155.271       -0.756      311.145      211.119      115.231    96811.184    44571.350    13278.207       32.812        7.733      708.272      120.331        0.029      345.695       23.406      857.168
05/17/2014  16:15:00     -488.078     -235.329       -6.732      287.746      174.761      127.511    82797.524    30541.534    16258.972       21.160        6.480      541.848      151.403        0.078      345.705       23.423      857.167
05/17/2014  16:16:00     -401.342     -206.079       -0.621      219.092      183.058      100.399    48001.384    33510.305    10080.013       14.755        4.580      451.159      100.783        0.050      345.903       23.764      857.226
05/17/2014  16:17:00     -230.730     -289.994       15.828      192.470      173.282       97.220    37044.788    30026.500     9451.792       10.704        3.826      370.585       98.722        0.071      345.891       23.742      857.220
05/17/2014  16:18:00     -409.072     -379.406      -12.589      270.206      245.854      116.786    73011.378    60444.123    13638.864       22.924        7.355      557.933      119.577        0.046      345.749       23.498      857.224
05/17/2014  16:19:00     -301.744     -319.120       19.634      210.805      191.921      115.079    44438.627    36833.828    13243.124       14.388        4.726      439.189      113.849        0.067      345.731       23.469      857.270
05/17/2014  16:20:00     -367.613     -294.288       -2.717      269.818      211.490       99.501    72801.943    44728.071     9900.524       17.457        6.372      470.898       93.262        0.039      345.667       23.357      857.244
05/17/2014  16:21:00     -226.053     -136.403        9.468      191.644      163.008       76.824    36727.372    26571.737     5901.984        6.948        3.460      264.018       92.480        0.123      345.904       23.766      857.242
05/17/2014  16:22:00     -321.182     -177.711        2.178      193.223      156.767       90.904    37335.224    24576.027     8263.569       10.245        3.509      367.068       76.205        0.043      345.978       23.891      857.277
05/17/2014  16:23:00     -493.718     -255.101      -16.063      209.863      223.793       85.902    44042.331    50083.115     7379.179       20.528        5.075      555.729       86.104        0.024      345.722       23.453      857.308
05/17/2014  16:24:00     -522.163     -270.945      -16.035      219.614      222.390       98.269    48230.176    49457.508     9656.850       22.681        5.367      588.274       96.460        0.027      345.508       23.085      857.255
05/17/2014  16:25:00     -345.942     -155.794        7.019      179.319      194.370       85.955    32155.336    37779.689     7388.329       11.064        3.866      379.404       78.053        0.042      345.643       23.315      857.269
05/17/2014  16:26:00     -338.262      -84.713      -18.211      175.306      154.326       78.222    30732.327    23816.576     6118.678        9.129        3.033      348.709       87.635        0.063      345.714       23.439      857.272
05/17/2014  16:27:00     -345.936     -106.467       22.059      199.904      184.969       92.995    39961.593    34213.663     8648.046       10.714        4.141      361.948      113.483        0.098      345.808       23.599      857.275
05/17/2014  16:28:00     -257.822     -146.803       18.327      179.022      157.319       80.242    32048.806    24749.265     6438.778        7.579        3.162      296.687       88.261        0.089      345.833       23.643      857.246
05/17/2014  16:29:00     -495.558     -354.786      -16.234      307.054      210.088      123.819    94282.065    44136.986    15331.124       26.270        7.688      609.468      143.024        0.055      345.513       23.093      857.242
05/17/2014  16:30:00     -515.393     -230.639      -30.657      238.182      200.470      105.651    56730.867    40188.370    11162.087       21.390        5.404      564.646      116.453        0.043      345.510       23.089      857.219
05/17/2014  16:31:00     -465.276     -281.834      -17.586      210.800      199.426       84.329    44436.812    39770.539     7111.310       19.375        4.566      543.978       88.413        0.026      345.635       23.303      857.187
05/17/2014  16:32:00     -418.557     -303.636       -6.570      264.424      222.520      105.911    69919.924    49515.308    11217.074       19.901        6.533      517.093      112.810        0.048      345.606       23.253      857.203
05/17/2014  16:33:00     -491.931     -282.840        2.007      244.675      209.298      120.941    59865.903    43805.788    14626.686       22.013        5.915      567.446      136.823        0.058      345.694       23.404      857.229
05/17/2014  16:34:00     -416.898     -255.107      -18.053      231.437      190.271       88.809    53563.205    36203.151     7886.959       16.841        4.883      488.757       90.776        0.034      345.725       23.458      857.223
05/17/2014  16:35:00     -444.748     -304.460        3.862      255.547      194.296      108.355    65304.358    37750.861    11740.782       20.263        5.740      538.978      126.436        0.055      345.576       23.201      857.193
05/17/2014  16:36:00     -459.660     -372.781       13.200      296.141      198.963      125.157    87699.607    39586.354    15664.161       24.666        7.148      591.822      150.803        0.065      345.579       23.206      857.176
05/17/2014  16:37:00     -463.314     -308.469       23.219      277.851      205.942      116.576    77201.219    42412.149    13590.078       22.175        6.660      556.608      128.227        0.053      345.520       23.105      857.220
05/17/2014  16:38:00     -524.395     -343.097       -9.269      262.758      191.807      118.867    69041.776    36790.029    14129.293       25.635        5.998      626.662      124.537        0.039      345.472       23.023      857.187
05/17/2014  16:39:00     -460.339     -310.643        6.783      265.914      190.383      107.429    70710.163    36245.593    11540.953       21.345        5.925      555.348      113.973        0.042      345.472       23.021      857.197
05/17/2014  16:40:00     -448.287     -238.196       -6.676      200.712      190.920       95.717    40285.159    36450.571     9161.671       17.180        4.295      507.640       88.954        0.031      345.413       22.921      857.167
05/17/2014  16:41:00     -320.452     -197.888        5.472      197.070      192.113      101.575    38836.529    36907.445    10317.464       11.395        4.303      376.629      109.895        0.085      345.776       23.545      857.173
05/17/2014  16:42:00     -188.382     -204.521       -2.202      160.022      155.067       88.784    25607.176    24045.859     7882.587        6.742        2.877      278.059       92.751        0.111      345.840       23.656      857.208
05/17/2014  16:43:00     -361.182     -156.267       -2.886      183.255      166.320       85.023    33582.305    27662.250     7228.949       11.166        3.424      393.537       91.792        0.054      345.676       23.372      857.202
05/17/2014  16:44:00     -148.361     -433.534       -3.999      183.982      197.555       84.726    33849.219    39027.852     7178.532       14.500        4.003      458.217       71.662        0.024      345.730       23.466      857.209
05/17/2014  16:45:00     -419.244     -283.116        2.705      263.675      228.281      102.137    69524.293    52112.011    10432.057       19.397        6.603      505.885      104.562        0.043      345.600       23.243      857.191
05/17/2014  16:46:00     -441.379     -402.333      -21.474      184.120      181.956       95.249    33900.277    33107.957     9072.394       21.660        3.804      597.233       78.608        0.017      345.515       23.096      857.191
05/17/2014  16:47:00     -598.305     -359.216      -18.478      264.482      182.451      103.943    69950.786    33288.322    10804.218       30.067        5.702      697.858      109.475        0.025      345.497       23.065      857.177
05/17/2014  16:48:00     -330.578     -275.052       -1.004      230.120      169.793       79.437    52955.230    28829.502     6310.166       13.650        4.405      430.041      105.523        0.060      345.592       23.229      857.164
05/17/2014  16:49:00     -371.382     -318.134        5.775      220.914      188.262      113.200    48803.070    35442.565    12814.140       16.809        4.853      489.013      109.865        0.050      345.694       23.404      857.138
05/17/2014  16:50:00     -568.545     -164.299        8.783      264.524      257.000      104.142    69972.928    66049.168    10845.630       24.856        7.343      591.809      116.838        0.039      345.673       23.368      857.135
05/17/2014  16:51:00     -383.986     -270.006       -3.556      230.771      201.199      106.702    53255.405    40481.071    11385.339       16.272        5.256      469.413      114.965        0.060      345.734       23.472      857.195
05/17/2014  16:52:00     -513.920     -349.852       -6.313      279.173      244.853      122.588    77937.760    59953.169    15027.746       26.970        7.646      621.699      134.658        0.047      345.512       23.091      857.218
05/17/2014  16:53:00     -509.004     -308.683       -6.206      249.036      173.322      114.957    62018.996    30040.447    13215.082       22.982        5.264      595.290      120.360        0.041      345.287       22.704      857.209
05/17/2014  16:54:00     -399.496     -303.155        6.455      286.697      209.794      107.119    82195.236    44013.697    11474.407       19.459        6.884      501.498      115.948        0.053      345.294       22.718      857.196
05/17/2014  16:55:00     -562.839     -324.090       -3.398      266.810      206.110      115.567    71187.442    42481.398    13355.799       27.440        6.351      649.478      129.163        0.040      345.313       22.750      857.186
05/17/2014  16:56:00     -504.361     -220.336       -8.720      256.628      233.947      116.570    65857.985    54731.225    13588.491       21.856        6.709      550.389      127.247        0.053      345.341       22.798      857.170
05/17/2014  16:57:00     -464.236     -243.415        5.866      252.886      242.190      112.801    63951.178    58655.900    12724.068       20.504        6.767      524.181      114.026        0.047      345.378       22.861      857.187
05/17/2014  16:58:00     -508.358     -305.135       -7.171      250.505      197.601      117.152    62752.823    39045.981    13724.532       23.353        5.776      592.904      122.947        0.043      345.378       22.864      857.192
05/17/2014  16:59:00     -553.407     -313.050      -19.057      247.764      222.546       92.956    61386.972    49526.711     8640.886       26.206        5.978      635.814       92.131        0.021      345.311       22.747      857.245
05/17/2014  17:00:00     -384.276     -202.824       -5.074      236.418      203.385      105.284    55893.503    41365.282    11084.825       14.857        5.417      434.518      105.296        0.059      345.445       22.978      857.258
05/17/2014  17:01:00     -442.629     -244.509       -7.417      260.106      191.164      114.611    67655.160    36543.677    13135.590       18.652        5.867      505.673      125.818        0.062      345.284       22.702      857.262
05/17/2014  17:02:00     -251.541     -384.463        0.658      175.738      227.666       94.125    30883.964    51831.991     8859.584       15.131        4.579      459.440       92.229        0.040      345.287       22.704      857.289
05/17/2014  17:03:00     -402.897     -338.277      -16.916      204.697      183.540       96.650    41900.982    33687.039     9341.299       18.097        4.246      526.077       97.723        0.035      345.319       22.760      857.254
05/17/2014  17:04:00     -276.168     -143.902       -4.376      198.601      132.583       76.045    39442.437    17578.195     5782.787        7.989        3.140      311.411       80.285        0.066      345.452       22.990      857.262
05/17/2014  17:05:00     -391.799     -221.062       13.244      252.502      175.232      107.816    63757.202    30706.240    11624.281       15.430        5.304      449.861      136.131        0.092      345.422       22.938      857.280
05/17/2014  17:06:00     -402.647     -271.481        1.485      301.956      224.060      119.888    91177.282    50202.787    14373.013       19.576        7.788      485.620      152.350        0.098      345.128       22.435      857.258
05/17/2014  17:07:00     -376.842     -286.643       -6.770      242.344      176.538      102.011    58730.820    31165.669    10406.264       16.224        5.015      473.470      115.240        0.059      345.150       22.470      857.239
05/17/2014  17:08:00     -480.941     -337.901       -9.541      254.812      169.238      105.999    64929.120    28641.377    11235.892       22.517        5.240      587.777       98.011        0.028      345.084       22.358      857.248
05/17/2014  17:09:00     -477.687     -215.763       -2.605      279.453      210.083      133.516    78093.805    44134.876    17826.501       20.737        7.003      524.155      136.807        0.068      345.224       22.598      857.246
05/17/2014  17:10:00     -404.306     -203.584        4.928      247.101      215.183       98.980    61058.762    46303.792     9797.077       16.102        5.858      452.670      129.799        0.082      345.279       22.691      857.256
05/17/2014  17:11:00     -443.468     -152.062       -2.357      176.814      130.827      103.399    31263.145    17115.722    10691.304       13.942        2.954      468.814       86.539        0.034      345.290       22.710      857.243
05/17/2014  17:12:00     -436.823     -114.418        8.699      227.159      173.138      110.296    51601.010    29976.686    12165.198       14.884        4.687      451.559      121.129        0.072      345.321       22.764      857.241
05/17/2014  17:13:00     -483.900     -293.357      -20.951      277.027      205.296      110.184    76743.892    42146.306    12140.433       22.582        6.552      565.878      141.142        0.062      345.329       22.777      857.269
05/17/2014  17:14:00     -693.265     -454.272      -11.554      226.074      192.170      115.058    51109.332    36929.134    13238.294       39.418        5.064      828.842      110.128        0.018      344.948       22.125      857.231
05/17/2014  17:15:00     -423.277     -216.030       -2.960      292.156      192.905      104.787    85354.980    37212.307    10980.217       17.967        6.677      475.219      133.311        0.079      345.015       22.241      857.226
05/17/2014  17:16:00     -357.100     -238.768       -8.230      275.707      174.803       96.720    76014.572    30555.948     9354.853       15.024        5.796      429.570      103.989        0.059      345.224       22.598      857.252
05/17/2014  17:17:00     -359.850     -362.147      -11.363      179.749      180.942       97.260    32309.574    32740.115     9459.537       16.763        3.725      510.532       87.896        0.030      345.012       22.235      857.243
05/17/2014  17:18:00     -392.599     -259.831      -11.076      224.548      172.921       89.112    50421.759    29901.677     7941.014       15.500        4.413      470.793      102.838        0.048      345.124       22.427      857.237
05/17/2014  17:19:00     -334.344     -276.801       -3.250      209.004      148.021       83.355    43682.579    21910.266     6948.112       13.046        3.627      434.056       84.106        0.038      345.162       22.492      857.219
05/17/2014  17:20:00     -478.796     -277.159       -3.856      241.299      204.725      106.192    58225.020    41912.184    11276.642       20.872        5.571      553.229      117.968        0.045      345.179       22.523      857.228
05/17/2014  17:21:00     -419.716     -284.940      -11.212      251.830      179.012       94.811    63418.507    32045.249     8989.071       18.094        5.223      507.300      102.625        0.041      345.207       22.570      857.233
05/17/2014  17:22:00     -398.307     -229.559       -0.012      253.512      168.445       99.966    64268.161    28373.578     9993.134       15.697        5.132      459.723      122.296        0.071      345.079       22.349      857.243
05/17/2014  17:23:00     -415.018     -217.568       11.731      281.629      236.529      116.044    79315.006    55946.103    13466.186       18.419        7.436      468.589      139.079        0.088      345.091       22.372      857.229
05/17/2014  17:24:00     -597.629     -376.616      -11.706      324.411      224.353      122.479   105242.644    50334.144    15001.137       33.482        8.529      706.399      136.453        0.037      344.920       22.077      857.229
05/17/2014  17:25:00     -452.514     -338.708        2.053      263.767      216.416      101.361    69573.167    46835.924    10274.068       22.306        6.334      565.236      119.222        0.044      344.963       22.151      857.211
05/17/2014  17:26:00     -476.896     -313.492       -5.941      311.705      262.068      100.082    97159.942    68679.537    10016.425       25.076        8.793      570.708      134.802        0.056      344.991       22.200      857.227
05/17/2014  17:27:00     -493.027     -307.338       -1.735      277.038      206.492      109.920    76750.230    42638.904    12082.458       23.448        6.574      580.976      138.370        0.057      344.906       22.054      857.196
05/17/2014  17:28:00     -559.571     -393.380       -3.413      243.590      225.689      114.797    59336.056    50935.530    13178.416       29.564        6.173      684.009      128.486        0.035      344.931       22.096      857.194
05/17/2014  17:29:00     -547.348     -352.338      -29.928      254.116      235.444       95.188    64575.156    55434.066     9060.695       27.682        6.453      650.947      100.596        0.024      344.949       22.128      857.240
05/17/2014  17:30:00     -555.831     -231.044      -21.223      244.937      219.961       92.033    59993.976    48382.745     8470.001       23.979        5.842      601.938      103.753        0.030      344.994       22.204      857.247
05/17/2014  17:31:00     -435.497     -204.980      -21.097      271.708      158.010       90.241    73825.146    24967.036     8143.433       16.951        5.347      481.326      108.462        0.051      344.941       22.114      857.261
05/17/2014  17:32:00     -491.494     -209.329      -21.339      301.633      174.477      108.722    90982.343    30442.099    11820.410       20.952        6.662      534.215      140.044        0.069      345.055       22.309      857.230
05/17/2014  17:33:00     -411.097     -322.784      -18.596      229.431      230.364      104.414    52638.717    53067.484    10902.214       19.505        5.830      522.675      121.076        0.054      344.844       21.948      857.235
05/17/2014  17:34:00     -336.757     -116.903        0.832      197.947      139.663       85.642    39182.882    19505.845     7334.599        9.653        3.301      356.471       99.319        0.078      345.109       22.401      857.234
05/17/2014  17:35:00     -400.934     -191.815      -22.318      260.159      157.938       84.219    67682.523    24944.340     7092.776       14.886        4.986      444.456       76.374        0.030      345.063       22.324      857.242
05/17/2014  17:36:00     -550.841     -299.545      -13.998      263.490      206.775      109.329    69427.188    42756.079    11952.918       25.872        6.207      627.019      122.606        0.038      344.801       21.873      857.254
05/17/2014  17:37:00     -495.367     -112.466      -19.470      229.403      161.227       88.580    52625.685    25994.050     7846.483       17.242        4.323      507.974       83.873        0.027      344.867       21.988      857.234
05/17/2014  17:38:00     -373.593     -316.945        3.031      264.184      154.558      108.465    69792.992    23888.209    11764.722       17.272        5.272      489.925      119.710        0.060      344.877       22.005      857.245
05/17/2014  17:39:00     -377.727     -198.625      -22.717      200.244      140.803       78.947    40097.560    19825.348     6232.656       12.439        3.308      426.766       73.950        0.030      344.780       21.837      857.230
05/17/2014  17:40:00     -269.083     -261.766       23.650      204.921      216.770      104.593    41992.722    46989.127    10939.632       12.068        4.996      375.403      105.138        0.078      344.948       22.125      857.220
05/17/2014  17:41:00     -299.545     -286.400       15.724      225.596      138.300       78.108    50893.658    19126.754     6100.859       12.405        3.806      414.430       90.638        0.048      344.886       22.020      857.235
05/17/2014  17:42:00     -384.492     -265.603       -9.730      219.521      139.498       82.717    48189.627    19459.750     6842.165       14.647        3.725      467.311       97.813        0.044      344.807       21.886      857.199
05/17/2014  17:43:00     -338.719     -253.340      -13.700      159.430      129.623       82.536    25417.849    16802.126     6812.248       11.406        2.452      422.980       75.044        0.031      344.933       22.100      857.180
05/17/2014  17:44:00     -272.519     -118.443        8.808      143.794      134.422       79.407    20676.645    18069.245     6305.398        6.670        2.253      297.146       79.124        0.071      345.048       22.298      857.172
05/17/2014  17:45:00     -314.656     -226.304      -21.494      143.944      130.879       85.014    20719.797    17129.244     7227.346        9.787        2.254      387.585       70.587        0.033      345.130       22.438      857.205
05/17/2014  17:46:00     -349.718     -211.209       13.674      240.719      159.096       84.143    57945.438    25311.587     7080.127       12.870        4.517      408.548       99.085        0.059      345.181       22.525      857.213
05/17/2014  17:47:00     -398.104     -153.409       -8.416      238.252      179.591       98.812    56764.046    32252.824     9763.906       14.042        4.939      426.639      113.508        0.071      344.922       22.082      857.216
05/17/2014  17:48:00     -413.458     -228.654      -13.217      247.583      200.997      103.155    61297.520    40399.721    10641.040       16.785        5.617      472.472      136.706        0.084      344.870       21.992      857.220
05/17/2014  17:49:00     -472.664     -251.841      -11.433      221.207      163.196      103.275    48932.711    26632.920    10665.809       18.658        4.312      535.570      111.318        0.043      344.740       21.770      857.200
05/17/2014  17:50:00     -370.324     -224.476      -13.090      230.086      181.003       77.349    52939.384    32762.113     5982.903       13.967        4.584      433.047       81.079        0.035      344.751       21.790      857.185
05/17/2014  17:51:00     -414.645     -255.568       15.115      249.666      227.164      119.671    62333.054    51603.500    14321.049       18.284        6.413      487.079      148.419        0.093      344.829       21.924      857.162
05/17/2014  17:52:00     -532.510     -244.677      -22.391      239.555      229.188       99.011    57386.539    52527.048     9803.088       23.180        5.986      586.032       95.592        0.027      344.820       21.907      857.161
05/17/2014  17:53:00     -478.986     -313.520      -10.098      294.980      203.524      117.297    87012.987    41422.190    13758.547       23.498        7.110      572.471      133.838        0.055      344.734       21.761      857.191
05/17/2014  17:54:00     -556.977     -249.477       -7.921      267.292      185.630       98.597    71444.892    34458.582     9721.357       24.405        5.781      610.297      109.387        0.032      344.677       21.662      857.179
05/17/2014  17:55:00     -425.853     -194.355       -5.347      213.380      169.048       99.234    45531.129    28577.362     9847.372       15.154        4.198      468.108      100.776        0.046      344.754       21.794      857.212
05/17/2014  17:56:00     -410.952     -246.520       -9.989      233.769      197.696       95.372    54647.937    39083.753     9095.753       16.627        5.141      479.222      107.653        0.050      344.715       21.729      857.216
05/17/2014  17:57:00     -419.276     -130.196      -14.432      200.195      187.577       96.953    40078.118    35185.195     9399.879       13.879        4.233      439.026      107.650        0.060      344.710       21.718      857.176
05/17/2014  17:58:00     -226.519     -151.901       -7.294      143.022      118.807       69.246    20455.308    14115.160     4795.019        5.689        1.968      272.736       70.504        0.067      344.818       21.905      857.194
05/17/2014  17:59:00     -272.515     -166.255       -6.191      151.132      132.116       77.005    22840.819    17454.708     5929.798        7.408        2.311      319.226       66.321        0.043      344.921       22.081      857.194
05/17/2014  18:00:00     -451.522     -282.468      -11.489      203.892      222.941       97.732    41571.881    49702.528     9551.461       19.229        5.041      532.597      100.260        0.035      344.830       21.924      857.171
05/17/2014  18:01:00     -319.658      -74.152        5.531      198.506      162.489       96.179    39404.829    26402.694     9250.307        9.137        3.753      328.146      101.620        0.096      344.884       22.016      857.182
05/17/2014  18:02:00     -284.457     -123.270        1.674      157.847      164.819       72.564    24915.748    27165.433     5265.601        7.672        2.867      310.018       70.775        0.052      344.927       22.090      857.172
05/17/2014  18:03:00     -271.526     -268.265        2.905      183.072      160.234       81.863    33515.258    25674.870     6701.529       10.578        3.295      381.697       95.979        0.063      344.911       22.062      857.192
05/17/2014  18:04:00     -488.220     -283.248      -13.275      273.871      218.334      119.615    75005.333    47669.805    14307.681       22.785        6.849      564.437      138.311        0.060      344.717       21.729      857.144
05/17/2014  18:05:00     -398.299     -268.019      -19.626      203.496      156.531      102.878    41410.741    24502.060    10583.947       15.366        3.825      480.080       98.643        0.042      344.814       21.896      857.163
05/17/2014  18:06:00     -538.285     -302.707      -14.523      281.195      243.183      111.876    79070.498    59137.822    12516.189       26.613        7.536      617.562      141.126        0.052      344.568       21.476      857.164
05/17/2014  18:07:00     -515.250     -273.473       -7.531      240.283      215.070      108.726    57735.839    46255.056    11821.387       22.805        5.791      583.326      125.631        0.046      344.602       21.533      857.155
05/17/2014  18:08:00     -329.440     -207.708      -10.154      231.147      188.110      107.341    53428.912    35385.193    11522.148       12.604        5.017      389.453      117.987        0.092      344.616       21.558      857.174
05/17/2014  18:09:00     -365.719     -239.793        0.387      248.590      142.707       82.911    61796.770    20365.345     6874.170       14.013        4.452      437.322      104.300        0.057      344.530       21.412      857.190
05/17/2014  18:10:00     -374.202     -200.858      -17.589      198.145      166.696       91.546    39261.489    27787.641     8380.618       12.804        3.771      424.702       98.998        0.054      344.649       21.614      857.177
05/17/2014  18:11:00     -414.021     -140.833        4.392      243.337      229.944      108.309    59212.728    52874.399    11730.896       15.752        6.191      437.318      119.690        0.075      344.672       21.653      857.176
05/17/2014  18:12:00     -543.777     -347.720      -22.835      245.062      187.059      114.327    60055.512    34991.152    13070.677       26.260        5.406      645.448      125.727        0.038      344.543       21.433      857.140
05/17/2014  18:13:00     -365.378     -232.359       14.760      210.004      218.016      115.790    44101.639    47530.903    13407.352       14.635        5.252      433.004      111.316        0.066      344.563       21.468      857.172
05/17/2014  18:14:00     -333.585     -230.088        1.737      186.383      139.139       74.003    34738.764    19359.559     5476.403       11.189        2.979      405.240       75.954        0.035      344.576       21.488      857.165
05/17/2014  18:15:00     -332.750     -220.995       -1.347      187.531      159.159       94.049    35167.722    25331.452     8845.160       11.444        3.467      399.451      100.688        0.064      344.603       21.534      857.189
05/17/2014  18:16:00     -477.332     -271.856        0.993      266.354      175.795       80.397    70944.700    30903.955     6463.674       20.501        5.416      549.319       80.524        0.021      344.584       21.503      857.186
05/17/2014  18:17:00     -395.086     -321.736       -5.455      206.524      191.100      102.763    42652.140    36519.345    10560.259       17.467        4.487      509.516      120.708        0.056      344.417       21.217      857.157
05/17/2014  18:18:00     -283.377     -273.313       13.319      206.090      198.352      105.724    42472.973    39343.388    11177.583       12.407        4.650      393.704      116.399        0.087      344.505       21.367      857.136
05/17/2014  18:19:00     -429.916     -206.804       -5.635      172.935      153.101       83.516    29906.453    23439.790     6974.904       14.396        3.016      477.070       61.441        0.017      344.512       21.381      857.140
05/17/2014  18:20:00     -401.211     -237.620       -4.408      193.453      189.604       94.868    37424.201    35949.683     8999.935       14.990        4.119      466.297       98.162        0.044      344.565       21.470      857.151
05/17/2014  18:21:00     -447.354     -246.409       -7.444      240.307      242.268       94.186    57747.626    58693.947     8870.921       19.308        6.266      510.727       96.112        0.035      344.502       21.364      857.142
05/17/2014  18:22:00     -263.174     -128.897        5.910      187.652      152.289       76.200    35213.430    23191.931     5806.384        7.505        3.211      293.044       84.723        0.084      344.584       21.502      857.166
05/17/2014  18:23:00     -361.870     -313.036      -16.942      186.274      197.467       96.103    34697.909    38993.335     9235.752       15.606        4.146      478.478      103.798        0.047      344.404       21.196      857.152
05/17/2014  18:24:00     -307.682     -106.291        0.836      212.354      177.338       95.804    45094.403    31448.937     9178.324        9.583        4.286      325.525      105.425        0.105      344.520       21.394      857.114
05/17/2014  18:25:00     -279.676     -203.012       -0.235      201.081      184.128       81.518    40433.568    33903.157     6645.144       10.019        4.049      345.590      106.803        0.096      344.528       21.408      857.128
05/17/2014  18:26:00     -378.556     -184.626       -5.058      250.746      171.157       96.856    62873.765    29294.744     9381.144       13.946        5.077      421.179      113.977        0.073      344.537       21.424      857.105
05/17/2014  18:27:00     -367.393     -219.633       15.572      256.333      193.585      119.273    65706.479    37474.974    14226.030       15.041        5.870      428.037      127.540        0.089      344.446       21.267      857.139
05/17/2014  18:28:00     -431.715     -239.418      -10.658      222.734      214.790       98.426    49610.490    46134.692     9687.590       17.460        5.272      493.658       93.486        0.036      344.310       21.036      857.135
05/17/2014  18:29:00     -384.928     -211.729      -16.314      195.512      130.049       81.020    38224.966    16912.648     6564.266       12.747        3.085      439.316       81.592        0.034      344.377       21.147      857.124
05/17/2014  18:30:00     -315.421     -191.191       -1.722      176.326      139.262       83.588    31090.938    19393.830     6986.987        9.675        2.874      368.842       87.057        0.056      344.439       21.255      857.136
05/17/2014  18:31:00     -336.888     -289.359      -29.054      183.550      176.257       88.414    33690.604    31066.673     7817.083       13.531        3.629      444.097       86.977        0.038      344.450       21.274      857.147
05/17/2014  18:32:00     -334.695     -219.111       12.781      263.389      183.600      100.797    69373.728    33709.049    10159.989       13.670        5.662      400.038      133.924        0.112      344.457       21.286      857.136
05/17/2014  18:33:00     -488.273     -311.122       -8.645      218.979      169.594       96.426    47951.711    28761.968     9297.968       21.063        4.301      578.971       95.601        0.027      344.340       21.085      857.129
05/17/2014  18:34:00     -338.916     -135.611        9.054      207.921      141.112       97.247    43230.984    19912.709     9456.893       10.295        3.630      365.040      109.991        0.091      344.503       21.365      857.138
05/17/2014  18:35:00     -280.348     -129.214       -8.036      173.538      115.782       72.941    30115.290    13405.557     5320.400        7.209        2.442      308.693       69.762        0.051      344.552       21.449      857.145
05/17/2014  18:36:00     -283.187      -82.588        0.661      230.175      133.407       74.889    52980.691    17797.345     5608.318        8.169        3.819      294.984       99.522        0.114      344.480       21.327      857.147
05/17/2014  18:37:00     -324.390     -176.052       12.965      240.273      177.198       92.441    57731.139    31399.046     8545.366       11.701        4.884      369.084      103.221        0.078      344.412       21.209      857.122
05/17/2014  18:38:00     -441.289     -322.483      -15.321      224.053      166.874       99.505    50199.801    27846.775     9901.219       19.344        4.397      546.563       99.869        0.033      344.348       21.101      857.113
05/17/2014  18:39:00     -304.339     -212.149      -10.999      170.963      132.887       93.641    29228.274    17658.875     8768.640        9.669        2.783      370.984       88.647        0.057      344.476       21.319      857.136
05/17/2014  18:40:00     -290.480     -125.168        2.414      214.065      149.163       94.750    45823.960    22249.632     8977.590        8.854        3.853      316.300      115.525        0.133      344.462       21.296      857.127
05/17/2014  18:41:00     -394.754     -222.970      -21.894      233.669      175.949       98.395    54600.970    30958.066     9681.490       15.061        4.762      453.372      109.943        0.059      344.374       21.145      857.137
05/17/2014  18:42:00     -314.530     -279.014        7.231      201.456      171.800      115.394    40584.614    29515.304    13315.829       13.011        4.171      420.450      119.713        0.081      344.335       21.078      857.141
05/17/2014  18:43:00     -299.186      -92.673      -18.240      169.818      101.360       79.746    28838.008    10273.947     6359.494        7.194        2.274      313.210       76.559        0.060      344.434       21.248      857.174
05/17/2014  18:44:00     -188.483      -85.009        8.546      128.452       90.299       60.570    16499.924     8153.822     3668.758        3.557        1.416      206.766       52.727        0.065      344.539       21.427      857.183
05/17/2014  18:45:00     -426.586     -259.282      -16.611      241.713      172.643      107.553    58425.013    29805.505    11567.690       17.462        4.990      499.202      129.889        0.068      344.318       21.050      857.178
05/17/2014  18:46:00     -640.414     -232.828      -31.345      273.670      247.078      111.109    74895.100    61047.413    12345.199       30.678        7.414      681.425      124.356        0.033      344.234       20.905      857.162
05/17/2014  18:47:00     -499.468     -312.116      -12.144      259.543      195.043      112.635    67362.474    38041.716    12686.612       23.254        5.905      588.969      114.495        0.038      344.220       20.880      857.184
05/17/2014  18:48:00     -388.262     -279.000        4.769      250.678      238.767      121.595    62839.442    57009.828    14785.348       18.160        6.732      478.109      140.569        0.086      344.180       20.812      857.195
05/17/2014  18:49:00     -301.717     -217.672       -6.252      236.432      180.322      115.400    55900.027    32515.900    13317.244       12.007        5.087      372.041      121.232        0.106      344.204       20.853      857.209
05/17/2014  18:50:00     -532.109     -270.757      -26.128      251.782      171.646       88.479    63394.131    29462.238     7828.594       22.889        5.034      597.034       92.325        0.024      344.164       20.786      857.202
05/17/2014  18:51:00     -397.729     -265.091      -19.420      211.284      158.628       89.876    44640.880    25162.734     8077.659       15.334        3.894      477.977      108.053        0.051      344.158       20.775      857.213
05/17/2014  18:52:00     -454.995     -156.719      -10.368      223.583      176.816       91.897    49989.475    31263.723     8445.143       16.068        4.485      481.229      111.147        0.053      344.166       20.788      857.212
05/17/2014  18:53:00     -523.183     -314.747      -28.309      281.359      186.598       92.578    79163.045    34818.909     8570.669       24.805        6.128      610.562      117.405        0.037      344.150       20.762      857.190
05/17/2014  18:54:00     -438.410     -202.003       -8.567      228.554      178.769       97.184    52236.995    31958.273     9444.708       16.334        4.682      482.709      105.321        0.048      344.152       20.765      857.176
05/17/2014  18:55:00     -304.879     -134.934        6.544      155.207      144.046       65.897    24089.359    20749.129     4342.440        8.018        2.459      333.405       69.891        0.044      344.218       20.877      857.189
05/17/2014  18:56:00     -450.488     -130.569       -9.904      197.446      147.943       83.095    38985.102    21887.178     6904.753       14.392        3.389      469.028       91.539        0.038      344.203       20.851      857.198
05/17/2014  18:57:00     -345.654     -137.918       -8.760      137.297      108.705       69.750    18850.329    11816.778     4865.029        8.705        1.777      372.153       66.340        0.032      344.242       20.918      857.220
05/17/2014  18:58:00     -362.501      -74.090      -11.463      179.718      128.917       65.411    32298.647    16619.644     4278.604        9.510        2.660      369.995       65.693        0.032      344.252       20.934      857.226
05/17/2014  18:59:00     -382.492     -138.084       -7.210      244.326      159.686       89.549    59695.368    25499.635     8019.091       12.930        4.661      406.654      112.370        0.076      344.182       20.816      857.197
05/17/2014  19:00:00     -430.562     -227.642        7.833      224.324      208.348      112.270    50321.265    43408.958    12604.472       17.178        5.317      487.037      127.520        0.069      344.069       20.623      857.194
05/17/2014  19:01:00     -529.088     -273.795      -26.361      227.180      225.419      104.038    51610.815    50813.570    10823.829       23.440        5.662      595.733      120.303        0.041      344.070       20.624      857.175
05/17/2014  19:02:00     -480.843     -304.623        4.918      276.506      188.891      102.598    76455.314    35679.969    10526.332       22.332        6.133      569.214      113.197        0.040      344.050       20.590      857.189
05/17/2014  19:03:00     -344.487     -149.163      -13.188      155.697      130.612       70.179    24241.667    17059.531     4925.051        9.365        2.311      375.394       62.748        0.028      344.097       20.671      857.214
05/17/2014  19:04:00     -291.795     -167.588       -5.330      154.628      102.719       56.333    23909.820    10551.193     3173.401        7.544        1.882      336.497       71.263        0.045      344.143       20.750      857.243
05/17/2014  19:05:00     -271.252      -62.528       18.931      206.803      135.337       78.357    42767.372    18316.022     6139.767        7.252        3.361      278.366       85.165        0.094      344.114       20.701      857.231
05/17/2014  19:06:00     -265.100     -249.013       -6.267      163.811      160.743       70.266    26833.980    25838.473     4937.282        9.496        2.880      363.710       73.335        0.041      344.043       20.579      857.255
05/17/2014  19:07:00     -348.308     -203.337       -3.290      220.910      149.113       80.748    48801.387    22234.619     6520.280       12.010        3.878      403.316      101.800        0.064      343.978       20.468      857.230
05/17/2014  19:08:00     -247.258     -161.640        4.146      154.751      165.429       73.873    23947.889    27366.729     5457.271        7.202        2.839      295.405       80.519        0.074      344.007       20.516      857.256
05/17/2014  19:09:00     -388.033     -206.998       -1.687      219.482      182.057      102.123    48172.444    33144.718    10429.179       14.257        4.587      439.793       92.968        0.045      343.992       20.492      857.235
05/17/2014  19:10:00     -514.164     -313.559       -8.598      227.988      222.185      106.131    51978.308    49366.224    11263.814       23.766        5.630      602.232      115.021        0.036      343.906       20.343      857.238
05/17/2014  19:11:00     -416.199     -272.015       -4.003      168.490      163.126       90.309    28388.753    26610.117     8155.649       15.518        3.158      497.206       88.050        0.031      343.898       20.330      857.255
05/17/2014  19:12:00     -361.549     -196.904      -12.195      167.647      132.508       94.130    28105.480    17558.390     8860.366       11.207        2.726      411.690       94.486        0.053      343.896       20.328      857.259
05/17/2014  19:13:00     -428.115     -201.542       -4.887      221.815      170.890       96.619    49201.808    29203.506     9335.303       15.582        4.387      473.182      104.795        0.049      343.865       20.275      857.249
05/17/2014  19:14:00     -389.358     -195.610       -4.881      150.711      151.064       73.331    22713.784    22820.478     5377.397       12.039        2.546      435.733       76.921        0.031      343.890       20.316      857.249
05/17/2014  19:15:00     -200.396     -157.870       18.243      135.765      132.193       64.404    18432.090    17475.068     4147.875        5.273        2.003      255.111       61.672        0.058      343.946       20.414      857.264
05/17/2014  19:16:00     -199.707     -160.912       10.172      154.648      107.884       67.279    23916.075    11638.852     4526.481        5.297        2.004      256.468       78.727        0.094      343.926       20.379      857.260
05/17/2014  19:17:00     -285.973     -111.490        5.660      142.149      112.566       63.479    20206.344    12671.210     4029.631        6.557        1.845      306.937       64.780        0.045      343.938       20.400      857.272
05/17/2014  19:18:00     -449.054     -196.820       -4.257      205.713      196.148       99.757    42317.983    38474.128     9951.374       16.556        4.537      490.294       98.932        0.041      343.822       20.200      857.269
05/17/2014  19:19:00     -392.376     -249.704      -25.777      189.800      147.446       94.567    36024.099    21740.309     8942.835       14.183        3.335      465.092       91.139        0.038      343.817       20.193      857.243
05/17/2014  19:20:00     -328.876     -272.748       11.349      226.707      144.654       99.590    51396.277    20924.845     9918.106       13.244        4.112      427.260      118.189        0.077      343.790       20.146      857.254
05/17/2014  19:21:00     -431.939     -218.563       -2.720      240.217      158.167       84.925    57704.051    25016.736     7212.337       16.212        4.497      484.087      119.340        0.061      343.771       20.114      857.233
05/17/2014  19:22:00     -391.828     -173.091       -5.771      213.389      179.780       92.514    45534.822    32320.764     8558.824       13.495        4.321      428.357      106.738        0.062      343.774       20.120      857.257
05/17/2014  19:23:00     -256.930      -80.859        6.677      168.517      117.984       73.622    28397.883    13920.131     5420.130        6.016        2.387      269.353       87.101        0.105      343.793       20.153      857.277
05/17/2014  19:24:00     -296.429     -126.326      -11.083      120.985       96.711       49.315    14637.485     9353.045     2431.942        6.518        1.321      322.225       64.099        0.040      343.795       20.155      857.289
05/17/2014  19:25:00     -290.396     -181.811       -6.147      259.411      183.207       89.488    67293.839    33564.670     8008.160       11.312        5.443      342.615      110.407        0.104      343.764       20.102      857.275
05/17/2014  19:26:00     -432.413     -287.266       -4.211      238.827      161.907       92.020    57038.506    26213.841     8467.636       18.060        4.586      519.137       97.803        0.035      343.712       20.011      857.274
05/17/2014  19:27:00     -224.612      -88.768        2.709      156.466      120.422       62.260    24481.578    14501.536     3876.319        5.059        2.143      241.516       69.079        0.082      343.792       20.150      857.311
05/17/2014  19:28:00     -349.424     -268.678      -15.927      248.578      168.154      102.665    61791.165    28275.815    10540.110       14.755        5.030      440.778      114.101        0.067      343.675       19.950      857.295
05/17/2014  19:29:00     -321.470     -188.943        7.480      231.245      258.832      106.671    53474.347    66994.060    11378.799       13.545        6.592      372.883      124.493        0.111      343.661       19.926      857.280
05/17/2014  19:30:00     -308.833     -168.056       10.850      198.458      179.518       96.821    39385.613    32226.844     9374.374       10.235        4.049      351.598      105.402        0.090      343.621       19.859      857.305
05/17/2014  19:31:00     -228.747     -186.886        3.706      204.656      171.763       81.216    41884.187    29502.487     6596.085        8.261        3.899      295.383       91.397        0.096      343.676       19.953      857.319
05/17/2014  19:32:00     -471.011     -292.328      -12.443      178.813      141.387       93.947    31974.189    19990.227     8826.082       18.411        3.040      554.353       89.513        0.026      343.574       19.776      857.330
05/17/2014  19:33:00     -507.432     -229.036      -14.811      218.966      184.198      100.761    47946.273    33928.869    10152.793       20.108        4.601      556.727      106.385        0.037      343.546       19.729      857.338
05/17/2014  19:34:00     -436.872     -273.744      -12.765      250.537      194.356       84.580    62768.719    37774.108     7153.803       18.680        5.385      515.551       93.770        0.033      343.527       19.700      857.329
05/17/2014  19:35:00     -270.646      -41.027       10.029      141.747      129.187       63.129    20092.207    16689.341     3985.248        5.789        2.038      273.738       63.866        0.054      343.571       19.773      857.349
05/17/2014  19:36:00     -254.413     -108.732       -1.452      123.034      115.871       55.183    15137.437    13425.979     3045.198        5.407        1.580      276.674       58.798        0.045      343.581       19.791      857.370
05/17/2014  19:37:00     -227.596     -135.338       17.114      152.333      134.013       78.778    23205.205    17959.610     6205.907        5.888        2.369      264.795       94.415        0.127      343.536       19.712      857.385
05/17/2014  19:38:00     -396.842     -102.521      -14.845      165.533      135.210       75.514    27401.193    18281.744     5702.352       10.979        2.569      409.871       85.766        0.044      343.452       19.571      857.385
05/17/2014  19:39:00     -255.084     -117.984       -3.674      151.997       86.823       52.141    23103.073     7538.247     2718.649        5.617        1.668      281.048       56.840        0.041      343.482       19.622      857.400
05/17/2014  19:40:00      -75.695      -53.519       31.341       98.132       98.314       64.988     9629.927     9665.646     4223.485        1.654        1.176       92.704       66.216        0.510      343.475       19.610      857.413
05/17/2014  19:41:00     -171.847      -14.102        4.084      100.939       75.078       57.804    10188.585     5636.696     3341.278        2.445        0.958      172.425       56.138        0.106      343.423       19.521      857.415
05/17/2014  19:42:00     -246.913      -56.620       -4.978      158.684       95.267       63.534    25180.715     9075.758     4036.539        5.124        1.915      253.322       72.094        0.081      343.395       19.474      857.413
05/17/2014  19:43:00     -306.206     -159.093      -20.190      160.486      132.511       69.473    25755.788    17559.216     4826.529        8.380        2.407      345.069       70.850        0.042      343.367       19.425      857.420
05/17/2014  19:44:00     -300.058      -33.217      -27.767      118.688       96.219       57.816    14086.788     9258.062     3342.713        5.929        1.334      301.891       52.510        0.030      343.343       19.385      857.439
05/17/2014  19:45:00     -271.144      -37.798        4.081      165.677      145.253       67.396    27448.988    21098.309     4542.257        6.402        2.654      273.766       73.279        0.072      343.329       19.359      857.462
05/17/2014  19:46:00     -379.027       -5.916      -13.066      153.874      140.458       71.854    23677.136    19728.502     5163.033        9.621        2.428      379.074       65.131        0.030      343.273       19.264      857.432
05/17/2014  19:47:00     -320.132     -163.478      -26.386      145.634      161.618       78.359    21209.121    26120.461     6140.055        9.168        2.673      359.458       78.887        0.048      343.268       19.255      857.455
05/17/2014  19:48:00     -266.002      -51.279       -7.285      127.311      119.703       53.471    16207.971    14328.820     2859.154        5.341        1.670      270.899       39.902        0.022      343.258       19.241      857.467
05/17/2014  19:49:00     -246.075     -127.082        1.199      110.918      118.657       69.453    12302.714    14079.584     4823.683        5.395        1.560      276.953       58.576        0.045      343.242       19.212      857.486
05/17/2014  19:50:00     -208.146     -161.897      -11.642       84.618       63.113       51.478     7160.151     3983.253     2650.030        4.173        0.690      263.696       45.778        0.030      343.222       19.178      857.502
05/17/2014  19:51:00     -267.929     -120.475        2.778      150.493       97.944       61.181    22648.227     9593.119     3743.085        6.114        1.799      293.769       66.772        0.052      343.210       19.157      857.523
05/17/2014  19:52:00     -226.965     -199.161        5.314      155.491      123.739       80.103    24177.587    15311.358     6416.456        6.855        2.295      301.957       72.992        0.058      343.191       19.124      857.545
05/17/2014  19:53:00     -220.935     -107.243       -8.782      111.210       82.698       55.661    12367.556     6838.882     3098.179        4.134        1.115      245.588       61.922        0.064      343.186       19.116      857.537
05/17/2014  19:54:00     -266.043      -81.246       -7.381      108.960       86.243       61.751    11872.320     7437.789     3813.169        5.027        1.156      278.172       61.876        0.049      343.157       19.066      857.533
05/17/2014  19:55:00     -288.879      -45.597       -8.658       77.766       54.989       43.034     6047.565     3023.748     1851.965        4.826        0.546      292.456       41.689        0.020      343.138       19.034      857.537
05/17/2014  19:56:00     -245.753      -80.248      -13.887       98.979       70.867       41.560     9796.892     5022.112     1727.201        4.178        0.827      258.523       45.192        0.031      343.097       18.965      857.557
05/17/2014  19:57:00     -310.848      -58.967       -8.923      174.481      105.364       60.310    30443.638    11101.500     3637.342        7.267        2.259      316.392       65.166        0.042      343.092       18.955      857.560
05/17/2014  19:58:00     -446.976     -158.696      -26.020      168.781      118.497       70.150    28487.159    14041.470     4921.009       13.654        2.372      474.312       82.645        0.030      343.071       18.920      857.555
05/17/2014  19:59:00     -211.329      -61.497        9.457      182.201      106.778       70.042    33197.132    11401.586     4905.893        4.901        2.475      220.095       91.771        0.174      343.052       18.889      857.567
05/17/2014  20:00:00     -259.550      -75.383        4.706      116.006      163.944       63.215    13457.490    26877.478     3996.129        5.869        2.217      270.276       58.175        0.046      343.028       18.849      857.578
05/17/2014  20:01:00     -232.992      -30.300      -23.394       93.160       82.230       46.729     8678.862     6761.854     2183.560        3.668        0.881      234.954       48.098        0.042      343.028       18.849      857.590
05/17/2014  20:02:00     -213.606        5.806        1.614       99.563       79.877       44.596     9912.819     6380.340     1988.833        3.197        0.914      213.684       41.700        0.038      342.983       18.771      857.603
05/17/2014  20:03:00     -293.410      -87.040      -17.589      164.867      119.819       65.199    27181.214    14356.699     4250.973        6.987        2.289      306.048       77.787        0.065      342.975       18.757      857.615
05/17/2014  20:04:00     -256.932     -125.046      -12.459      120.730       92.434       54.576    14575.825     8544.118     2978.541        5.395        1.305      285.746       62.215        0.047      342.966       18.741      857.628
05/17/2014  20:05:00     -272.349      -67.247      -18.258       98.663       89.327       39.152     9734.346     7979.383     1532.908        4.913        0.962      280.528       38.654        0.019      342.952       18.719      857.668
05/17/2014  20:06:00     -280.126      -51.904       -5.707      130.199      102.341       56.733    16951.827    10473.782     3218.679        5.591        1.532      284.894       63.586        0.050      342.930       18.682      857.671
05/17/2014  20:07:00     -321.618     -124.740       -2.718      161.386      118.421       65.428    26045.463    14023.587     4280.840        8.167        2.217      344.961       74.244        0.046      342.909       18.646      857.670
05/17/2014  20:08:00     -126.934       14.946       18.461       92.746       70.715       54.310     8601.738     5000.618     2949.629        1.661        0.828      127.811       43.527        0.116      342.854       18.554      857.690
05/17/2014  20:09:00     -371.002      -33.020      -26.833      139.308      128.360       66.653    19406.742    16476.413     4442.563        8.988        2.016      372.469       67.370        0.033      342.869       18.577      857.686
05/17/2014  20:10:00     -294.662      -54.028       -3.331      114.663       89.349       58.624    13147.650     7983.291     3436.819        5.716        1.228      299.574       56.709        0.036      342.843       18.533      857.723
05/17/2014  20:11:00     -154.390      -76.944       -5.977       95.013       84.268       48.522     9027.487     7101.118     2354.345        2.413        0.924      172.501       50.690        0.086      342.871       18.582      857.744
05/17/2014  20:12:00     -126.631      -28.860        3.359       62.155       54.915       32.223     3863.196     3015.708     1038.297        1.240        0.396      129.878       22.670        0.030      342.842       18.535      857.767
05/17/2014  20:13:00      -61.073      -19.929       21.727       82.232       54.519       40.003     6762.174     2972.320     1600.245        0.796        0.567       64.243       50.224        0.611      342.808       18.477      857.775
05/17/2014  20:14:00     -199.401      -80.962      -14.832       88.023       50.333       37.998     7748.034     2533.420     1443.811        2.913        0.586      215.211       47.923        0.050      342.836       18.520      857.788
05/17/2014  20:15:00     -141.401      -33.460      -16.463       34.037       32.576       24.275     1158.508     1061.189      589.288        1.210        0.140      145.306        7.900        0.003      342.845       18.540      857.792
05/17/2014  20:16:00     -222.755      -27.360      -14.945       98.855       73.100       50.018     9772.343     5343.588     2501.797        3.410        0.881      224.429       52.915        0.056      342.774       18.415      857.818
05/17/2014  20:17:00     -275.184      -28.894      -16.026       69.899       56.875       33.306     4885.841     3234.773     1109.264        4.302        0.461      276.697       32.965        0.014      342.779       18.422      857.826
05/17/2014  20:18:00     -290.174      -45.298      -11.141       89.994       98.702       47.904     8098.839     9742.084     2294.776        5.325        1.007      293.689       37.278        0.016      342.783       18.429      857.827
05/17/2014  20:19:00     -350.174       75.088      -23.024       71.738       88.317       43.671     5146.406     7799.828     1907.185        7.182        0.743      358.134       34.020        0.009      342.773       18.414      857.811
05/17/2014  20:20:00     -265.837      -24.990      -34.271      102.559       51.033       46.564    10518.295     2604.400     2168.167        4.388        0.765      267.009       54.037        0.041      342.760       18.391      857.846
05/17/2014  20:21:00     -134.979       21.005      -10.110       37.500       35.115       22.855     1406.234     1233.084      522.332        1.096        0.158      136.603       17.095        0.016      342.718       18.323      857.873
05/17/2014  20:22:00     -149.218      -17.839      -15.578       77.283       51.429       35.869     5972.689     2644.930     1286.609        1.636        0.495      150.281       35.026        0.054      342.785       18.436      857.880
05/17/2014  20:23:00     -122.958      -68.314       -1.058       74.845       54.701       30.680     5601.794     2992.233      941.256        1.466        0.477      140.661       30.472        0.047      342.725       18.334      857.901
05/17/2014  20:24:00      -53.684      -18.154        0.202       63.311       35.953       25.729     4008.227     1292.590      661.997        0.459        0.298       56.671       19.167        0.114      342.735       18.351      857.909
05/17/2014  20:25:00     -107.837        9.486       -2.014      111.247       58.194       40.408    12375.942     3386.549     1632.843        1.456        0.870      108.254       59.652        0.304      342.699       18.290      857.917
05/17/2014  20:26:00     -215.280      -91.775      -11.334       72.689       89.964       45.373     5283.748     8093.475     2058.706        3.516        0.772      234.026       49.170        0.044      342.687       18.266      857.923
05/17/2014  20:27:00     -233.204      -30.858      -25.749       69.838       75.998       37.970     4877.296     5775.770     1441.742        3.404        0.605      235.236       28.152        0.014      342.673       18.243      857.926
05/17/2014  20:28:00     -153.946       17.107      -11.137       68.599       61.793       39.498     4705.871     3818.431     1560.071        1.710        0.504      154.894       34.638        0.050      342.635       18.181      857.930
05/17/2014  20:29:00     -110.089       19.392       -7.235       59.946       75.012       38.608     3593.472     5626.738     1490.557        1.163        0.536      111.784       34.139        0.093      342.634       18.181      857.957
05/17/2014  20:30:00     -112.435      -61.000      -12.227      171.828       69.419       46.923    29524.983     4818.960     2201.787        2.652        1.827      127.917       48.094        0.141      342.652       18.210      857.949
05/17/2014  20:31:00     -234.474      -92.523        6.606      130.678      100.076       67.507    17076.717    10015.271     4557.194        4.761        1.582      252.068       68.724        0.074      342.562       18.056      857.968
05/17/2014  20:32:00     -203.090      -59.880      -11.983      104.405       94.940       57.795    10900.457     9013.642     3340.244        3.411        1.163      211.734       45.089        0.045      342.564       18.060      857.972
05/17/2014  20:33:00     -162.435     -100.661       -8.635      148.302       94.072       60.137    21993.440     8849.454     3616.458        3.552        1.723      191.096       71.671        0.141      342.582       18.091      857.963
05/17/2014  20:34:00     -236.668     -117.824      -16.850      100.954       76.148       42.266    10191.637     5798.549     1786.446        4.397        0.889      264.376       28.311        0.011      342.589       18.103      857.952
05/17/2014  20:35:00     -142.351       10.503      -16.139       68.000       48.094       31.637     4623.946     2312.999     1000.928        1.428        0.397      142.738       37.986        0.071      342.546       18.031      857.962
05/17/2014  20:36:00     -143.108      -54.156       -2.141      114.731       69.875       44.043    13163.174     4882.555     1939.746        2.170        0.999      153.013       51.298        0.112      342.557       18.047      857.985
05/17/2014  20:37:00     -117.955      -82.576      -12.766       81.743       66.688       36.550     6681.988     4447.341     1335.878        1.668        0.623      143.987       39.662        0.076      342.558       18.051      857.995
05/17/2014  20:38:00      -94.695       -6.080       -6.258       39.951       42.325       20.883     1596.120     1791.369      436.106        0.643        0.191       94.890       17.620        0.034      342.544       18.028      857.999
05/17/2014  20:39:00     -197.504      -83.100       -9.492       65.889       42.269       25.332     4341.411     1786.656      641.721        2.639        0.338      214.274       23.744        0.012      342.532       18.004      858.017
05/17/2014  20:40:00      -89.085      -37.592       -0.766       39.754       32.622       23.430     1580.380     1064.206      548.985        0.627        0.160       96.692       18.290        0.036      342.485       17.928      858.015
05/17/2014  20:41:00     -171.084      -32.119       -9.732       71.774       43.447       24.444     5151.570     1887.637      597.505        1.901        0.382      174.073       25.995        0.022      342.547       18.030      858.047
05/17/2014  20:42:00      -64.753        4.378       -4.983       55.620       24.211       24.306     3093.635      586.161      590.765        0.425        0.214       64.901       27.045        0.174      342.468       17.899      858.071
05/17/2014  20:43:00      -96.888       18.432       -7.989       59.522       65.128       29.660     3542.838     4241.665      879.692        0.923        0.433       98.625       27.944        0.080      342.504       17.961      858.053
05/17/2014  20:44:00     -103.976       21.122      -15.509       65.473      100.756       32.367     4286.659    10151.687     1047.596        1.349        0.774      106.100       39.305        0.137      342.465       17.892      858.064
05/17/2014  20:45:00     -236.523      -51.664      -14.056       93.099       95.415       43.459     8667.504     9103.938     1888.651        3.923        0.983      242.100       44.796        0.034      342.447       17.861      858.093
05/17/2014  20:46:00     -176.118      -53.855       -8.137       87.282       85.295       46.982     7618.067     7275.171     2207.302        2.554        0.855      184.168       45.968        0.062      342.342       17.684      858.115
05/17/2014  20:47:00     -304.033      -95.090      -23.702      131.295      101.500       64.529    17238.498    10302.286     4164.035        6.687        1.585      318.557       71.385        0.050      342.422       17.817      858.100
05/17/2014  20:48:00     -219.197      -79.808       -6.588      123.816       82.894       49.517    15330.504     6871.407     2451.925        3.955        1.233      233.274       33.847        0.021      342.437       17.843      858.131
05/17/2014  20:49:00     -139.776      -21.018       -4.934       47.370       31.312       24.879     2243.900      980.436      618.956        1.192        0.192      141.347       24.409        0.030      342.383       17.754      858.113
05/17/2014  20:50:00     -108.113      -67.983       -8.182       53.045       44.675       19.603     2813.769     1995.821      384.277        1.078        0.260      127.711       12.956        0.010      342.402       17.787      858.106
05/17/2014  20:51:00     -106.816      -75.135        4.471       91.647       52.074       36.137     8399.101     2711.726     1305.913        1.474        0.621      130.594       36.952        0.080      342.369       17.729      858.143
05/17/2014  20:52:00     -222.943       54.282      -23.414       86.470       46.574       33.148     7477.005     2169.099     1098.784        3.197        0.537      229.456       37.690        0.027      342.394       17.770      858.137
05/17/2014  20:53:00     -322.379      -46.122      -13.702      117.759      101.063       53.670    13867.154    10213.633     2880.487        6.660        1.348      325.661       51.877        0.025      342.355       17.703      858.127
05/17/2014  20:54:00     -337.443      -36.590      -26.328      118.386      113.260       59.183    14015.194    12827.885     3502.604        7.312        1.517      339.421       58.409        0.030      342.373       17.735      858.127
05/17/2014  20:55:00     -249.028      -34.574      -10.539      128.285      119.441       61.133    16457.103    14266.231     3737.293        4.888        1.723      251.417       52.219        0.043      342.333       17.666      858.113
05/17/2014  20:56:00     -259.072       23.565      -15.909      141.518      120.538       50.867    20027.375    14529.397     2587.455        5.253        1.857      260.141       49.177        0.036      342.328       17.657      858.132
05/17/2014  20:57:00     -264.493      -57.793      -31.032      134.304       88.900       46.493    18037.458     7903.157     2161.632        5.118        1.405      270.733       49.877        0.034      342.352       17.699      858.154
05/17/2014  20:58:00     -441.875      -28.631        0.049      188.911      165.260       81.631    35687.440    27310.968     6663.616       13.285        3.483      442.802       81.621        0.034      342.371       17.730      858.131
05/17/2014  20:59:00     -198.075      237.387      -33.569      124.159      113.090       57.834    15415.554    12789.261     3344.798        6.413        1.577      309.170       48.047        0.024      342.333       17.666      858.137
05/17/2014  21:00:00     -194.577      140.497      -27.958       86.614      172.508       39.529     7501.994    29759.134     1562.573        4.859        1.941      240.000       34.782        0.021      342.365       17.721      858.125
05/17/2014  21:01:00     -202.154      -10.881      -27.219       81.295       72.288       31.834     6608.917     5225.586     1013.419        2.728        0.642      202.447       34.146        0.028      342.371       17.729      858.144
05/17/2014  21:02:00     -164.989       68.305       -8.937       93.049       79.708       54.322     8658.072     6353.300     2950.902        2.496        0.898      178.569       53.178        0.089      342.304       17.618      858.159
05/17/2014  21:03:00      -69.335       42.090        7.808       73.438       77.210       38.469     5393.069     5961.366     1479.883        0.973        0.642       81.111       31.783        0.154      342.263       17.550      858.150
05/17/2014  21:04:00     -209.791       -7.656      -42.800       84.997      128.627       43.100     7224.417    16544.947     1857.578        3.576        1.281      209.931       28.586        0.019      342.371       17.730      858.173
05/17/2014  21:05:00     -124.334     -110.239      -23.874      107.152       60.270       36.718    11481.532     3632.460     1348.207        2.232        0.823      166.167       26.069        0.025      342.328       17.659      858.157
05/17/2014  21:06:00     -117.489      -41.538        2.885       85.957       97.383       43.960     7388.593     9483.374     1932.519        1.717        0.940      124.615       48.854        0.154      342.238       17.507      858.156
05/17/2014  21:07:00     -172.218      -98.372        2.134      106.978       77.289       48.247    11444.191     5973.620     2327.760        2.954        0.987      198.333       53.479        0.073      342.212       17.462      858.148
05/17/2014  21:08:00      -62.611      -51.801       33.431      151.564      128.589       75.972    22971.559    16535.231     5771.757        2.649        2.264       81.262       88.678        1.191      342.219       17.473      858.158
05/17/2014  21:09:00      -39.781       58.556       -9.361       48.537       62.243       34.818     2355.857     3874.177     1212.281        0.627        0.372       70.791       21.015        0.088      342.188       17.422      858.161
05/17/2014  21:10:00      -31.799       91.850       -1.386       43.029       65.726       41.048     1851.462     4319.884     1684.955        0.865        0.393       97.198       34.555        0.126      342.227       17.489      858.187
05/17/2014  21:11:00     -157.514      -70.061        7.481      151.109       82.624       49.257    22833.974     6826.720     2426.271        3.092        1.604      172.393       62.237        0.130      342.202       17.445      858.196
05/17/2014  21:12:00      -79.396      -16.820        8.321       94.957       54.126       29.043     9016.870     2929.659      843.477        0.972        0.640       81.158       37.720        0.216      342.047       17.182      858.186
05/17/2014  21:13:00      -94.497       11.855       -9.006       50.961       68.401       33.009     2597.048     4678.679     1089.563        0.876        0.418       95.237       24.748        0.068      342.247       17.524      858.188
05/17/2014  21:14:00     -317.397       31.726      -32.220      126.842      158.394       50.439    16088.911    25088.561     2544.080        7.324        2.186      318.978       40.532        0.016      342.144       17.344      858.221
05/17/2014  21:15:00     -278.234      -20.754      -13.258       98.557       89.333       59.184     9713.490     7980.429     3502.725        4.960        1.060      279.007       46.443        0.028      342.119       17.302      858.203
05/17/2014  21:16:00     -183.819      -61.743       -9.335      100.222       73.083       39.584    10044.487     5341.126     1566.855        2.732        0.848      193.912       33.948        0.031      342.096       17.265      858.217
05/17/2014  21:17:00     -211.752      -69.426      -18.591       73.471       74.145       45.431     5397.932     5497.413     2063.965        3.148        0.648      222.843       33.562        0.023      342.118       17.301      858.231
05/17/2014  21:18:00     -123.961      -76.081        5.006      106.442       93.786       39.140    11329.961     8795.735     1531.913        2.141        1.083      145.446       47.355        0.106      342.037       17.164      858.215
05/17/2014  21:19:00     -182.335      -73.928      -17.140       95.772       49.259       34.128     9172.283     2426.420     1164.698        2.588        0.638      196.752       23.218        0.014      342.098       17.266      858.229
05/17/2014  21:20:00     -120.021      -62.680       -4.370       92.903       68.613       43.072     8631.038     4707.744     1855.227        1.677        0.760      135.402       39.663        0.086      342.038       17.168      858.218
05/17/2014  21:21:00     -221.109      -87.729       -2.426      113.796       87.681       49.564    12949.494     7687.872     2456.639        3.984        1.155      237.878       52.225        0.048      342.044       17.175      858.263
05/17/2014  21:22:00     -171.059      -33.973       -8.962       77.143       72.063       40.944     5951.072     5193.111     1676.448        2.166        0.641      174.400       14.006        0.006      342.039       17.167      858.254
05/17/2014  21:23:00     -212.858      -18.132      -10.848       59.557       92.656       31.745     3547.083     8585.076     1007.715        2.944        0.657      213.629       28.467        0.018      342.003       17.106      858.264
05/17/2014  21:24:00     -146.685       98.944       -7.850       90.703      116.600       64.566     8226.980    13595.598     4168.795        2.867        1.300      176.936       43.607        0.061      341.957       17.029      858.290
05/17/2014  21:25:00     -292.585        4.776      -30.827      112.313      113.153       45.934    12614.203    12803.547     2109.920        5.705        1.376      292.624       43.413        0.022      342.078       17.232      858.269
05/17/2014  21:26:00     -337.840     -101.028      -21.325      120.577       93.992       60.568    14538.724     8834.492     3668.475        7.591        1.352      352.623       47.057        0.018      342.053       17.190      858.292
05/17/2014  21:27:00     -202.465        2.478      -18.880       54.215       36.103       25.682     2939.287     1303.433      659.554        2.313        0.245      202.480       25.171        0.015      342.091       17.255      858.317
05/17/2014  21:28:00     -164.432      -22.360      -15.244       77.862       66.211       37.819     6062.567     4383.935     1430.297        1.982        0.594      165.945       46.043        0.077      342.057       17.198      858.275
05/17/2014  21:29:00     -331.923     -156.623      -12.276       93.410       72.347       45.241     8725.460     5234.106     2046.734        7.543        0.800      367.020       43.004        0.014      341.928       16.977      858.310
05/17/2014  21:30:00     -198.309      -22.525        0.995       97.607       60.438       44.242     9527.051     3652.713     1957.350        2.748        0.757      199.584       48.437        0.059      341.871       16.881      858.321
05/17/2014  21:31:00     -157.000       34.287       -8.971       72.399       72.428       40.471     5241.549     5245.757     1637.869        1.901        0.606      160.701       37.920        0.056      341.922       16.969      858.263
05/17/2014  21:32:00     -255.891       34.825      -25.016       55.224       72.162       33.049     3049.704     5207.327     1092.258        3.833        0.467      258.250       26.919        0.011      341.942       16.999      858.269
05/17/2014  21:33:00     -254.608      -11.305      -27.617       88.271       64.440       37.368     7791.739     4152.570     1396.335        3.953        0.667      254.859       40.025        0.025      341.879       16.895      858.260
05/17/2014  21:34:00     -145.261       43.252      -17.808       86.783       91.717       37.561     7531.205     8411.948     1410.858        2.032        0.868      151.564       18.354        0.015      341.878       16.894      858.252
05/17/2014  21:35:00     -239.253       11.992      -23.926      127.485       86.611       50.670    16252.356     7501.486     2567.470        4.213        1.316      239.553       48.817        0.042      341.842       16.831      858.280
05/17/2014  21:36:00     -227.377      -26.429      -25.461       80.648       62.335       44.229     6504.024     3885.706     1956.170        3.269        0.617      228.908       31.494        0.019      341.819       16.793      858.254
05/17/2014  21:37:00      -99.575       13.545      -34.761       88.017       56.088       38.761     7747.020     3145.821     1502.400        1.185        0.620      100.492       27.924        0.077      341.819       16.796      858.245
05/17/2014  21:38:00     -145.169       68.466      -13.037       76.520       79.770       42.927     5855.367     6363.279     1842.728        1.999        0.703      160.505       43.369        0.073      341.863       16.868      858.226
05/17/2014  21:39:00     -126.970       -6.904      -16.149       69.470      106.525       44.366     4826.121    11347.566     1968.330        1.728        0.907      127.158       33.727        0.070      341.887       16.912      858.241
05/17/2014  21:40:00     -175.868       91.744      -23.464      112.383       79.914       57.244    12629.862     6386.243     3276.891        3.109        1.115      198.359       52.171        0.069      341.852       16.850      858.247
05/17/2014  21:41:00     -137.472       73.242       -0.055       91.438      105.418       48.916     8360.938    11112.875     2392.763        2.306        1.093      155.766       39.412        0.064      341.829       16.813      858.239
05/17/2014  21:42:00     -179.853       34.980      -14.394       82.300       64.877       41.103     6773.311     4209.020     1689.427        2.322        0.634      183.223       31.910        0.030      341.851       16.850      858.228
05/17/2014  21:43:00     -140.729       58.908      -25.922       78.356      118.476       35.373     6139.705    14036.505     1251.251        2.268        1.071      152.561       46.046        0.091      341.877       16.894      858.222
05/17/2014  21:44:00     -177.945      119.936      -37.275       52.808       72.728       36.041     2788.638     5289.371     1298.928        2.841        0.469      214.591       33.816        0.025      341.839       16.829      858.226
05/17/2014  21:45:00     -134.958      104.111      -22.601       61.404       78.966       47.508     3770.510     6235.645     2256.999        2.091        0.613      170.449       44.730        0.069      341.864       16.871      858.273
05/17/2014  21:46:00     -158.992       77.577      -39.064       51.974       96.611       42.509     2701.317     9333.656     1807.018        2.333        0.692      176.909       25.246        0.020      341.867       16.877      858.274
05/17/2014  21:47:00     -164.087       11.458      -27.511      100.747       97.402       41.593    10150.054     9487.137     1729.937        2.459        1.068      164.486       42.477        0.067      341.905       16.940      858.281
05/17/2014  21:48:00     -168.914       12.985      -18.503       98.641       87.990       46.834     9730.073     7742.265     2193.422        2.435        0.983      169.412       40.690        0.058      341.772       16.715      858.281
05/17/2014  21:49:00     -139.588       97.734      -20.837       68.552      101.914       41.639     4699.440    10386.451     1733.774        2.314        0.841      170.402       45.547        0.071      341.729       16.642      858.290
05/17/2014  21:50:00     -143.096       51.395      -20.782       95.590       95.885       50.455     9137.539     9193.944     2545.726        2.221        1.044      152.046       44.694        0.086      341.711       16.611      858.279
05/17/2014  21:51:00     -168.075      174.491      -37.106       76.864       85.823       51.450     5908.124     7365.566     2647.121        3.799        0.796      242.274       53.723        0.049      341.664       16.531      858.275
05/17/2014  21:52:00     -146.948      187.017      -27.126       72.393       97.370       48.082     5240.782     9480.907     2311.882        3.717        0.852      237.843       29.500        0.015      341.661       16.525      858.253
05/17/2014  21:53:00     -174.040      213.519      -38.037       74.939       84.373       54.109     5615.780     7118.793     2927.804        4.649        0.783      275.464       41.231        0.022      341.632       16.476      858.235
05/17/2014  21:54:00     -281.544      148.847      -43.684      180.390      120.831       86.728    32540.454    14600.187     7521.736        7.899        2.733      318.469       79.711        0.063      341.752       16.679      858.229
05/17/2014  21:55:00     -189.675      117.310      -26.544      113.073      116.793       53.440    12785.600    13640.617     2855.826        3.986        1.464      223.020       44.729        0.040      341.712       16.611      858.202
05/17/2014  21:56:00     -121.222      292.087      -26.516       90.613      124.471       62.490     8210.700    15492.927     3904.961        6.415        1.380      316.243       64.447        0.042      341.683       16.561      858.218
05/17/2014  21:57:00     -178.180      218.876      -40.260       74.685      119.798       51.900     5577.853    14351.652     2693.644        5.194        1.131      282.232       43.962        0.024      341.693       16.578      858.204
05/17/2014  21:58:00     -219.431      171.895      -48.268       84.742       77.668       49.562     7181.129     6032.277     2456.427        4.785        0.783      278.743       50.917        0.033      341.671       16.542      858.211
05/17/2014  21:59:00     -237.846      122.061      -27.979      144.843      111.939       69.193    20979.615    12530.242     4787.720        5.527        1.915      267.338       67.679        0.064      341.691       16.575      858.195
05/17/2014  22:00:00     -191.869      202.387      -33.247      108.888      157.398       61.764    11856.634    24774.227     3814.771        5.965        2.022      278.880       67.889        0.059      341.667       16.537      858.193
05/17/2014  22:01:00     -282.199      293.627      -56.620      108.928      130.467       64.100    11865.247    17021.592     4108.799       10.102        1.650      407.250       64.143        0.025      341.698       16.588      858.213
05/17/2014  22:02:00     -206.715      233.359      -45.745      100.034       93.172       56.857    10006.748     8681.000     3232.769        6.060        1.096      311.749       49.182        0.025      341.635       16.481      858.218
05/17/2014  22:03:00     -166.822      344.184      -52.236      126.305      122.839       62.008    15953.003    15089.522     3844.990        9.195        1.744      382.481       55.422        0.021      341.649       16.504      858.225
05/17/2014  22:04:00     -148.633      200.429      -45.962       86.133      103.130       47.797     7418.838    10635.718     2284.568        4.235        1.017      249.527       51.784        0.043      341.634       16.481      858.235
05/17/2014  22:05:00     -150.784      163.603      -33.068       78.884       66.161       44.266     6222.733     4377.309     1959.485        3.157        0.628      222.490       47.367        0.045      341.615       16.447      858.247
05/17/2014  22:06:00     -182.661      193.244      -27.871       96.754       81.171       53.741     9361.291     6588.797     2888.095        4.516        0.942      265.910       53.466        0.040      341.619       16.454      858.242
05/17/2014  22:07:00     -241.701      209.215      -59.052       98.485      164.677       55.267     9699.342    27118.545     3054.431        7.277        1.994      319.672       58.060        0.033      341.554       16.343      858.251
05/17/2014  22:08:00     -358.174        9.875      -43.078      100.072      105.188       52.662    10014.471    11064.527     2773.308        7.704        1.193      358.310       48.776        0.019      341.666       16.533      858.257
05/17/2014  22:09:00     -297.586      119.930      -29.033      161.731      121.614       80.996    26156.846    14790.016     6560.279        7.564        2.375      320.844       91.140        0.081      341.658       16.521      858.321
05/17/2014  22:10:00     -249.631      294.622      -59.164       98.527      147.409       63.000     9707.596    21729.267     3968.998        9.400        1.770      386.157       63.632        0.027      341.702       16.594      858.299
05/17/2014  22:11:00     -227.576      325.381      -60.151       98.517       91.649       60.000     9705.577     8399.495     3600.033        9.149        1.085      397.069       54.558        0.019      341.673       16.545      858.285
05/17/2014  22:12:00     -180.623      319.116      -47.784      101.604      104.306       60.684    10323.403    10879.640     3682.509        8.081        1.244      366.687       49.793        0.018      341.677       16.552      858.269
05/17/2014  22:13:00     -146.857      379.385      -42.466      119.466      142.992       68.565    14272.215    20446.737     4701.226       10.335        1.971      406.817       60.821        0.022      341.625       16.464      858.280
05/17/2014  22:14:00     -238.280      436.976      -53.097      135.147      133.830       84.100    18264.752    17910.575     7072.842       14.689        2.162      497.720       59.746        0.014      341.622       16.459      858.281
05/17/2014  22:15:00     -168.313      390.876      -40.863      102.207      148.621       80.611    10446.327    22088.077     6498.164       11.090        1.952      425.574       70.114        0.027      341.600       16.421      858.267
05/17/2014  22:16:00     -222.564      179.072      -38.995      104.151       84.676       50.082    10847.372     7169.952     2508.189        5.182        1.026      285.660       51.518        0.033      341.644       16.496      858.282
05/17/2014  22:17:00     -213.916      183.221      -48.431       90.885       74.841       46.062     8260.082     5601.214     2121.671        4.883        0.799      281.656       45.024        0.026      341.662       16.526      858.294
05/17/2014  22:18:00     -188.566      296.653      -41.489       98.903      151.999       51.718     9781.756    23103.615     2674.752        8.041        1.778      351.511       40.077        0.013      341.657       16.517      858.248
05/17/2014  22:19:00     -221.167       91.045      -39.302       93.475       80.930       60.760     8737.484     6549.586     3691.767        3.886        0.949      239.174       44.487        0.035      341.629       16.472      858.277
05/17/2014  22:20:00     -226.539      104.741      -14.219      141.314      125.264       68.583    19969.750    15691.159     4703.582        5.142        2.018      249.580       70.723        0.080      341.584       16.396      858.313
05/17/2014  22:21:00     -170.756       54.480      -36.922       80.572       95.710       49.273     6491.877     9160.487     2427.795        2.578        0.904      179.237       44.246        0.061      341.554       16.343      858.312
05/17/2014  22:22:00     -173.021      127.250      -27.284       88.855      111.788       72.923     7895.244    12496.479     5317.735        3.629        1.285      214.776       67.414        0.099      341.507       16.264      858.311
05/17/2014  22:23:00     -178.826       96.632      -28.162       87.018       73.692       47.847     7572.207     5430.543     2289.332        2.870        0.765      203.264       46.739        0.053      341.548       16.333      858.314
05/17/2014  22:24:00     -163.138       91.783      -39.137      102.697       72.395       51.203    10546.706     5240.990     2621.712        2.749        0.920      187.185       42.900        0.053      341.570       16.371      858.323
05/17/2014  22:25:00     -214.621       39.594      -25.491      128.823      118.459       60.969    16595.477    14032.557     3717.257        4.131        1.717      218.243       49.619        0.052      341.587       16.402      858.313
05/17/2014  22:26:00     -337.287      -64.990      -26.997      126.683       65.302       58.523    16048.492     4264.409     3424.934        7.122        1.187      343.491       56.039        0.027      341.529       16.302      858.320
05/17/2014  22:27:00     -226.928      -28.947       -9.949      118.015       82.331       49.299    13927.626     6778.397     2430.344        3.778        1.157      228.767       49.932        0.048      341.452       16.171      858.315
05/17/2014  22:28:00     -203.399       73.868      -26.654       79.419       71.466       48.055     6307.336     5107.447     2309.319        3.063        0.686      216.396       47.290        0.048      341.489       16.234      858.300
05/17/2014  22:29:00      -94.749       71.691      -19.182       76.205       90.908       53.173     5807.166     8264.283     2827.334        1.569        0.845      118.814       43.716        0.135      341.494       16.244      858.268
05/17/2014  22:30:00     -228.663      -43.055       -5.989      109.150       94.496       47.964    11913.781     8929.410     2300.541        3.866        1.157      232.681       41.389        0.032      341.526       16.296      858.279
05/17/2014  22:31:00     -299.904      115.354      -62.017      118.191      101.630       57.751    13969.005    10328.595     3335.135        6.736        1.382      321.324       64.436        0.040      341.576       16.382      858.259
05/17/2014  22:32:00     -162.038        1.569      -17.820      100.349      108.596       52.700    10069.966    11793.150     2777.273        2.560        1.232      162.046       36.735        0.051      341.535       16.313      858.240
05/17/2014  22:33:00     -174.582       50.624      -24.642       58.864       90.512       48.452     3464.932     8192.370     2347.558        2.382        0.700      181.773       37.900        0.043      341.546       16.330      858.241
05/17/2014  22:34:00     -213.172      198.149      -41.934      119.310      108.181       66.892    14234.952    11703.093     4474.592        5.843        1.521      291.042       57.594        0.039      341.576       16.382      858.239
05/17/2014  22:35:00     -157.804       74.688      -20.949      108.275       84.456       59.219    11723.517     7132.843     3506.914        2.664        1.118      174.586       57.761        0.109      341.591       16.407      858.197
05/17/2014  22:36:00     -153.560      114.722      -28.451       60.098       98.510       45.700     3611.744     9704.196     2088.476        2.647        0.770      191.682       38.199        0.040      341.631       16.474      858.171
05/17/2014  22:37:00     -145.824       -1.358      -11.419       70.657       62.846       50.697     4992.360     3949.621     2570.204        1.645        0.576      145.831       33.360        0.052      341.656       16.517      858.176
05/17/2014  22:38:00     -259.061      103.798      -30.457      125.753      110.279       67.348    15813.918    12161.434     4535.795        5.566        1.626      279.082       76.169        0.074      341.627       16.468      858.190
05/17/2014  22:39:00     -322.724      -95.713      -32.824      101.184       73.840       57.585    10238.115     5452.401     3316.081        6.669        0.950      336.618       36.127        0.012      341.543       16.323      858.183
05/17/2014  22:40:00     -330.497      -99.779      -21.509      135.483       96.432       59.838    18355.680     9299.190     3580.597        7.543        1.562      345.231       53.108        0.024      341.448       16.164      858.189
05/17/2014  22:41:00     -221.627      -29.126        4.224      104.027      108.015       75.032    10821.669    11667.264     5629.765        3.905        1.406      223.533       57.150        0.065      341.456       16.176      858.186
05/17/2014  22:42:00     -280.424       -6.288      -24.431      116.955      118.522       56.566    13678.540    14047.412     3199.713        5.509        1.546      280.495       30.997        0.012      341.485       16.225      858.165
05/17/2014  22:43:00     -206.740       18.190      -21.999       92.116       99.049       59.024     8485.296     9810.728     3483.851        3.266        1.089      207.539       35.471        0.029      341.503       16.257      858.187
05/17/2014  22:44:00     -239.328      -76.322        7.228      132.305      147.488       72.949    17504.622    21752.592     5321.583        5.386        2.229      251.203       84.316        0.113      341.450       16.167      858.190
05/17/2014  22:45:00     -371.137      -61.202      -35.233      144.756      135.424       64.215    20954.414    18339.707     4123.617        9.307        2.171      376.149       60.145        0.026      341.432       16.137      858.215
05/17/2014  22:46:00     -140.365       15.910        3.096      125.851       75.645       51.535    15838.525     5722.234     2655.832        2.209        1.211      141.263       57.910        0.168      341.481       16.220      858.187
05/17/2014  22:47:00     -288.558       27.344      -23.319      159.476      114.943       61.684    25432.682    13211.906     3804.910        6.349        2.122      289.851       75.301        0.067      341.576       16.382      858.170
05/17/2014  22:48:00     -334.492      -70.647      -27.244      121.875      156.307       70.299    14853.595    24431.816     4942.009        8.091        2.211      341.871       62.959        0.034      341.490       16.235      858.149
05/17/2014  22:49:00     -400.020        3.652      -34.215      118.527      106.715       65.878    14048.690    11388.054     4339.928        9.548        1.489      400.036       63.518        0.025      341.452       16.170      858.161
05/17/2014  22:50:00     -304.451     -114.506      -31.753      140.841      105.186       58.332    19836.052    11064.158     3402.630        7.055        1.715      325.272       46.268        0.020      341.446       16.160      858.142
05/17/2014  22:51:00     -402.568     -119.005      -32.314      105.770       90.340       46.644    11187.398     8161.247     2175.644        9.939        1.076      419.789       44.257        0.011      341.333       15.970      858.146
05/17/2014  22:52:00     -376.161     -123.780      -29.947      115.013       91.391       63.605    13227.881     8352.248     4045.538        9.167        1.281      396.004       53.708        0.018      341.311       15.932      858.154
05/17/2014  22:53:00     -338.896     -119.563      -29.169      104.028      117.633       64.898    10821.757    13837.580     4211.698        7.943        1.444      359.369       47.853        0.018      341.355       16.007      858.155
05/17/2014  22:54:00     -363.974      -60.799      -34.531      108.847      111.147       53.575    11847.655    12353.555     2870.327        8.221        1.354      369.017       53.732        0.021      341.335       15.973      858.164
05/17/2014  22:55:00     -305.352      -87.960      -11.258      120.365      114.484       55.604    14487.727    13106.527     3091.808        6.589        1.534      317.768       40.183        0.016      341.288       15.893      858.174
05/17/2014  22:56:00     -278.893     -135.813      -21.621       93.199       79.115       52.463     8686.060     6259.159     2752.402        5.719        0.885      310.204       39.110        0.016      341.242       15.815      858.192
05/17/2014  22:57:00     -236.734      -65.114       -4.955      119.723      111.059       61.862    14333.654    12333.991     3826.968        4.539        1.525      245.526       59.342        0.058      341.282       15.884      858.184
05/17/2014  22:58:00     -387.738       14.758      -33.542      104.524      121.571       63.937    10925.298    14779.624     4087.909        9.073        1.490      388.019       63.668        0.027      341.355       16.006      858.153
05/17/2014  22:59:00     -317.733      -10.018      -28.788       69.341      112.561       47.419     4808.209    12669.948     2248.582        6.080        0.986      317.891       36.074        0.013      341.373       16.036      858.128
05/17/2014  23:00:00     -311.702      -99.201       -8.790      125.365      108.029       79.946    15716.381    11670.358     6391.295        7.042        1.689      327.107       78.685        0.058      341.283       15.886      858.130
05/17/2014  23:01:00     -340.693     -141.331      -29.876      114.569      101.885       65.289    13125.987    10380.639     4262.639        8.235        1.388      368.844       47.170        0.016      341.334       15.972      858.115
05/17/2014  23:02:00     -342.327     -106.282      -21.156      142.368      103.042       52.000    20268.630    10617.719     2704.046        8.125        1.680      358.446       50.430        0.020      341.277       15.875      858.138
05/17/2014  23:03:00     -388.389     -107.552      -29.825      107.996       83.700       44.534    11663.167     7005.641     1983.286        9.197        1.033      403.006       48.012        0.014      341.309       15.928      858.127
05/17/2014  23:04:00     -361.702      -16.781      -43.845      124.355       74.139       44.435    15464.226     5496.562     1974.478        7.798        1.147      362.091       44.790        0.015      341.332       15.968      858.101
05/17/2014  23:05:00     -340.338      -78.589      -27.739      124.151      103.954       57.167    15413.493    10806.449     3268.044        7.613        1.474      349.294       51.262        0.022      341.284       15.886      858.067
05/17/2014  23:06:00     -216.771      -58.297       -8.198      118.446       83.357       59.143    14029.458     6948.381     3497.866        3.746        1.224      224.473       69.401        0.096      341.199       15.744      858.053
05/17/2014  23:07:00     -379.905      -78.382      -36.770      146.032      130.772       66.487    21325.258    17101.270     4420.524        9.733        2.142      387.907       56.346        0.021      341.275       15.871      858.041
05/17/2014  23:08:00     -474.903      -49.194      -38.572      106.251      144.655       65.265    11289.341    20925.062     4259.491       13.295        1.824      477.444       48.330        0.010      341.333       15.969      858.047
05/17/2014  23:09:00     -473.168      -13.993      -38.666      163.016      103.862       68.875    26574.158    10787.280     4743.763       13.383        2.105      473.375       85.252        0.032      341.454       16.173      858.040
05/17/2014  23:10:00     -373.168      -75.550      -27.017      123.190      117.241       63.385    15175.869    13745.531     4017.689        8.931        1.647      380.739       60.669        0.025      341.387       16.060      858.030
05/17/2014  23:11:00     -304.634      -26.601      -18.893      135.783       88.411       66.160    18436.993     7816.495     4377.140        6.224        1.532      305.794       76.935        0.063      341.291       15.900      858.020
05/17/2014  23:12:00     -373.922      -99.723      -22.520      147.230      139.867       86.932    21676.816    19562.747     7557.165        9.952        2.440      386.991       79.402        0.042      341.320       15.949      857.975
05/17/2014  23:13:00     -399.126      -91.817      -30.139      137.502      143.765       67.385    18906.680    20668.297     4540.707       10.637        2.206      409.551       50.325        0.015      341.436       16.144      857.949
05/17/2014  23:14:00     -354.981      -69.880      -35.966      132.187       96.978       61.162    17473.394     9404.690     3740.796        8.140        1.531      361.794       44.489        0.015      341.416       16.111      857.943
05/17/2014  23:15:00     -276.508      -98.479      -21.229      197.622      101.360       59.878    39054.442    10273.813     3585.399        6.975        2.646      293.521       62.593        0.045      341.337       15.977      857.921
05/17/2014  23:16:00     -324.548       -4.422      -31.230      202.013       78.664       69.319    40809.394     6188.015     4805.119        7.905        2.590      324.578       94.354        0.085      341.392       16.069      857.912
05/17/2014  23:17:00     -242.753      -70.068      -34.553       80.488       65.352       55.360     6478.256     4270.945     3064.724        3.942        0.691      252.663       39.454        0.024      341.284       15.886      857.899
05/17/2014  23:18:00     -381.807      -76.832      -30.766      168.110      138.060       68.158    28261.093    19060.677     4645.483       10.229        2.598      389.461       79.545        0.042      341.265       15.855      857.886
05/17/2014  23:19:00     -345.493      -66.017      -27.245      198.070      144.386       78.515    39231.706    20847.292     6164.682        9.534        3.312      351.744       80.051        0.052      341.313       15.936      857.875
05/17/2014  23:20:00     -262.020      -45.460       -9.236      113.009      129.369       66.144    12771.067    16736.375     4375.062        5.234        1.694      265.935       44.801        0.028      341.299       15.913      857.869
05/17/2014  23:21:00     -331.855     -122.163      -32.504      111.839      121.497       63.539    12507.908    14761.428     4037.185        7.870        1.565      353.626       54.211        0.024      341.307       15.927      857.871
05/17/2014  23:22:00     -252.446      -45.035      -23.398      123.786       95.488       56.787    15322.964     9117.934     3224.722        4.698        1.383      256.431       39.353        0.024      341.303       15.919      857.875
05/17/2014  23:23:00     -190.151      -53.962       -9.044      113.514       96.674       59.315    12885.471     9345.899     3518.282        3.245        1.287      197.659       52.547        0.071      341.276       15.874      857.864
05/17/2014  23:24:00     -281.796     -132.384       -9.982      139.275      113.421       66.429    19397.529    12864.396     4412.839        6.685        1.834      311.343       73.558        0.056      341.254       15.835      857.877
05/17/2014  23:25:00     -396.786     -148.052      -16.117      156.623      123.953       83.553    24530.896    15364.292     6981.111       11.324        2.344      423.508       69.191        0.027      341.228       15.790      857.911
05/17/2014  23:26:00     -407.864     -167.566      -24.881      134.450      132.661       67.460    18076.908    17598.982     4550.821       11.763        2.011      440.944       45.302        0.011      341.234       15.803      857.916
05/17/2014  23:27:00     -329.147     -124.999      -32.996      143.773      109.859       58.537    20670.751    12069.008     3426.625        8.060        1.808      352.083       64.091        0.033      341.210       15.761      857.910
05/17/2014  23:28:00     -318.983     -109.746      -40.838      129.726      107.301       66.220    16828.813    11513.490     4385.143        7.409        1.636      337.334       54.643        0.026      341.209       15.759      857.890
05/17/2014  23:29:00     -255.757      -38.031      -17.846      158.889      149.070       82.755    25245.570    22221.729     6848.465        6.074        2.716      258.569       66.162        0.065      341.221       15.781      857.826
05/17/2014  23:30:00     -220.963      -53.690      -21.180      122.313      117.372       69.922    14960.433    13776.159     4889.037        4.288        1.681      227.392       51.958        0.052      341.225       15.788      857.806
05/17/2014  23:31:00     -236.708      -32.460      -45.054      109.235      107.918       76.363    11932.215    11646.329     5831.374        4.426        1.470      238.923       56.650        0.056      341.257       15.842      857.796
05/17/2014  23:32:00     -220.771      -29.280      -32.391      116.969      101.629       62.200    13681.725    10328.418     3868.792        3.926        1.394      222.705       55.767        0.063      341.230       15.796      857.785
05/17/2014  23:33:00     -181.179      -84.440       -3.621      140.346      107.007       60.224    19696.992    11450.587     3626.937        3.736        1.739      199.890       49.367        0.061      341.143       15.648      857.763
05/17/2014  23:34:00     -290.204      -61.661      -25.734      137.202      113.430       60.732    18824.515    12866.395     3688.362        6.202        1.769      296.682       56.433        0.036      341.203       15.750      857.771
05/17/2014  23:35:00     -303.091      -71.482      -31.737       96.587       75.929       49.220     9329.064     5765.279     2422.637        5.775        0.876      311.406       44.271        0.020      341.190       15.727      857.731
05/17/2014  23:36:00     -425.433      -44.250      -43.579      138.897       79.150       55.535    19292.355     6264.737     3084.109       10.674        1.432      427.728       53.710        0.016      341.166       15.687      857.721
05/17/2014  23:37:00     -350.852      -62.131      -29.862      101.254       86.146       45.299    10252.392     7421.143     2051.976        7.378        0.986      356.311       45.642        0.016      341.127       15.619      857.713
05/17/2014  23:38:00     -203.527     -100.425       -7.702      105.682       70.954       51.886    11168.729     5034.480     2692.188        3.523        0.945      226.954       38.450        0.029      341.112       15.596      857.716
05/17/2014  23:39:00     -255.002      -29.506      -21.296       93.065      115.334       59.513     8661.068    13301.969     3541.823        4.592        1.275      256.703       41.283        0.026      341.112       15.595      857.715
05/17/2014  23:40:00     -190.770      -76.088      -25.117      115.858       94.205       60.573    13423.000     8874.567     3669.118        3.438        1.298      205.383       51.426        0.063      341.107       15.587      857.696
05/17/2014  23:41:00     -206.770      -72.446      -15.098      132.798       86.305       61.088    17635.306     7448.528     3731.741        3.852        1.441      219.094       51.070        0.054      341.092       15.563      857.677
05/17/2014  23:42:00     -190.020      -31.591      -19.112      104.685       55.053       45.938    10958.875     3030.810     2110.267        2.678        0.805      192.628       38.385        0.040      341.128       15.622      857.647
05/17/2014  23:43:00     -237.112      -89.709      -18.694      107.909      113.183       59.608    11644.391    12810.383     3553.078        4.631        1.400      253.515       37.254        0.022      341.119       15.608      857.654
05/17/2014  23:44:00     -219.414      -28.948      -24.526       84.630      108.622       58.856     7162.227    11798.765     3464.054        3.600        1.121      221.315       28.335        0.016      341.132       15.629      857.646
05/17/2014  23:45:00     -214.664      -81.903      -31.543       73.509       97.428       56.723     5403.626     9492.218     3217.486        3.594        0.906      229.758       32.231        0.020      341.144       15.648      857.649
05/17/2014  23:46:00     -284.201      -69.447      -26.206      122.570       72.118       43.504    15023.301     5201.035     1892.584        5.419        1.106      292.563       35.349        0.015      341.131       15.626      857.646
05/17/2014  23:47:00     -215.167      -70.882       -2.373       99.997       88.862       50.162     9999.378     7896.509     2516.199        3.587        1.021      226.542       47.867        0.045      341.091       15.560      857.641
05/17/2014  23:48:00     -266.561      -29.500      -20.989       88.952       79.379       41.365     7912.442     6301.010     1711.049        4.414        0.796      268.188       39.514        0.022      341.148       15.656      857.639
05/17/2014  23:49:00     -252.916       -9.172      -25.931       79.117       80.426       39.223     6259.539     6468.331     1538.415        3.949        0.713      253.082       33.041        0.017      341.186       15.722      857.618
05/17/2014  23:50:00     -183.533      -39.259       -9.219      100.550       80.116       46.576    10110.395     6418.616     2169.358        2.700        0.935      187.685       40.185        0.046      341.164       15.684      857.604
05/17/2014  23:51:00     -263.382      -95.239      -25.852       97.004       69.844       44.418     9409.869     4878.124     1972.954        4.768        0.813      280.073       42.769        0.023      341.150       15.660      857.611
05/17/2014  23:52:00     -184.442      -89.279        6.147      103.960      114.532       58.562    10807.713    13117.519     3429.492        3.469        1.368      204.913       56.295        0.075      341.174       15.700      857.608
05/17/2014  23:53:00     -254.039      -14.924       -7.859      100.169       61.091       50.606    10033.893     3732.095     2560.957        4.057        0.816      254.477       52.181        0.042      341.117       15.604      857.619
05/17/2014  23:54:00     -190.095      -63.718      -13.438       77.065       68.491       35.309     5939.021     4691.081     1246.749        2.612        0.594      200.490       35.614        0.032      341.101       15.577      857.617
05/17/2014  23:55:00     -229.491      -43.895       -1.310       72.233       61.557       39.390     5217.542     3789.308     1551.584        3.257        0.528      233.651       41.489        0.032      341.109       15.589      857.619
05/17/2014  23:56:00     -206.755      -65.408       -9.506       72.634       64.973       44.388     5275.687     4221.499     1970.267        2.929        0.573      216.855       40.092        0.034      341.083       15.546      857.609
05/17/2014  23:57:00     -211.543      -45.177       -7.106       85.497       62.490       36.014     7309.689     3905.021     1297.005        2.967        0.626      216.313       40.801        0.036      341.071       15.525      857.590
05/17/2014  23:58:00     -270.983       -1.794      -27.808      105.474       74.376       47.099    11124.718     5531.847     2218.310        4.654        0.944      270.988       55.511        0.042      341.196       15.738      857.572
05/17/2014  23:59:00     -205.921      -36.996       -7.068       81.357       65.983       42.300     6618.979     4353.783     1789.294        2.829        0.638      209.218       49.000        0.055      341.103       15.580      857.556
